[[{"header":{"parameterUnit":"m.s-1","parameterCategory":1,"la1":30.6,"la2":29.2853,"lo1":-89.7004,"lo2":-87.6739,"dy":0.0162,"dx":0.0183,"nx":112,"ny":82,"refTime":"2023-02-26T06:00:00:Z","depth":0,"parameterNumber":2,"parameterNumberName":"U-component_of_WINDS"},"data":[0.0,0.0,0.0,0.0,0.0,0.0,0.0,0.0,0.0,0.0,0.0,0.0,0.0,0.0,0.0,0.0,0.0,0.0,0.0,0.0,0.0,0.0,0.0,0.0,0.0,0.0,0.0,0.0,0.0,0.0,0.0,0.0,0.0,0.0,0.0,0.0,0.0,0.0,0.0,0.0,0.0,0.0,0.0,0.0,0.0,0.0,0.0,0.0,0.0,0.0,0.0,0.0,0.0,0.0,0.0,0.0,0.0,0.0,0.0,0.0,0.0,0.0,0.0,0.0,0.0,0.0,0.0,0.0,0.0,0.0,0.0,0.0,0.0,0.0,0.0,0.0,0.0,0.0,0.0,0.0,0.0,0.0,0.0,0.0,0.0,0.0,0.0,0.0,0.0,0.0,-2.7993,-2.8685,-3.0535,-3.1626,-3.1406,-3.2155,-3.1777,-2.9732,0.0,0.0,0.0,0.0,0.0,0.0,0.0,0.0,0.0,0.0,0.0,0.0,0.0,0.0,0.0,0.0,0.0,0.0,0.0,0.0,0.0,0.0,0.0,0.0,0.0,0.0,0.0,0.0,0.0,0.0,0.0,0.0,0.0,0.0,0.0,0.0,0.0,0.0,0.0,0.0,0.0,0.0,0.0,0.0,0.0,0.0,0.0,0.0,0.0,0.0,0.0,0.0,0.0,0.0,0.0,0.0,0.0,0.0,0.0,0.0,0.0,0.0,0.0,0.0,0.0,0.0,0.0,0.0,0.0,0.0,0.0,0.0,0.0,0.0,0.0,0.0,0.0,0.0,0.0,0.0,0.0,0.0,0.0,0.0,0.0,0.0,0.0,0.0,0.0,0.0,0.0,0.0,0.0,0.0,0.0,0.0,0.0,0.0,0.0,0.0,0.0,0.0,0.0,0.0,-2.8779,-2.9908,-3.1857,-3.2619,-3.1486,-3.2636,-3.2332,-2.9748,0.0,0.0,0.0,0.0,0.0,0.0,0.0,0.0,0.0,0.0,0.0,0.0,0.0,0.0,0.0,0.0,0.0,0.0,0.0,0.0,0.0,0.0,0.0,0.0,0.0,0.0,0.0,0.0,0.0,0.0,0.0,0.0,0.0,0.0,0.0,0.0,0.0,0.0,0.0,0.0,0.0,0.0,0.0,0.0,0.0,0.0,0.0,0.0,0.0,0.0,0.0,0.0,0.0,0.0,0.0,0.0,0.0,0.0,0.0,0.0,0.0,0.0,0.0,0.0,0.0,0.0,0.0,0.0,0.0,0.0,0.0,0.0,0.0,0.0,0.0,0.0,0.0,0.0,0.0,0.0,0.0,0.0,0.0,0.0,0.0,0.0,0.0,0.0,0.0,0.0,0.0,0.0,0.0,0.0,0.0,0.0,0.0,0.0,0.0,0.0,0.0,0.0,0.0,-2.8591,-2.946,-3.0734,-3.2378,-3.3006,-3.2095,-3.2955,-3.2442,-2.9763,-2.9579,0.0,0.0,0.0,0.0,0.0,0.0,0.0,0.0,0.0,0.0,0.0,0.0,0.0,0.0,0.0,0.0,0.0,0.0,0.0,0.0,0.0,0.0,0.0,0.0,0.0,0.0,0.0,0.0,0.0,0.0,0.0,0.0,0.0,0.0,0.0,0.0,0.0,0.0,0.0,0.0,0.0,0.0,0.0,0.0,0.0,0.0,0.0,0.0,0.0,0.0,0.0,0.0,0.0,0.0,0.0,0.0,0.0,0.0,0.0,0.0,0.0,0.0,0.0,0.0,0.0,0.0,0.0,0.0,0.0,0.0,0.0,0.0,0.0,0.0,0.0,0.0,0.0,0.0,0.0,0.0,0.0,0.0,0.0,0.0,0.0,0.0,0.0,0.0,0.0,0.0,0.0,0.0,0.0,0.0,0.0,0.0,0.0,0.0,0.0,0.0,0.0,0.0,-2.9277,-3.0125,-3.1254,-3.2584,-3.3127,-3.2294,-3.2784,-3.2128,-2.9748,-2.943,0.0,0.0,0.0,0.0,0.0,0.0,0.0,0.0,0.0,0.0,0.0,0.0,0.0,0.0,0.0,0.0,0.0,0.0,0.0,0.0,0.0,0.0,0.0,0.0,0.0,0.0,0.0,0.0,0.0,0.0,0.0,0.0,0.0,0.0,0.0,0.0,0.0,0.0,0.0,0.0,0.0,0.0,0.0,0.0,0.0,0.0,0.0,0.0,0.0,0.0,0.0,0.0,0.0,0.0,0.0,0.0,0.0,0.0,0.0,0.0,0.0,0.0,0.0,0.0,0.0,0.0,0.0,0.0,0.0,0.0,0.0,0.0,0.0,0.0,0.0,0.0,0.0,0.0,0.0,0.0,0.0,0.0,0.0,0.0,0.0,0.0,0.0,0.0,0.0,0.0,0.0,0.0,0.0,0.0,0.0,0.0,0.0,0.0,0.0,0.0,0.0,0.0,-2.995,-3.0658,-3.1232,-3.2632,-3.2966,-3.1591,-3.1647,-3.1136,-2.9678,-2.9011,0.0,0.0,0.0,0.0,0.0,0.0,0.0,0.0,0.0,0.0,0.0,0.0,0.0,0.0,0.0,0.0,0.0,0.0,0.0,0.0,0.0,0.0,0.0,0.0,0.0,0.0,0.0,0.0,0.0,0.0,0.0,0.0,0.0,0.0,0.0,0.0,0.0,0.0,0.0,0.0,0.0,0.0,0.0,0.0,0.0,0.0,0.0,0.0,0.0,0.0,0.0,0.0,0.0,0.0,0.0,0.0,0.0,0.0,0.0,0.0,0.0,0.0,0.0,0.0,0.0,0.0,0.0,0.0,0.0,0.0,0.0,0.0,0.0,0.0,0.0,0.0,0.0,0.0,0.0,0.0,0.0,0.0,0.0,0.0,0.0,0.0,0.0,0.0,0.0,0.0,0.0,0.0,0.0,0.0,0.0,0.0,0.0,0.0,0.0,0.0,0.0,0.0,-2.9093,-2.9801,-3.1271,-3.1947,-3.2222,-3.216,-3.2199,-3.1651,-3.0248,0.0,0.0,0.0,0.0,0.0,0.0,0.0,0.0,0.0,0.0,0.0,0.0,0.0,0.0,0.0,0.0,0.0,0.0,0.0,0.0,0.0,0.0,0.0,0.0,0.0,0.0,0.0,0.0,0.0,0.0,0.0,0.0,0.0,0.0,0.0,0.0,0.0,0.0,0.0,0.0,0.0,0.0,0.0,0.0,0.0,0.0,0.0,0.0,0.0,0.0,0.0,0.0,0.0,0.0,0.0,0.0,0.0,0.0,0.0,0.0,0.0,0.0,0.0,0.0,0.0,0.0,0.0,0.0,0.0,0.0,0.0,0.0,0.0,0.0,0.0,0.0,0.0,0.0,0.0,0.0,0.0,0.0,0.0,0.0,0.0,0.0,0.0,0.0,0.0,0.0,0.0,0.0,0.0,0.0,0.0,0.0,0.0,0.0,0.0,0.0,0.0,0.0,-2.874,-2.9022,-2.9684,-3.1051,-3.1401,-3.162,-3.1912,-3.1934,-3.1439,-3.0308,0.0,0.0,0.0,0.0,0.0,0.0,0.0,0.0,0.0,0.0,0.0,0.0,0.0,0.0,0.0,0.0,0.0,0.0,0.0,0.0,0.0,0.0,0.0,0.0,0.0,0.0,0.0,0.0,0.0,0.0,0.0,0.0,0.0,0.0,0.0,0.0,0.0,0.0,0.0,0.0,0.0,0.0,0.0,0.0,0.0,0.0,0.0,0.0,0.0,0.0,0.0,0.0,0.0,0.0,0.0,0.0,0.0,0.0,0.0,0.0,0.0,0.0,0.0,0.0,0.0,0.0,0.0,0.0,0.0,0.0,0.0,0.0,0.0,0.0,0.0,0.0,0.0,0.0,0.0,0.0,0.0,0.0,0.0,0.0,0.0,0.0,0.0,0.0,0.0,0.0,0.0,0.0,0.0,0.0,0.0,0.0,0.0,0.0,0.0,0.0,0.0,0.0,-2.9385,-3.0107,-3.0576,-3.0505,-3.1161,-3.1313,-3.0563,-3.0507,-3.0238,0.0,0.0,0.0,0.0,0.0,0.0,0.0,0.0,0.0,0.0,0.0,0.0,0.0,0.0,0.0,0.0,0.0,0.0,0.0,0.0,0.0,0.0,0.0,0.0,0.0,0.0,0.0,0.0,0.0,0.0,0.0,0.0,0.0,0.0,0.0,0.0,0.0,0.0,0.0,0.0,0.0,0.0,0.0,0.0,0.0,0.0,0.0,0.0,0.0,0.0,0.0,0.0,0.0,0.0,0.0,0.0,0.0,0.0,0.0,0.0,0.0,0.0,0.0,0.0,0.0,0.0,0.0,0.0,0.0,0.0,0.0,0.0,0.0,0.0,0.0,0.0,0.0,0.0,0.0,0.0,0.0,0.0,0.0,0.0,0.0,0.0,0.0,0.0,0.0,0.0,0.0,0.0,0.0,0.0,0.0,0.0,0.0,0.0,0.0,0.0,0.0,0.0,0.0,-2.8837,-2.9463,-3.0038,-3.0492,-3.0703,-3.091,-3.118,-3.0776,-3.0417,-3.0238,0.0,0.0,0.0,0.0,0.0,0.0,0.0,0.0,0.0,0.0,0.0,0.0,0.0,0.0,0.0,0.0,0.0,0.0,0.0,0.0,0.0,0.0,0.0,0.0,0.0,0.0,0.0,0.0,0.0,0.0,0.0,0.0,0.0,0.0,0.0,0.0,0.0,0.0,0.0,0.0,0.0,0.0,0.0,0.0,0.0,0.0,0.0,0.0,0.0,0.0,0.0,0.0,0.0,0.0,0.0,0.0,0.0,0.0,0.0,0.0,0.0,0.0,0.0,0.0,0.0,0.0,0.0,0.0,0.0,0.0,0.0,0.0,0.0,0.0,0.0,0.0,0.0,0.0,0.0,0.0,0.0,0.0,0.0,0.0,0.0,0.0,0.0,0.0,0.0,0.0,0.0,0.0,0.0,0.0,0.0,0.0,0.0,0.0,0.0,0.0,0.0,0.0,-2.8996,-2.9549,-3.0088,-3.0462,-3.0507,-3.0672,-3.1091,-3.1001,-3.0559,-2.9714,0.0,0.0,0.0,0.0,0.0,0.0,0.0,0.0,0.0,0.0,0.0,0.0,0.0,0.0,0.0,0.0,0.0,0.0,0.0,0.0,0.0,0.0,0.0,0.0,0.0,0.0,0.0,0.0,0.0,0.0,0.0,0.0,0.0,0.0,0.0,0.0,0.0,0.0,0.0,0.0,0.0,0.0,0.0,0.0,0.0,0.0,0.0,0.0,0.0,0.0,0.0,0.0,0.0,0.0,0.0,0.0,0.0,0.0,0.0,0.0,0.0,0.0,0.0,0.0,0.0,0.0,0.0,0.0,0.0,0.0,0.0,0.0,0.0,0.0,0.0,0.0,0.0,0.0,0.0,0.0,0.0,0.0,0.0,0.0,0.0,0.0,0.0,0.0,0.0,0.0,0.0,0.0,0.0,0.0,0.0,0.0,0.0,0.0,0.0,0.0,0.0,0.0,-2.9579,-3.0178,-3.0597,-3.0597,-3.0597,-3.0511,-3.0395,-3.0902,-3.0364,-2.8325,0.0,0.0,0.0,0.0,0.0,0.0,0.0,0.0,0.0,0.0,0.0,0.0,0.0,0.0,0.0,0.0,0.0,0.0,0.0,0.0,0.0,0.0,0.0,0.0,0.0,0.0,0.0,0.0,0.0,0.0,0.0,0.0,0.0,0.0,0.0,0.0,0.0,0.0,0.0,0.0,0.0,0.0,0.0,0.0,0.0,0.0,0.0,0.0,0.0,0.0,0.0,0.0,0.0,0.0,0.0,0.0,0.0,0.0,0.0,0.0,-2.8667,-2.8472,0.0,0.0,0.0,0.0,0.0,0.0,0.0,0.0,0.0,0.0,0.0,0.0,0.0,0.0,0.0,0.0,0.0,0.0,0.0,0.0,0.0,0.0,0.0,0.0,0.0,0.0,0.0,0.0,0.0,0.0,0.0,0.0,0.0,0.0,0.0,0.0,0.0,0.0,0.0,0.0,-2.9579,-3.0597,-3.1315,-3.1315,-3.1315,-3.0847,-2.9754,-2.926,-2.8425,-2.6932,-2.5632,0.0,0.0,0.0,0.0,0.0,0.0,0.0,0.0,0.0,0.0,0.0,0.0,0.0,0.0,0.0,0.0,0.0,0.0,0.0,0.0,0.0,0.0,0.0,0.0,0.0,0.0,0.0,0.0,0.0,0.0,0.0,0.0,0.0,0.0,0.0,0.0,0.0,0.0,0.0,0.0,0.0,0.0,0.0,0.0,0.0,0.0,0.0,0.0,0.0,0.0,0.0,0.0,0.0,0.0,0.0,0.0,0.0,0.0,0.0,-2.922,-2.9071,0.0,0.0,0.0,0.0,0.0,0.0,0.0,0.0,0.0,0.0,0.0,0.0,0.0,0.0,0.0,0.0,0.0,0.0,0.0,0.0,0.0,0.0,0.0,0.0,0.0,0.0,0.0,0.0,0.0,0.0,0.0,0.0,0.0,0.0,0.0,0.0,0.0,0.0,0.0,0.0,-2.9983,-3.0911,-3.1351,-3.097,-3.0896,-3.0381,-2.8919,-2.8519,-2.7575,-2.5932,-2.5141,0.0,0.0,0.0,0.0,0.0,0.0,0.0,0.0,0.0,0.0,0.0,0.0,0.0,0.0,0.0,0.0,0.0,0.0,0.0,0.0,0.0,0.0,0.0,0.0,0.0,0.0,0.0,0.0,0.0,0.0,0.0,0.0,0.0,0.0,0.0,0.0,0.0,0.0,0.0,0.0,0.0,0.0,0.0,0.0,0.0,0.0,0.0,0.0,0.0,0.0,0.0,0.0,0.0,-3.0043,-3.0103,-3.0103,-3.0103,-3.0028,-2.9924,-3.0043,-2.9953,-2.9759,-2.9864,0.0,0.0,0.0,0.0,0.0,0.0,0.0,0.0,0.0,0.0,0.0,0.0,0.0,0.0,0.0,0.0,0.0,0.0,0.0,0.0,0.0,0.0,-2.6533,-2.6533,-2.6533,-2.6533,-2.6533,0.0,0.0,0.0,0.0,0.0,0.0,0.0,0.0,0.0,0.0,0.0,-2.9994,-3.0674,-3.0837,-3.0133,-2.9972,-2.9341,-2.7933,-2.7721,-2.6884,-2.4958,-2.4833,-2.4331,0.0,0.0,0.0,0.0,0.0,0.0,0.0,0.0,0.0,0.0,0.0,0.0,0.0,0.0,0.0,0.0,0.0,0.0,0.0,0.0,0.0,0.0,0.0,0.0,0.0,0.0,0.0,0.0,0.0,0.0,0.0,0.0,-2.7386,-2.8233,0.0,0.0,0.0,0.0,0.0,0.0,0.0,0.0,0.0,0.0,0.0,0.0,0.0,-2.9445,-2.9445,-3.0073,-3.0687,-3.1285,-3.1854,-3.2123,-3.2123,-3.2123,-3.1824,-3.13,-3.1884,0.0,-3.0432,-3.1031,0.0,0.0,0.0,0.0,0.0,0.0,0.0,0.0,0.0,0.0,0.0,0.0,0.0,0.0,0.0,0.0,0.0,0.0,0.0,0.0,0.0,0.0,-2.6533,-2.6533,-2.6533,-2.6533,-2.6533,-2.7095,-2.792,-2.8684,-2.8443,-2.7972,0.0,0.0,0.0,0.0,0.0,0.0,-2.8326,-2.8926,-2.9317,-2.9192,-2.8781,-2.7919,-2.6476,-2.5881,-2.4938,-2.3444,-2.3346,-2.3548,-2.3866,-2.3954,0.0,0.0,0.0,0.0,0.0,0.0,0.0,0.0,0.0,0.0,0.0,0.0,0.0,0.0,0.0,0.0,0.0,0.0,0.0,0.0,0.0,0.0,0.0,0.0,0.0,0.0,0.0,0.0,0.0,-2.7057,-2.8246,-2.854,-2.8607,-2.8487,0.0,0.0,0.0,0.0,0.0,0.0,0.0,0.0,0.0,-2.9146,-2.9774,-3.0103,-3.0103,-3.112,-3.1599,-3.1482,-3.2198,-3.2317,-3.1958,-3.1958,-3.1809,-3.1511,-3.2228,-3.1708,-3.0426,-3.1159,-3.1412,-3.1203,0.0,0.0,0.0,0.0,-2.7406,-2.6796,-2.6349,-2.6217,-2.61,-2.5479,0.0,0.0,0.0,0.0,0.0,0.0,0.0,-2.605,-2.6445,-2.6533,-2.6533,-2.6533,-2.6533,-2.6533,-2.6533,-2.6782,-2.7162,-2.755,-2.7442,-2.7189,-2.6934,-2.7047,0.0,0.0,0.0,-2.8228,-2.8519,-2.8837,-2.8675,-2.7904,-2.7584,-2.6747,-2.5084,-2.4713,-2.4144,-2.3175,-2.3078,-2.3251,-2.3502,-2.3828,-2.4142,0.0,0.0,0.0,0.0,0.0,0.0,0.0,0.0,0.0,0.0,0.0,0.0,0.0,0.0,0.0,0.0,0.0,0.0,0.0,0.0,0.0,0.0,0.0,0.0,0.0,0.0,0.0,0.0,-2.8231,-2.9026,-2.8861,-2.9146,-2.922,0.0,0.0,0.0,0.0,0.0,0.0,-2.9549,-2.9877,-3.0021,-2.9819,-3.0432,-3.0776,-3.0776,-3.1764,-3.2093,-3.1735,-3.2273,-3.2258,-3.1779,-3.1779,-3.1631,-3.1511,-3.2228,-3.1781,-3.056,-3.1205,-3.1112,-3.0463,-2.9035,-2.8242,-2.7827,-2.7192,-2.6817,-2.6621,-2.6506,-2.6533,-2.6433,-2.5787,-2.5511,-2.5322,-2.4946,0.0,0.0,0.0,0.0,-2.5912,-2.6352,-2.6533,-2.6496,-2.6345,-2.6239,-2.6201,-2.6063,-2.6038,-2.6126,-2.6471,-2.6547,-2.657,-2.6427,-2.672,0.0,-2.7341,-2.7534,-2.7813,-2.8295,-2.8363,-2.7889,-2.6674,-2.6426,-2.5703,-2.4129,-2.3866,-2.359,-2.3103,-2.3078,-2.314,-2.3351,-2.3766,-2.4192,-2.4607,0.0,0.0,0.0,0.0,0.0,0.0,0.0,0.0,0.0,0.0,0.0,0.0,0.0,0.0,0.0,0.0,0.0,0.0,0.0,0.0,0.0,0.0,0.0,0.0,0.0,0.0,0.0,0.0,0.0,-2.9609,-3.0627,0.0,0.0,0.0,0.0,-2.9535,-3.006,-3.0179,-2.9633,-3.0685,-3.1044,-3.0447,-3.112,-3.1422,-3.1422,-3.1497,-3.1884,-3.2467,-3.2497,-3.2497,-3.2467,-3.2467,-3.2123,-3.1511,-3.2228,-3.2018,-3.118,-3.118,-3.0401,-2.9093,-2.901,-2.8424,-2.7696,-2.7696,-2.7191,-2.6483,-2.6521,-2.6533,-2.6433,-2.5787,-2.5259,-2.4858,-2.4833,-2.5172,0.0,0.0,-2.6483,-2.6496,-2.6521,-2.6533,-2.6395,-2.5774,-2.5636,-2.5498,-2.5008,-2.4908,-2.5209,-2.6264,-2.6508,-2.6307,-2.5753,0.0,-2.6492,-2.5838,-2.6336,-2.6739,-2.665,-2.6658,-2.6362,-2.5715,-2.5224,-2.4696,-2.4054,-2.3489,-2.3103,-2.3078,-2.3078,-2.3389,-2.3929,-2.3979,-2.4017,-2.4042,-2.2362,0.0,0.0,0.0,0.0,0.0,0.0,0.0,0.0,0.0,0.0,0.0,0.0,0.0,0.0,0.0,0.0,0.0,0.0,0.0,0.0,0.0,0.0,0.0,0.0,0.0,0.0,0.0,0.0,-3.0761,-3.0851,0.0,-3.0836,-3.0073,-2.9744,-3.0148,-3.0368,-3.0618,-3.0806,-3.1242,-3.1377,-3.1165,-3.1347,-3.1482,-3.1482,-3.1958,-3.2078,-3.1884,-3.2317,-3.2287,-3.1884,-3.1884,-3.1442,-3.0718,-3.0951,-3.0278,-2.892,-2.892,-2.8899,-2.8771,-2.8329,-2.767,-2.6867,-2.6483,-2.6155,-2.585,-2.5523,-2.541,-2.5372,-2.5172,-2.4971,-2.482,-2.482,-2.4946,-2.5146,-2.5347,-2.541,-2.541,-2.541,-2.541,-2.536,-2.5146,-2.5096,-2.5046,-2.4858,-2.482,-2.4933,-2.5335,-2.541,-2.5448,-2.5573,-2.5838,-2.6031,-2.6156,-2.6409,-2.654,-2.6508,-2.6533,-2.6239,-2.5649,-2.5134,-2.4594,-2.4054,-2.3477,-2.3078,-2.3078,-2.3078,-2.2971,-2.2676,-2.2625,-2.2582,-2.2315,-2.0819,-2.0212,0.0,0.0,0.0,0.0,0.0,0.0,0.0,0.0,0.0,0.0,0.0,0.0,0.0,0.0,0.0,0.0,0.0,0.0,0.0,0.0,0.0,0.0,0.0,0.0,0.0,0.0,-3.0223,-3.1091,-3.118,-3.127,-3.1452,-3.0746,-3.0417,-3.0821,-3.0851,-3.1046,-3.1452,-3.1482,-3.1482,-3.1482,-3.1482,-3.1482,-3.1482,-3.1958,-3.1958,-3.1482,-3.1973,-3.1958,-3.1482,-3.1219,-3.0777,-3.0269,-3.0011,-2.9066,-2.7723,-2.7525,-2.7656,-2.7858,-2.7206,-2.6678,-2.6101,-2.5536,-2.5335,-2.5285,-2.4946,-2.4695,-2.4544,-2.4544,-2.4544,-2.4544,-2.4544,-2.4669,-2.482,-2.482,-2.482,-2.482,-2.482,-2.482,-2.477,-2.4594,-2.4544,-2.4494,-2.4293,-2.4255,-2.4255,-2.4255,-2.4695,-2.5197,-2.5536,-2.5762,-2.6076,-2.6653,-2.6647,-2.6596,-2.6716,-2.6647,-2.6239,-2.5649,-2.5134,-2.4594,-2.4054,-2.364,-2.3339,-2.3078,-2.2997,-2.2628,-2.1951,-2.1628,-2.1325,-2.1138,-1.9909,-1.9396,-1.9579,0.0,0.0,0.0,0.0,0.0,0.0,0.0,0.0,0.0,0.0,0.0,0.0,0.0,0.0,0.0,0.0,0.0,0.0,0.0,0.0,0.0,0.0,0.0,-2.742,-2.923,-3.0522,-3.0567,-3.1704,-3.2243,-3.1556,-3.1482,-3.1482,-3.1482,-3.1482,-3.1482,-3.1482,-3.1482,-3.1482,-3.1482,-3.1482,-3.1482,-3.1482,-3.1482,-3.1482,-3.1482,-3.1482,-3.1482,-3.1409,-3.0644,-3.0269,-3.0147,-2.9317,-2.8492,-2.763,-2.7103,-2.6699,-2.6445,-2.5799,-2.5586,-2.5523,-2.4996,-2.4782,-2.477,-2.477,-2.4418,-2.3966,-2.3966,-2.3966,-2.3966,-2.3966,-2.4343,-2.477,-2.477,-2.477,-2.477,-2.477,-2.477,-2.4632,-2.4104,-2.3966,-2.3816,-2.3263,-2.3078,-2.3078,-2.3078,-2.4456,-2.5573,-2.5573,-2.605,-2.6615,-2.7168,-2.6804,0.0,-2.7193,-2.6791,-2.6251,-2.5686,-2.5159,-2.4619,-2.4067,-2.4004,-2.3753,-2.3115,-2.2807,-2.24,-2.1839,-2.0974,-2.0526,-2.0526,-1.9704,-1.908,-1.8562,0.0,0.0,0.0,0.0,0.0,0.0,0.0,0.0,0.0,0.0,0.0,0.0,0.0,0.0,0.0,0.0,0.0,0.0,0.0,0.0,0.0,0.0,-2.5923,-2.7153,-2.9199,-3.0866,-3.1839,-3.1869,-3.1913,-3.2213,-3.1824,-3.1482,-3.1482,-3.1482,-3.1482,-3.1482,-3.1482,-3.1482,-3.1482,-3.1482,-3.1482,-3.1482,-3.1482,-3.1482,-3.1482,-3.1482,-3.1219,-3.0644,-3.0389,-2.9628,-2.8427,-2.8182,-2.7604,-2.6799,-2.6225,-2.5886,-2.5774,-2.5247,-2.5259,-2.5485,-2.4569,-2.3954,-2.3602,-2.3602,-2.3502,-2.3376,-2.3376,-2.3376,-2.3376,-2.3376,-2.3477,-2.3602,-2.3602,-2.3602,-2.3602,-2.3602,-2.3602,-2.3565,-2.3414,-2.3376,-2.3326,-2.3115,-2.3078,-2.3078,-2.3078,-2.4167,-2.5034,-2.5034,-2.5473,-2.6025,-2.6603,-2.6553,-2.6584,-2.6666,-2.6622,-2.6471,-2.6239,-2.5724,-2.5172,-2.4644,-2.423,-2.3493,-2.2297,-2.2145,-2.1504,-2.0085,-1.9748,-1.9365,-1.8721,-1.8773,-1.8715,0.0,0.0,0.0,0.0,0.0,0.0,0.0,0.0,0.0,0.0,0.0,0.0,0.0,0.0,0.0,0.0,0.0,0.0,0.0,0.0,0.0,0.0,-2.4826,-2.5887,-2.6986,-2.8767,-3.0539,-3.1915,-3.1764,-3.1616,-3.2063,-3.1764,-3.1482,-3.1482,-3.1482,-3.1482,-3.1482,-3.1482,-3.1482,-3.1482,-3.1482,-3.1482,-3.1482,-3.1482,-3.1482,-3.1482,-3.1482,-3.1087,-3.0269,-2.995,-2.9002,-2.767,-2.7351,-2.6905,-2.6483,-2.5837,-2.5598,-2.5523,0.0,0.0,0.0,0.0,-2.3427,-2.3078,-2.3078,-2.3078,-2.3078,-2.3078,-2.3078,-2.3078,-2.3078,-2.3078,-2.3078,-2.3078,-2.3078,-2.3078,-2.3078,-2.3078,-2.3078,-2.3078,-2.3078,-2.3078,-2.3078,-2.3078,-2.3078,-2.3078,-2.4042,0.0,-2.482,-2.5448,-2.6151,-2.6716,-2.6603,-2.6609,-2.6848,-2.6672,-2.6533,-2.6533,-2.5749,-2.5003,-2.43,-2.3772,0.0,0.0,0.0,-2.0413,-1.8798,-1.8787,0.0,0.0,0.0,-1.8809,-1.917,-1.9668,0.0,0.0,-2.0449,-2.0566,0.0,0.0,0.0,0.0,0.0,0.0,0.0,0.0,0.0,0.0,0.0,0.0,0.0,0.0,0.0,0.0,-2.52,-2.6248,-2.6892,-2.8146,-2.9622,-3.1203,-3.1407,-3.1392,-3.1467,-3.1407,-3.1392,-3.1467,-3.1482,-3.1482,-3.1482,0.0,0.0,0.0,0.0,-3.1482,-3.1482,-3.1482,-3.1482,-3.1482,-3.1409,-3.097,-3.0133,-2.9254,-2.8363,-2.755,-2.6782,-2.6533,-2.6483,-2.5774,-2.5435,-2.5234,-2.4418,-2.4017,-2.3841,-2.3389,-2.3188,-2.3078,-2.3078,0.0,0.0,-2.3078,-2.3078,-2.3078,-2.3078,-2.3078,-2.3078,-2.3078,-2.3078,-2.3078,-2.3078,-2.3078,-2.3078,-2.3017,-2.2944,-2.2944,-2.2823,-2.2811,-2.2884,-2.2944,-2.3854,-2.4678,-2.4755,-2.5737,-2.6697,-2.7118,-2.6766,-2.6628,-2.6976,-2.6552,-2.6214,-2.6146,-2.5157,0.0,-2.3352,-2.2858,-2.1975,-2.056,-2.0079,-1.9332,-1.8027,-1.8008,-1.8184,-1.8555,-1.8613,-1.9004,-1.9766,-1.9863,-2.0117,-2.0498,-2.0547,-2.0566,0.0,0.0,0.0,0.0,0.0,0.0,0.0,0.0,0.0,0.0,0.0,0.0,0.0,0.0,0.0,-2.4569,-2.5227,-2.614,-2.7354,-2.7413,-2.814,-3.0257,-3.0615,-3.0926,-3.1422,-3.1031,-3.0941,-3.1437,-3.1482,-3.1482,-3.1482,-3.1482,-3.1482,-3.1482,-3.1482,-3.1482,-3.1482,-3.1482,-3.1482,-3.1482,-3.0837,0.0,-2.9192,-2.8363,-2.7484,-2.6714,-2.6589,-2.6533,-2.6445,-2.5385,-2.4431,-2.3678,-2.4393,-2.4104,-2.3339,-2.3703,-2.354,-2.3078,-2.3078,-2.3078,-2.3078,-2.3078,-2.3078,-2.3078,-2.3078,-2.3078,0.0,-2.3078,-2.3078,-2.3078,-2.3078,-2.3078,-2.2944,-2.2322,-2.2137,-2.1939,-2.1227,-2.1101,-2.129,-2.2002,-2.2991,-2.3989,-2.4678,-2.5737,-2.6559,-2.6672,-2.6596,-2.627,-2.5515,-2.5033,-2.4408,-2.3652,-2.3041,-2.2444,-2.1843,-2.1706,-2.1051,-1.9649,-1.8802,-1.8291,-1.8008,-1.8008,-1.8047,-1.8125,-1.8467,-1.865,-1.8887,-1.958,-1.9961,-2.0049,-2.04,-2.0566,0.0,0.0,0.0,0.0,0.0,0.0,0.0,0.0,0.0,0.0,0.0,-2.2714,0.0,0.0,-2.3841,-2.4682,-2.4808,-2.5113,-2.6115,-2.6621,-2.7593,-2.9571,-2.9857,-3.0216,-3.0929,-3.1016,-3.1165,-3.1452,-3.1482,-3.1482,-3.1482,-3.1482,-3.1482,-3.1482,-3.1482,-3.1482,-3.1482,-3.1353,-3.1159,-3.0896,-3.0325,-2.9483,-2.8298,-2.792,-2.7297,-2.6533,-2.6533,-2.6533,-2.6445,-2.5272,-2.4494,-2.4004,-2.4293,-2.3891,-2.3115,-2.3464,-2.3389,-2.3027,-2.2824,-2.2912,-2.3088,-2.2811,-2.2852,-2.3078,-2.3078,-2.3078,-2.3078,-2.3078,-2.3078,-2.3078,-2.3078,-2.2823,-2.2384,-2.2013,-2.1553,-2.1101,-2.0719,-2.059,-2.0719,-2.1164,-2.2047,-2.2875,-2.329,-2.4157,-2.4917,-2.5615,-2.5288,-2.4838,-2.4337,-2.3885,-2.3421,-2.2939,-2.2274,-2.152,-2.0806,-2.0108,-1.9416,-1.8664,-1.8269,-1.8008,-1.8008,-1.8008,-1.8105,-1.832,-1.8525,-1.874,-1.8965,-1.9394,-1.9707,-1.9922,-2.0137,-2.0361,0.0,0.0,0.0,0.0,0.0,0.0,0.0,0.0,-2.0655,-2.169,-2.1877,-2.227,-2.3617,-2.354,-2.3602,-2.4519,-2.4381,-2.4318,-2.4757,-2.5807,-2.701,-2.8468,-2.91,-2.9697,-3.063,-3.1091,-3.139,-3.1467,-3.1482,-3.1482,-3.1482,-3.1482,-3.1482,-3.1482,-3.1482,-3.1409,-3.1278,-3.1032,-3.0635,-3.0025,-2.9614,-2.8822,-2.767,-2.7537,-2.7095,-2.6533,-2.6533,-2.6402,-2.6239,-2.546,-2.4958,-2.4619,-2.4293,-2.374,-2.309,-2.3203,-2.3226,-2.3015,-2.2623,-2.2686,-2.284,-2.246,-2.2611,-2.2915,-2.2915,-2.299,-2.3078,-2.3078,-2.3005,-2.2884,-2.2884,-2.2384,-2.1815,-2.1491,-2.0974,-2.0526,-2.0139,-2.0074,-2.0139,-2.0333,-2.103,-2.1718,-2.1956,-2.2321,-2.3108,-2.4482,-2.3956,-2.3307,-2.3161,-2.2739,-2.2417,-2.2105,-2.1235,-2.0452,-1.9719,-1.8662,-1.8008,-1.8008,-1.8008,-1.8008,-1.8008,-1.8008,-1.8164,-1.8506,-1.8446,-1.8691,-1.9043,-1.9121,-1.9336,-1.9668,-1.9756,-2.0068,-1.489,-1.5671,-1.636,-1.6825,-1.7258,-1.7935,0.0,0.0,-1.9879,-2.1553,-2.1877,-2.2149,-2.3032,-2.3602,-2.3941,-2.4067,-2.4456,-2.4745,-2.4808,-2.4935,-2.532,-2.6184,-2.8047,-2.9857,-3.1245,-3.0941,-3.0866,-3.1437,-3.1482,-3.1482,-3.1482,-3.1482,-3.1482,-3.1482,-3.1482,-3.1161,-3.045,-3.0401,-2.996,-2.9129,-2.83,-2.7855,-2.767,-2.6973,-2.6589,-2.6533,-2.6533,-2.6163,-2.5724,-2.6113,-2.541,-2.413,-2.4556,-2.4079,-2.3128,-2.3715,-2.3577,-2.3065,-2.3002,-2.2761,-2.2397,-2.2334,-2.2347,-2.2397,-2.2397,-2.2749,-2.3078,-2.3078,-2.258,-2.2002,-2.2002,-2.1939,-2.1491,-1.9944,-2.0139,-2.0204,-1.8664,-1.8269,-1.8529,-1.9299,-1.991,-2.0662,-2.1831,-2.1756,-2.2026,-2.3447,-2.33,-2.2661,-2.1722,-2.1256,-2.0529,-1.9233,-1.8626,-1.8339,-1.8213,-1.8105,-1.8008,-1.8008,-1.8008,-1.8008,-1.8008,-1.8008,-1.8037,-1.8076,-1.8076,-1.8105,-1.8154,-1.8525,-1.873,-1.8789,-1.918,-1.9795,-1.4251,-1.5151,0.0,0.0,-1.7072,-1.7917,-1.8422,-1.8519,-1.8911,-2.0139,-2.0398,-2.0873,-2.2597,-2.2847,-2.3033,0.0,-2.3904,-2.3779,-2.3779,-2.413,-2.462,-2.5406,-2.6904,-2.8507,-3.0061,-3.073,-3.1225,-3.1452,-3.1482,-3.1482,-3.1482,-3.1482,-3.1278,-3.0837,-3.0777,-3.0389,-2.9566,-2.9334,-2.8947,-2.8247,-2.7689,-2.7293,-2.6973,-2.6658,-2.6533,-2.6533,-2.6533,-2.6395,-2.6063,-2.5674,-2.5109,-2.4431,-2.4004,-2.3552,-2.3103,-2.3401,-2.3339,-2.3088,-2.2761,-2.2711,-2.2736,-2.2422,-2.2523,-2.2786,-2.2786,-2.289,-2.3078,-2.3078,-2.2506,-2.1877,-2.1877,-2.1175,-2.0204,-1.9497,-1.9177,-1.8921,-1.8134,-1.8008,-1.8144,-1.8462,-1.8881,-1.9454,-2.0317,-2.0053,-2.0175,-2.1238,-2.1489,-2.1298,-2.0595,-2.0192,-1.9514,-1.834,-1.8115,-1.8008,-1.8008,-1.8008,-1.8008,-1.8008,-1.8008,-1.8008,-1.8008,-1.8008,-1.8008,-1.8008,-1.8008,-1.8008,-1.8008,-1.8184,-1.8398,-1.8572,-1.8828,-1.9238,-1.3389,0.0,0.0,-1.5473,-1.6612,-1.7579,-1.7579,-1.7794,-1.8269,-1.911,-1.9299,-1.9856,-2.1777,-2.2001,-2.2195,-2.3244,-2.3094,-2.2902,-2.3053,-2.3502,-2.4101,-2.4971,-2.6133,-2.749,-2.9072,-3.0381,-3.1278,-3.1467,-3.1482,-3.1482,-3.1482,-3.1482,-3.1146,-3.0329,-3.0329,-2.9766,-2.862,-2.8385,-2.7998,-2.7351,-2.7023,-2.6603,-2.6214,-2.6076,-2.6088,-2.6214,-2.6076,-2.6013,-2.595,-2.5146,-2.4732,-2.4519,-2.369,-2.3276,-2.3078,-2.3078,-2.3078,-2.3015,-2.2673,-2.248,-2.2328,-2.2021,-2.1977,-2.2018,-2.2104,-2.225,-2.2433,-2.2433,-2.1803,-2.1175,-2.1175,-2.0268,-1.9233,-1.8977,-1.8654,-1.8269,-1.8076,-1.8008,-1.8008,-1.8008,-1.8252,-1.8603,-1.9033,-1.8848,-1.8887,-1.9629,-2.001,-2.0059,-1.9619,-1.9199,-1.8691,-1.8076,-1.8008,-1.8008,-1.8008,-1.8008,-1.8008,-1.8008,-1.8008,-1.8008,-1.8008,-1.8008,-1.8008,-1.8008,-1.8008,-1.8008,-1.8008,-1.8008,-1.8164,-1.8467,-1.8467,-1.8633,0.0,0.0,-1.4156,-1.4164,-1.5375,-1.6636,-1.6636,-1.7354,-1.8269,-1.911,-1.9299,-1.9562,-2.0484,-2.1313,-2.1889,-2.1963,-2.2151,-2.2523,-2.3002,-2.309,-2.3565,-2.4669,-2.6026,-2.7461,0.0,-2.9813,-3.0644,-3.1409,-3.1482,-3.1482,-3.1482,-3.1482,-3.1146,-3.0329,-3.0329,-2.9504,-2.7736,-2.7749,-2.7297,-2.6521,-2.5912,-2.5636,-2.5598,-2.5096,-2.5146,-2.5598,-2.5096,-2.487,-2.487,-2.4833,-2.4506,-2.4017,-2.3991,-2.3627,-2.3078,-2.3078,-2.3078,-2.3078,-2.3053,-2.1928,-2.0555,-2.0914,-2.019,-1.9295,-1.9705,-2.0198,-2.0655,-2.0655,-2.0074,-1.9365,-1.9365,-1.9365,-1.911,-1.8269,-1.8654,-1.9044,-1.8202,-1.8008,-1.8008,-1.8008,-1.8018,-1.8164,-1.8584,-1.8643,-1.8789,-1.9238,-1.9316,-1.917,-1.873,-1.8311,-1.8037,-1.8008,-1.8008,-1.8008,-1.8008,-1.8008,-1.8008,-1.8008,-1.8008,-1.8008,-1.8008,-1.8008,-1.8008,-1.8008,-1.8008,-1.8008,-1.8008,-1.8008,-1.8018,-1.8027,-1.8027,-1.8037,0.0,0.0,-1.2959,-1.2959,-1.441,-1.5912,-1.6242,-1.6949,-1.7733,-1.8345,-1.8462,-1.8721,-1.9562,-2.0462,-2.1239,-2.1815,-2.242,-2.2799,-2.2611,-2.2912,-2.3138,-2.315,-2.4545,0.0,0.0,0.0,0.0,-3.1409,-3.1482,-3.1278,-3.0718,-3.0703,-3.0141,-2.8792,-2.8669,-2.8109,-2.7078,-2.6969,-2.6591,-2.5887,-2.5335,-2.5084,-2.5071,-2.4895,-2.4921,-2.5071,-2.4895,-2.482,-2.4795,-2.4431,-2.4167,-2.3966,-2.3577,-2.3314,-2.3078,-2.3078,-2.3078,-2.3078,-2.3078,-2.2708,-2.2112,-2.174,-2.1301,-2.0877,-2.0414,-2.0456,-2.059,-2.059,-1.9944,-1.9299,-1.9299,-1.8854,-1.8327,-1.8076,-1.8202,-1.8327,-1.8076,-1.8008,-1.8008,-1.8008,-1.8008,-1.8144,-1.8564,-1.8408,-1.8271,-1.8418,-1.8682,-1.8799,-1.8652,-1.8271,-1.8008,-1.8008,-1.8008,-1.8008,-1.8008,-1.8008,-1.8008,-1.8008,-1.8008,-1.8008,-1.8008,-1.8008,-1.8008,-1.8008,-1.8008,-1.8008,-1.8008,-1.8008,-1.8008,-1.8008,-1.8008,-1.7647,0.0,-1.1219,-1.1891,-1.1891,-1.3233,-1.4635,-1.5002,-1.578,-1.6617,-1.7148,-1.7273,-1.7494,-1.8198,-1.9201,-2.0195,-2.1024,-2.1837,-2.2404,-2.2564,-2.2736,-2.2862,-2.2912,-2.3866,-2.4976,0.0,0.0,0.0,-3.0999,-3.1351,-3.1174,-3.0426,-3.0102,-2.9383,-2.8162,-2.7476,-2.6931,-2.6396,-2.6238,-2.5875,-2.531,-2.4782,-2.4519,-2.4519,-2.4305,-2.433,-2.4519,-2.4305,-2.4217,-2.4192,-2.3841,-2.369,-2.3653,-2.3215,-2.3078,-2.3078,-2.3078,-2.3078,-2.3078,-2.3078,-2.282,-2.231,-2.162,-2.1112,-2.0608,-1.989,-1.9683,-1.9683,-1.9683,-1.9299,-1.8854,-1.8854,-1.8395,-1.8008,-1.8008,-1.8008,-1.8008,-1.8008,-1.8008,-1.8008,-1.8008,-1.8135,-1.832,-1.8594,-1.8418,-1.8184,-1.8037,-1.8242,-1.8418,-1.8418,-1.8174,-1.8008,-1.8008,-1.8008,-1.8008,-1.8008,-1.8008,-1.8008,-1.8008,-1.8008,-1.8008,-1.8008,-1.8008,-1.8008,-1.8008,-1.8008,-1.8008,-1.8008,-1.8008,-1.8008,-1.8008,-1.7647,-1.7207,-1.0561,-1.0697,-1.0837,-1.0903,-1.1836,-1.2878,-1.3209,-1.3953,-1.49,-1.5659,-1.5869,-1.6035,0.0,0.0,-1.8913,-1.9812,-2.0549,-2.1512,-2.2855,-2.2623,-2.2686,0.0,0.0,0.0,0.0,0.0,0.0,-3.0168,0.0,-3.1183,-3.0541,-2.9783,-2.9059,-2.8283,-2.6909,-2.6043,-2.5867,-2.5613,-2.5272,-2.477,-2.4217,-2.3954,-2.3941,-2.3389,-2.3439,-2.3916,-2.3376,-2.3078,-2.3078,-2.3078,-2.3078,-2.3078,-2.3078,-2.3078,-2.3078,-2.3078,-2.3078,-2.3078,-2.3078,-2.2297,-2.1211,-2.0751,-1.9757,-1.8593,-1.814,-1.8008,-1.8008,-1.8008,-1.8008,-1.8008,-1.8008,-1.8008,-1.8008,-1.8008,-1.8008,-1.8018,-1.8037,-1.8047,-1.8047,-1.8076,-1.8398,-1.8672,-1.8672,-1.8652,-1.8496,-1.8105,-1.8018,-1.8008,-1.8008,-1.8008,-1.8008,-1.8008,-1.8008,-1.8008,-1.8008,-1.8008,-1.8008,-1.8008,-1.8008,-1.8008,-1.8008,-1.8008,-1.8008,-1.8008,-1.8008,-1.8008,-1.8008,-1.794,-1.794,-1.794,-1.7001,-1.6498,-0.9658,-0.918,-0.8896,-0.9562,-1.0431,-1.1382,-1.2379,-1.3306,-1.4013,-1.4618,-1.5204,-1.5733,0.0,0.0,0.0,-2.0217,-2.1105,0.0,-2.1881,-2.2133,0.0,0.0,0.0,-2.3755,-2.4866,-2.6489,0.0,0.0,-3.0748,-3.1145,-3.0396,-2.9695,-2.8783,-2.7516,-2.7001,-2.6304,-2.5301,-2.4682,-2.4343,-2.4205,-2.3627,-2.3351,-2.3351,-2.314,-2.3153,-2.3351,-2.3201,-2.3078,-2.3078,-2.3078,-2.3078,-2.3078,-2.3078,-2.3078,-2.3078,-2.3078,-2.3078,-2.3078,-2.3078,-2.2917,-2.2384,-2.1055,-2.0373,-1.9846,-1.8422,-1.8008,-1.8008,-1.8008,-1.8008,-1.8008,-1.8008,-1.8008,-1.8008,-1.8008,-1.8008,-1.8096,-1.8408,-1.8477,-1.8574,-1.8896,-1.9043,-1.9121,-1.9121,-1.8848,-1.8603,-1.8496,-1.8213,-1.8008,-1.8008,-1.8008,-1.8008,-1.8008,-1.8008,-1.8008,-1.8008,-1.8008,-1.8008,-1.8008,-1.8008,-1.8008,-1.8008,-1.8008,-1.8008,-1.8008,-1.8008,-1.8008,-1.8008,-1.7285,-1.6922,-1.6922,-1.6009,-1.5163,-0.9849,-0.9524,-0.9262,-0.9722,-1.0218,-1.0792,-1.1625,-1.2143,-1.268,-1.3423,-1.4279,0.0,0.0,0.0,0.0,0.0,0.0,0.0,-2.1786,-2.2121,-2.2083,0.0,-2.2471,0.0,-2.4563,-2.629,-2.7768,0.0,-2.9982,-3.0488,-3.0001,-2.903,-2.8153,-2.7396,-2.6665,-2.59,-2.509,-2.4096,-2.3753,-2.3991,-2.3414,-2.3078,-2.3078,-2.3078,-2.3078,-2.3078,-2.3078,-2.3078,-2.3078,-2.3078,-2.3078,-2.3078,-2.3078,-2.3078,-2.3078,-2.3078,-2.3078,-2.3078,-2.2702,-2.2567,-2.2384,-2.1037,-2.0333,-1.9759,-1.8395,-1.8008,-1.8008,-1.8008,-1.8008,-1.8008,-1.8008,-1.8008,-1.8008,-1.8008,-1.8008,-1.8125,-1.8545,-1.8562,-1.8818,-1.9443,-1.9561,-1.9561,-1.9561,-1.9355,-1.9072,-1.8691,-1.8437,-1.8223,-1.8037,-1.8008,-1.8008,-1.8008,-1.8008,-1.8008,-1.8008,-1.8008,-1.8008,-1.8008,-1.8008,-1.8008,-1.8008,-1.8008,-1.8008,-1.8008,-1.7579,-1.7354,-1.7354,-1.6428,-1.6009,-1.593,-1.5021,-1.4243,-1.0428,-1.0364,-1.0301,-1.0428,-1.0428,-1.05,-1.0875,-1.0962,-1.1327,-1.2454,0.0,0.0,-1.5192,0.0,-1.7849,-1.9503,0.0,-2.0887,-2.2027,-2.2272,-2.2284,-2.2209,-2.2907,-2.3847,-2.4925,-2.6413,-2.7645,-2.828,-2.8946,-2.9385,-2.9564,-2.8458,-2.7744,-2.759,-2.604,-2.5208,-2.515,-2.3773,-2.3389,-2.3879,-2.3376,-2.3078,-2.3078,-2.3078,-2.3078,-2.3078,-2.3078,-2.3078,-2.3078,-2.3078,-2.3078,-2.3078,-2.3078,-2.3078,-2.3078,-2.3078,-2.3005,-2.2823,-2.2125,-2.1753,-2.1428,-2.0655,-1.9944,-1.911,-1.8269,-1.8008,-1.8008,-1.8008,-1.8008,-1.8008,-1.8008,-1.8047,-1.8076,-1.8018,-1.8047,-1.8213,-1.8633,-1.8809,-1.9111,-1.9853,-2.0,-2.0,-2.0,-1.9951,-1.9639,-1.8838,-1.8672,-1.8486,-1.8057,-1.8008,-1.8008,-1.8008,-1.8008,-1.8008,-1.8008,-1.8008,-1.8008,-1.8008,-1.8008,-1.8008,-1.8008,-1.7862,-1.7794,-1.7794,-1.6922,-1.6419,-1.6419,-1.5438,-1.5046,-1.5023,-1.4023,-1.3616,-0.953,-0.9005,-0.8613,-0.9332,-0.953,-0.9734,-1.0494,-1.0822,0.0,0.0,0.0,-1.441,-1.5321,-1.6185,0.0,-1.9006,0.0,0.0,0.0,0.0,-2.2146,0.0,0.0,0.0,0.0,0.0,0.0,0.0,-2.8181,-2.8412,-2.952,-2.9352,-2.8725,-2.7604,-2.5605,-2.4778,-2.5326,-2.3865,-2.3128,-2.3215,-2.3128,-2.3078,-2.3078,-2.3078,-2.3078,-2.3078,-2.3078,-2.3078,-2.3078,-2.3078,-2.3078,-2.3078,-2.3078,-2.3078,-2.3078,-2.3078,-2.2702,-2.2075,-2.1939,-2.0974,-1.9759,-1.9562,-1.9431,-1.911,-1.8269,-1.8008,-1.8008,-1.8008,-1.8008,-1.8008,-1.8008,-1.8271,-1.8437,-1.8086,-1.8271,-1.8643,-1.9082,-1.9727,-2.0273,-2.042,-2.0449,-2.0449,-2.0449,-2.0156,-1.9746,-1.9248,-1.8867,-1.8486,-1.8057,-1.8008,-1.8008,-1.8008,-1.8008,-1.8008,-1.8008,-1.8008,-1.8008,-1.8008,-1.8008,-1.8008,-1.8008,-1.7285,-1.6853,-1.6853,-1.5939,-1.5446,-1.5446,-1.445,-1.4099,-1.4372,-1.3407,-1.3105,-1.0142,-0.9756,-0.9622,-0.9887,-1.0281,-1.0591,-1.0618,0.0,0.0,0.0,0.0,-1.4182,-1.5212,0.0,0.0,0.0,0.0,0.0,0.0,0.0,0.0,0.0,0.0,0.0,0.0,0.0,0.0,-2.8038,-2.8083,-2.8382,-2.9041,-2.8727,-2.8284,-2.764,-2.5823,-2.5063,-2.5398,-2.3872,-2.3078,-2.3078,-2.3078,-2.3078,-2.3078,-2.3078,-2.3078,-2.3078,-2.3078,-2.3078,-2.3078,-2.3078,-2.3078,-2.3078,-2.3078,-2.3078,-2.3078,-2.3078,-2.2567,-2.1815,-2.1365,-2.0398,-1.9243,-1.8787,-1.8586,-1.8529,-1.8144,-1.8008,-1.8057,-1.8271,-1.8184,-1.8057,-1.8281,-1.832,-1.832,-1.833,-1.8828,-1.9355,-1.957,-2.0117,-2.0566,-2.0566,-2.0566,-2.0566,-2.0566,-2.0205,-1.9775,-1.9346,-1.8916,-1.8486,-1.8057,-1.8008,-1.8008,-1.8008,-1.8008,-1.8008,-1.8008,-1.8008,-1.8008,-1.8008,-1.8008,-1.7794,-1.7285,-1.6853,-1.6349,-1.586,-1.495,-1.445,-1.4386,-1.3623,-1.3276,-1.3424,-1.3144,-1.3066,-1.146,-1.1382,-1.1509,-1.127,-1.1519,-1.171,-1.1233,-1.1527,0.0,0.0,0.0,-1.4285,-1.546,0.0,0.0,0.0,0.0,0.0,0.0,0.0,0.0,0.0,0.0,0.0,0.0,0.0,0.0,-2.7625,-2.8068,-2.8442,-2.8592,-2.7949,-2.7625,-2.7625,-2.6162,-2.5398,-2.5398,-2.3872,-2.3078,-2.3078,-2.3078,-2.3078,-2.3078,-2.3078,-2.3078,-2.3078,-2.3078,-2.3078,-2.3078,-2.3078,-2.3078,-2.3078,-2.3078,-2.3078,-2.3078,-2.3078,-2.2445,-2.1491,-2.0846,-1.9879,-1.8911,-1.8202,-1.8008,-1.8008,-1.8008,-1.8076,-1.8213,-1.8545,-1.8467,-1.8359,-1.8691,-1.8594,-1.8496,-1.8828,-1.9424,-1.9912,-1.9912,-2.0254,-2.0566,-2.0566,-2.0566,-2.0537,-2.0439,-2.0137,-1.9746,-1.9228,-1.8857,-1.8486,-1.8057,-1.8008,-1.8008,-1.8008,-1.8008,-1.8008,-1.8008,-1.8008,-1.794,-1.7716,-1.7716,-1.7285,-1.6349,-1.607,-1.5649,-1.4879,-1.3882,-1.3419,-1.3492,-1.3003,-1.2889,-1.2946,-1.3193,-1.334,-1.3369,-1.3322,-1.3339,-1.3306,-1.2555,-1.1958,-1.2634,0.0,0.0,0.0,-1.4889,-1.5541,-1.6819,-1.7217,0.0,0.0,0.0,0.0,0.0,0.0,0.0,0.0,0.0,0.0,0.0,0.0,0.0,-2.7625,-2.7685,-2.7934,-2.8562,-2.7949,-2.7625,-2.7625,-2.6162,-2.5398,-2.5398,-2.3872,-2.3078,-2.3078,-2.3078,-2.3078,-2.3078,-2.3078,-2.3078,-2.3078,-2.3078,-2.3078,-2.3078,-2.3078,-2.3078,-2.3078,-2.3078,-2.3078,-2.3078,-2.3078,-2.2113,-2.0719,-2.0655,-1.9497,-1.8144,-1.8008,-1.8008,-1.8008,-1.8008,-1.8281,-1.8584,-1.8623,-1.8896,-1.918,-1.9219,-1.9482,-1.9746,-1.9785,-1.9853,-1.9912,-1.9912,-2.0254,-2.0566,-2.0566,-2.0566,-2.0439,-2.0049,-1.9941,-1.9639,-1.8818,-1.8662,-1.8486,-1.8057,-1.8008,-1.8008,-1.8008,-1.8008,-1.8008,-1.8008,-1.8008,-1.7647,-1.6775,-1.6706,-1.6289,-1.5376,-1.445,-1.3954,-1.381,-1.2879,-1.2581,-1.2851,-1.2808,-1.3026,-1.3561,-1.3587,-1.3748,-1.3517,-1.3537,-1.376,-1.3331,-1.323,-1.3174,-1.307,0.0,0.0,-1.4317,-1.4565,-1.5055,-1.6506,-1.7449,-1.8337,0.0,0.0,0.0,0.0,0.0,0.0,0.0,0.0,0.0,0.0,0.0,0.0,-2.6976,-2.735,-2.7745,-2.7964,-2.7775,-2.7445,-2.6991,-2.6399,-2.5655,-2.4832,-2.4152,-2.3603,-2.3078,-2.3078,-2.3078,-2.3078,-2.3078,-2.3078,-2.3078,-2.3078,-2.3078,-2.3078,-2.3078,-2.3078,-2.3078,-2.3078,-2.3078,-2.3078,-2.3078,-2.2051,-2.059,-2.059,-1.9431,-1.8008,-1.8008,-1.8008,-1.8057,-1.8311,-1.8506,-1.8679,-1.9258,-1.9346,-1.9346,-1.96,-1.9785,-1.9912,-1.9912,-2.0117,-2.0303,-2.0303,-2.0439,-2.0566,-2.0566,-2.0566,-2.043,-1.999,-1.9707,-1.9336,-1.866,-1.8418,-1.8193,-1.8037,-1.8008,-1.8008,-1.8008,-1.8008,-1.8008,-1.8008,-1.7501,-1.7001,-1.6636,-1.6079,-1.5296,-1.4314,-1.3882,-1.3455,-1.2879,-1.2696,-1.2701,-1.2822,-1.3106,-1.3407,-1.3566,-1.3828,-1.3975,-1.4374,-1.4467,-1.4745,-1.4214,-1.4232,-1.4297,0.0,0.0,0.0,-1.5025,-1.5248,-1.5811,-1.7388,-1.843,-1.94,0.0,0.0,0.0,0.0,0.0,0.0,0.0,0.0,0.0,0.0,0.0,-2.6886,-2.6886,-2.7305,-2.7625,-2.7625,-2.7625,-2.7365,-2.6901,-2.6645,-2.6016,-2.5003,-2.4509,-2.4002,-2.3424,-2.3185,-2.3078,-2.3078,-2.3078,-2.3078,-2.3078,-2.3078,-2.3078,-2.3078,-2.3078,-2.3078,-2.3078,-2.3078,-2.3078,-2.3078,-2.3078,-2.2051,-2.059,-2.059,-1.9431,-1.8008,-1.8008,-1.8008,-1.8086,-1.8516,-1.873,-1.8984,-1.9707,-1.9795,-1.9736,-2.0029,-2.0107,-2.0107,-2.0107,-2.0342,-2.0566,-2.0566,-2.0566,-2.0566,-2.0566,-2.0566,-2.043,-1.999,-1.9668,-1.9326,-1.8896,-1.8467,-1.8193,-1.8193,-1.8086,-1.8008,-1.8008,-1.8008,-1.7872,-1.7579,-1.7001,-1.6349,-1.579,-1.5084,-1.4307,-1.331,-1.3317,-1.2994,-1.2432,-1.2714,-1.2909,-1.3013,-1.3434,-1.3687,-1.3781,-1.3988,-1.4088,-1.6539,-1.6665,-1.6665,-1.6655,-1.5745,-1.5007,0.0,0.0,0.0,-1.7023,-1.7708,-1.8451,-2.0053,-2.0354,-2.1027,-2.3041,0.0,0.0,0.0,0.0,0.0,0.0,0.0,0.0,0.0,0.0,-2.761,-2.761,-2.7625,0.0,-2.7625,-2.7625,-2.7625,-2.761,-2.6878,-2.651,-2.6496,-2.5007,-2.4292,-2.4292,-2.3484,-2.3078,-2.3078,-2.3078,-2.3078,-2.3078,-2.3078,-2.3078,-2.3078,-2.3078,-2.3078,-2.3078,-2.3078,-2.3078,-2.3078,-2.3078,-2.2051,-2.059,-2.059,-1.9431,-1.8008,-1.8008,-1.8008,-1.8086,-1.8516,-1.8936,-1.9365,-1.9795,-2.0225,-2.0557,-2.0557,-2.0557,-2.0557,-2.0557,-2.0634,-2.0566,-2.0566,-2.0566,-2.0566,-2.0566,-2.0566,-2.043,-1.999,-1.9912,-1.9766,-1.9346,-1.8906,-1.8562,-1.8562,-1.8271,-1.8008,-1.8008,-1.8008,-1.7647,-1.6706,-1.6636,-1.579,-1.3818,-1.3745,-1.331,-1.2378,-1.2298,-1.2438,-1.2808,-1.2822,-1.3039,-1.3552,-1.3641,-1.3794,-1.4082,-1.4088,-1.4088,-1.6632,-1.6816,-1.686,-1.6018,-1.5881,-1.6024,-1.6124,0.0,0.0,-1.8038,-1.8552,-1.9182,-2.0192,-2.0423,-2.0917,-2.2434,0.0,0.0,0.0,0.0,0.0,0.0,0.0,0.0,0.0,0.0,-2.738,-2.6931,-2.737,-2.7625,-2.7625,-2.7625,-2.7415,-2.6916,-2.7119,-2.6762,-2.5833,-2.53,-2.4579,-2.3672,-2.3293,-2.2937,-2.2573,-2.2573,-2.2774,-2.3053,-2.2736,-2.2786,-2.3078,-2.3078,-2.3078,-2.3078,-2.3078,-2.2763,-2.2261,-2.2261,-2.1164,-1.9694,-1.9694,-1.8977,-1.8008,-1.8008,-1.8008,-1.8086,-1.8516,-1.873,-1.8936,-1.9365,-1.959,-1.9697,-1.9697,-1.9697,-1.9697,-1.9697,-1.9912,-2.0117,-2.0117,-2.0352,-2.0566,-2.0566,-2.0566,-2.043,-1.999,-1.9912,-1.9668,-1.8955,-1.873,-1.8535,-1.8242,-1.8086,-1.7725,-1.7139,-1.707,-1.6922,-1.6636,-1.6,-1.5084,-1.3818,-1.3297,-1.2975,-1.2681,-1.2812,-1.2966,-1.306,-1.326,-1.3454,-1.3559,-1.3848,-1.3995,-1.4088,-1.4088,-1.4088,0.0,-1.7546,-1.7451,-1.669,-1.6848,0.0,0.0,0.0,0.0,0.0,0.0,-2.0532,-2.1269,-2.1666,-2.2217,-2.3336,0.0,0.0,0.0,0.0,0.0,0.0,0.0,0.0,0.0,-2.732,-2.7445,-2.6991,-2.7335,-2.7625,-2.7625,-2.7625,-2.738,-2.6976,-2.7365,-2.7199,-2.6316,-2.5694,-2.486,-2.3823,-2.3308,-2.2849,-2.2322,-2.2523,-2.2698,-2.2811,-2.2686,-2.2698,0.0,-2.299,-2.3078,-2.3078,-2.3078,-2.2628,-2.1877,-2.1877,-2.0782,-1.9299,-1.9299,-1.8721,-1.8008,-1.8008,-1.8008,-1.8057,-1.832,-1.8623,-1.8936,-1.9209,-1.9287,-1.9287,-1.9287,-1.9287,-1.9326,-1.9482,-1.9727,-1.9961,-2.0127,-2.0371,-2.0566,-2.0566,-2.0566,-2.0478,-2.0205,-2.0156,-1.9922,-1.9228,-1.9121,-1.8821,-1.7963,-1.7773,-1.7311,-1.636,-1.6158,-1.5991,-1.5711,-1.5153,-1.4417,-1.3604,-1.3196,-1.2919,-1.2919,-1.3106,-1.326,-1.3373,-1.3547,-1.3701,-1.3808,-1.4001,-1.4088,-1.4088,-1.4088,-1.4088,0.0,0.0,0.0,0.0,0.0,0.0,0.0,0.0,0.0,0.0,0.0,0.0,0.0,0.0,0.0,-2.5287,0.0,0.0,0.0,0.0,0.0,0.0,0.0,0.0,-2.76,-2.7595,-2.7625,-2.7625,-2.7625,-2.7625,-2.7625,-2.7625,-2.7625,-2.7625,-2.7625,-2.7575,-2.7509,-2.6108,-2.508,-2.4405,-2.3528,-2.2849,-2.2334,-2.2811,-2.2761,-2.2334,-2.2811,-2.2749,-2.2347,-2.2912,-2.3078,-2.3065,-2.3017,-2.2506,-2.1815,-2.1753,-2.0655,-1.9233,-1.9233,-1.8654,-1.8008,-1.8008,-1.8008,-1.8008,-1.8008,-1.8564,-1.9199,-1.9199,-1.9219,-1.9238,-1.9238,-1.9268,-1.9385,-1.9775,-1.9893,-2.0029,-2.043,-2.0547,-2.0566,-2.0566,-2.0566,-2.0566,-2.0566,-2.0566,-2.0333,-1.998,-1.9761,-1.9221,-1.783,-1.736,-1.6666,-1.5626,-1.5258,-1.4848,-1.4178,-1.4178,-1.3932,-1.3265,-1.3227,-1.324,-1.324,-1.326,-1.34,-1.3667,-1.3674,-1.3808,-1.4088,-1.4088,-1.4088,-1.4088,-1.4088,-1.4088,0.0,0.0,0.0,0.0,0.0,0.0,0.0,0.0,0.0,0.0,0.0,0.0,0.0,0.0,0.0,0.0,0.0,0.0,0.0,0.0,0.0,0.0,0.0,0.0,-2.7454,-2.7557,-2.7625,-2.7625,-2.7625,-2.7625,-2.7625,-2.7625,-2.7625,-2.7625,-2.7625,-2.7306,-2.6774,-2.5837,-2.4805,-2.3659,-2.3249,-2.2849,-2.2297,-2.2008,-2.2033,-2.2297,-2.1995,-2.2046,-2.2347,-2.2912,-2.3078,-2.3017,-2.2445,-2.1678,-2.0846,-2.0139,-1.9243,-1.8337,-1.8337,-1.8134,-1.8008,-1.8008,-1.8008,-1.8008,-1.8008,-1.8144,-1.8311,-1.8311,-1.8545,-1.8789,-1.8789,-1.9043,-1.9307,-1.9414,-1.9678,-1.9941,-2.0049,-2.0332,-2.0566,-2.0566,-2.0566,-2.0566,-2.0566,-1.9923,-1.9537,-1.982,-1.8497,-1.7501,-1.768,-1.6672,-1.5626,-1.4605,-1.4462,-1.4186,-1.3457,-1.3939,-1.3932,-1.3265,-1.342,-1.354,-1.354,-1.3761,-1.3915,-1.3981,-1.3981,-1.4015,-1.4088,-1.4088,-1.4088,-1.4088,-1.4088,-1.4088,0.0,0.0,0.0,0.0,0.0,0.0,0.0,0.0,0.0,0.0,0.0,0.0,0.0,0.0,0.0,0.0,0.0,0.0,0.0,0.0,0.0,0.0,0.0,0.0,0.0,-2.773,-2.7625,-2.7625,-2.7625,-2.7625,-2.7625,-2.7625,-2.7625,-2.7625,-2.7275,-2.6944,-2.651,-2.5783,-2.475,-2.3382,-2.2949,-2.2472,-2.192,-2.1631,-2.1506,-2.1556,-2.1506,-2.1656,-2.197,-2.2523,-2.2912,-2.3005,-2.2187,-2.1365,-2.0462,-1.9628,-1.8721,-1.8008,-1.8008,-1.8008,-1.8008,-1.8008,-1.8008,-1.8008,-1.8008,-1.8008,-1.8008,-1.8008,-1.8174,-1.8389,-1.8584,-1.8818,-1.9092,-1.9482,-1.9746,-1.9971,-2.0166,-2.04,-2.0566,-2.0566,-2.0167,-1.9844,-1.9844,-1.8957,-1.8259,-1.8407,-1.763,-1.6826,-1.655,-1.5867,-1.5004,-1.3887,-1.3719,-1.3564,-1.3193,-1.3646,-1.3836,-1.3594,-1.3761,-1.3848,-1.3848,-1.4001,-1.4088,-1.4088,-1.4088,-1.4088,-1.4088,-1.4088,-1.4088,-1.4088,-1.4088,-1.4088,0.0,0.0,0.0,0.0,0.0,0.0,0.0,0.0,0.0,0.0,0.0,0.0,0.0,0.0,0.0,0.0,0.0,0.0,0.0,0.0,0.0,0.0,0.0,0.0,-2.8387,-2.791,-2.7625,-2.7625,-2.7625,-2.7625,-2.7625,-2.7625,-2.7625,-2.7625,-2.6922,-2.6432,-2.6193,-2.549,-2.4462,-2.3214,-2.2496,-2.1945,-2.1493,-2.1405,-2.1154,-2.0869,-2.1204,-2.1405,-2.1531,-2.2083,-2.2585,-2.2892,-2.2039,-2.1239,-2.0462,-1.9497,-1.8654,-1.8008,-1.8008,-1.8008,-1.8008,-1.8008,-1.8008,-1.8008,-1.8008,-1.8008,-1.8008,-1.8008,-1.8057,-1.8184,-1.8545,-1.873,-1.9014,-1.9736,-1.9961,-2.0117,-2.0488,-2.0566,-2.0566,-2.0566,-1.9756,-1.9036,-1.9036,-1.79,-1.6984,-1.6826,-1.6806,-1.6424,-1.533,-1.5087,-1.4568,-1.338,-1.3273,-1.3273,-1.3273,-1.354,-1.3814,-1.4075,-1.4088,-1.4088,-1.4088,-1.4088,-1.4088,-1.4088,-1.4088,-1.4088,-1.4088,-1.4088,-1.4088,-1.4088,-1.4088,-1.4088,-2.3078,0.0,0.0,0.0,0.0,0.0,0.0,0.0,0.0,0.0,0.0,0.0,0.0,0.0,0.0,0.0,0.0,0.0,0.0,0.0,0.0,0.0,0.0,-2.7728,-2.7578,-2.7573,-2.7625,-2.7625,-2.7625,-2.7625,-2.7625,-2.7625,-2.7625,-2.7625,-2.6894,-2.5979,-2.481,-2.4166,-2.3393,-2.247,-2.1889,-2.1568,-2.1468,-2.1004,-2.1004,-2.1343,-2.0953,-2.1054,-2.1531,-2.2083,-2.2359,-2.2297,-2.1253,-2.0719,-2.0398,-1.8787,-1.8144,-1.8008,-1.8008,-1.8008,-1.8008,-1.8008,-1.8008,-1.8008,-1.8008,-1.8008,-1.8008,-1.8008,-1.8271,-1.8484,-1.8553,-1.918,-1.9746,-1.9883,-2.0195,-2.0478,-2.0547,-2.0566,-2.0566,-2.0566,-1.9756,-1.9036,-1.9036,-1.7326,-1.6257,-1.7098,-1.5681,-1.4803,-1.5554,-1.459,-1.3784,-1.3581,-1.3581,-1.3581,-1.3581,-1.3848,-1.4041,-1.4082,-1.4088,-1.4088,-1.4088,-1.4088,-1.4088,-1.4088,-1.4088,-1.4088,-1.4088,-1.4088,-1.4088,-1.4088,-1.4088,-1.4088,-2.4323,-2.4323,0.0,0.0,0.0,0.0,0.0,0.0,0.0,0.0,0.0,0.0,0.0,0.0,0.0,0.0,0.0,0.0,0.0,0.0,0.0,0.0,0.0,-2.8073,-2.805,-2.7806,-2.7475,-2.7066,-2.743,-2.746,-2.7066,-2.743,-2.7408,-2.7034,-2.6039,-2.501,-2.3919,-2.2717,-2.1996,-2.1857,-2.1305,-2.1041,-2.1029,-2.0464,-2.0338,-2.0564,-2.0313,-2.0526,-2.1066,-2.0902,-2.1003,-2.1134,-1.9997,-1.949,-1.9404,-1.8372,-1.8008,-1.8008,-1.8008,-1.8008,-1.8008,-1.8008,-1.8008,-1.8008,-1.8008,-1.8008,-1.8008,-1.8008,-1.8144,-1.8408,-1.8867,-1.9287,-1.9697,-2.0156,-2.042,-2.0566,-2.0566,-2.0566,-2.0566,-2.0566,-1.9274,-1.8069,-1.8069,-1.6281,-1.4977,-1.547,-1.4741,-1.425,-1.4734,-1.4289,-1.3821,-1.3579,-1.3788,-1.3814,-1.3661,-1.3915,-1.4088,-1.4088,-1.4088,-1.4088,-1.4088,-1.4088,-1.4088,-1.4088,-1.4088,-1.4088,-1.4088,-1.4088,-1.4088,-1.4088,-1.4088,-1.4088,-2.5398,-2.5398,0.0,0.0,0.0,0.0,0.0,0.0,0.0,0.0,0.0,0.0,0.0,0.0,0.0,0.0,0.0,0.0,0.0,0.0,0.0,-2.93,-2.8563,-2.8137,-2.8344,-2.7739,-2.72,-2.6841,-2.729,-2.74,-2.6841,-2.7305,-2.7181,-2.6332,-2.5214,-2.411,-2.3027,-2.1511,-2.0952,-2.1292,-2.0727,-2.0464,-2.0451,-1.9999,-1.9874,-1.9999,-1.9693,-1.9902,-2.0382,-1.9646,-1.9592,-1.9889,-1.887,-1.8385,-1.8284,-1.7992,-1.793,-1.8008,-1.8008,-1.8008,-1.8008,-1.8008,-1.8008,-1.8008,-1.8008,-1.8008,-1.8008,-1.8008,-1.8008,-1.8164,-1.8818,-1.9062,-1.9326,-2.0088,-2.0342,-2.0439,-2.0547,-2.0566,-2.0566,-2.0245,-1.863,-1.7253,-1.7009,-1.5394,-1.4088,-1.4088,-1.4088,-1.4088,-1.4088,-1.4088,-1.4001,-1.3774,-1.3948,-1.3995,-1.3768,-1.3955,-1.4088,-1.4088,-1.4088,-1.4088,-1.4088,-1.4088,-1.4088,-1.4088,-1.4088,-1.4088,-1.4088,-1.4088,-1.4088,-1.4088,-1.4088,-1.4088,-2.5398,-2.5398,0.0,0.0,0.0,0.0,0.0,0.0,0.0,0.0,0.0,0.0,0.0,0.0,0.0,0.0,0.0,0.0,0.0,0.0,-2.8644,-2.8644,-2.749,-2.6965,-2.7625,-2.7051,-2.6901,-2.7455,-2.7595,-2.7595,-2.755,-2.7595,-2.7009,-2.572,-2.492,-2.3656,-2.194,-2.1118,-2.0693,-2.0769,-2.0137,-1.9861,-1.9861,-1.9823,-2.01,-2.0577,-1.9315,-1.9132,-1.9634,-1.8907,-1.8589,-1.8611,-1.8212,-1.782,-1.7448,-1.7478,-1.7676,-1.8008,-1.8008,-1.8008,-1.8008,-1.8008,-1.8008,-1.8008,-1.8008,-1.8008,-1.8008,-1.8008,-1.8008,-1.8018,-1.8086,-1.8389,-1.8799,-1.9268,-1.9678,-2.0078,-2.0478,-2.0566,-2.0323,-1.9283,-1.8149,-1.7009,-1.6026,-1.4894,-1.4088,-1.4088,-1.4088,-1.4088,-1.4088,-1.4088,-1.4082,-1.4055,-1.4075,-1.4082,-1.4055,-1.4075,-1.4088,-1.4088,-1.4088,-1.4088,-1.4088,-1.4088,-1.4088,-1.4088,-1.4088,-1.4088,-1.4088,-1.4088,-1.4088,-1.4088,-1.4088,-1.4088,-2.6759,-2.6759,0.0,0.0,0.0,0.0,0.0,0.0,0.0,0.0,0.0,0.0,0.0,0.0,0.0,0.0,0.0,0.0,0.0,-2.8487,-2.8293,-2.7455,-2.6901,-2.6527,-2.6363,-2.6123,-2.5914,-2.5749,-2.6123,-2.6168,-2.5764,-2.5756,-2.535,-2.4399,-2.3341,-2.2246,-2.1118,-2.0458,-2.0125,-2.0125,-1.9911,-1.9798,-1.9798,-1.9798,-1.9924,-2.0112,-1.9129,-1.8834,-1.897,-1.7756,-1.7259,-1.722,-1.7226,-1.7407,-1.7773,-1.7773,-1.7871,-1.8008,-1.8008,-1.8008,-1.8008,-1.8008,-1.8008,-1.8008,-1.8008,-1.8008,-1.8008,-1.8008,-1.8008,-1.8135,-1.8662,-1.8926,-1.9219,-1.9912,-2.0205,-2.0361,-2.0527,-2.0566,-2.0245,-1.9204,-1.8069,-1.6927,-1.5861,-1.481,-1.4088,-1.4088,-1.4088,-1.4088,-1.4088,-1.4088,-1.4088,-1.4088,-1.4088,-1.4088,-1.4088,-1.4088,-1.4088,-1.4088,-1.4088,-1.4088,-1.4088,-1.4088,-1.4088,-1.4088,-1.4088,-1.4088,-1.4088,-1.4088,-1.4182,-1.4355,-1.4355,-1.4456,-2.7625,-2.7625,0.0,0.0,0.0,0.0,0.0,0.0,0.0,0.0,0.0,0.0,0.0,0.0,0.0,0.0,0.0,0.0,-2.7365,-2.7664,-2.7545,-2.6422,-2.6093,-2.5869,-2.563,-2.542,-2.5196,-2.491,-2.536,-2.5312,-2.4665,-2.4655,-2.4198,-2.3057,-2.2226,-2.1368,-2.0441,-1.9999,-1.9798,-1.9798,-1.9798,-1.9798,-1.9798,-1.9798,-1.9798,-1.9747,-1.8768,-1.8328,-1.8221,-1.6754,-1.6151,-1.6165,-1.6404,-1.6963,-1.7627,-1.7764,-1.79,-1.8008,-1.8008,-1.8008,-1.8008,-1.8008,-1.8008,-1.8008,-1.8008,-1.8008,-1.8008,-1.8008,-1.8105,-1.8369,-1.9102,-1.9189,-1.9297,-2.0156,-2.0361,-2.0313,-2.0138,-2.0079,-1.9678,-1.8221,-1.7334,-1.6437,-1.5379,-1.4573,-1.4122,-1.4208,-1.4142,-1.4122,-1.4215,-1.4142,-1.4088,-1.4088,-1.4088,-1.4088,-1.4088,-1.4088,-1.4088,-1.4088,-1.4088,-1.4088,-1.4088,-1.4088,-1.4088,-1.4088,-1.4088,-1.4088,-1.4088,-1.4175,-1.4322,-1.4522,-1.4616,-1.477,-2.7625,0.0,0.0,0.0,0.0,0.0,0.0,0.0,0.0,0.0,0.0,0.0,0.0,0.0,0.0,0.0,0.0,-2.732,-2.6677,-2.6587,-2.6333,-2.5674,-2.5016,-2.4836,-2.5525,-2.5001,-2.4836,-2.554,-2.5585,-2.5334,-2.4713,-2.4664,-2.3773,-2.1872,-2.1794,-2.112,-1.9811,-1.9798,-1.9798,-1.9798,-1.9798,-1.9798,-1.9798,-1.9798,-1.9798,-1.9695,-1.8221,-1.7578,-1.7468,-1.6026,-1.541,-1.5459,-1.5898,-1.6338,-1.6787,-1.7227,-1.7656,-1.8008,-1.8008,-1.8008,-1.8008,-1.8008,-1.8008,-1.8008,-1.8008,-1.8008,-1.8008,-1.8008,-1.8311,-1.874,-1.918,-1.8975,-1.8796,-1.9717,-1.9922,-1.9726,-1.9113,-1.8957,-1.8301,-1.6108,-1.5696,-1.5379,-1.425,-1.4088,-1.4188,-1.4482,-1.4275,-1.4195,-1.4482,-1.4269,-1.4088,-1.4088,-1.4088,-1.4088,-1.4088,-1.4088,-1.4088,-1.4088,-1.4088,-1.4088,-1.4088,-1.4088,-1.4088,-1.4088,-1.4088,-1.4088,-1.4088,-1.4382,-1.4529,-1.4536,-1.483,-1.497,-2.7709,0.0,0.0,0.0,0.0,0.0,0.0,0.0,0.0,0.0,0.0,0.0,0.0,0.0,0.0,-2.6183,-2.6183,-2.6288,-2.6557,-2.6198,-2.5659,-2.5001,-2.4701,-2.4462,-2.4223,-2.4014,-2.3807,-2.3579,-2.3547,-2.3302,-2.2634,-2.2179,-2.1668,-2.1109,-2.0655,-2.022,-1.9798,-1.9798,-1.9798,-1.9798,-1.9798,-1.9798,-1.9798,-1.9254,-1.9044,-1.8927,-1.7468,-1.681,-1.6754,-1.5806,-1.5596,-1.5908,-1.6357,-1.6807,-1.7236,-1.7666,-1.79,-1.8008,-1.8008,-1.8008,-1.8008,-1.8008,-1.8008,-1.8008,-1.8008,-1.8008,-1.8008,-1.8008,-1.8311,-1.874,-1.918,-1.8879,-1.8524,-1.9136,-1.9256,-1.897,-1.8043,-1.7819,-1.7415,-1.5944,-1.5696,-1.5452,-1.4521,-1.4222,-1.4255,-1.4756,-1.4409,-1.4195,-1.4482,-1.4442,-1.4389,-1.4389,-1.4389,-1.4309,-1.4108,-1.4088,-1.4088,-1.4088,-1.4088,-1.4088,-1.4088,-1.4088,-1.4088,-1.4088,-1.4289,-1.4389,-1.4396,-1.4689,-1.4937,-1.5137,-1.5224,-1.5378,0.0,0.0,0.0,0.0,0.0,0.0,0.0,0.0,0.0,0.0,0.0,0.0,0.0,0.0,0.0,-2.5615,-2.5615,-2.5659,-2.5794,-2.548,-2.4971,-2.4298,-2.4223,-2.3955,-2.3275,-2.3246,-2.2995,-2.2346,-2.23,-2.2007,-2.139,-2.0979,-2.0696,-2.0396,-2.0003,-1.9798,-1.9798,-1.9798,-1.9798,-1.9798,-1.9798,-1.9643,-1.9371,-1.8874,-1.8715,-1.8608,-1.7135,-1.6322,-1.6036,-1.5575,-1.5664,-1.6164,-1.6562,-1.7002,-1.7432,-1.7852,-1.8008,-1.8008,-1.8008,-1.8008,-1.8008,-1.8008,-1.8008,-1.8008,-1.8008,-1.8008,-1.791,-1.771,-1.7911,-1.8253,-1.8276,-1.8059,-1.8101,-1.8824,-1.863,-1.8031,-1.7022,-1.6778,-1.6441,-1.5546,-1.5226,-1.4909,-1.4556,-1.4282,-1.4249,-1.4716,-1.4589,-1.4502,-1.4669,-1.4696,-1.4649,-1.4529,-1.4629,-1.4529,-1.4122,-1.4195,-1.4208,-1.4095,-1.4195,-1.4262,-1.4262,-1.4262,-1.4262,-1.4262,-1.4549,-1.4696,-1.4696,-1.499,-1.5224,-1.5398,-1.5518,-1.5665,0.0,0.0,0.0,0.0,0.0,0.0,0.0,0.0,0.0,0.0,0.0,0.0,0.0,0.0,-2.545,-2.551,-2.5465,-2.5241,-2.4657,-2.4522,-2.4298,-2.367,-2.3551,-2.329,-2.274,-2.2649,-2.2346,-2.1663,-2.1615,-2.1342,-2.0746,-2.0696,-2.0446,-1.9798,-1.9798,-1.9747,-1.9695,-1.9695,-1.9695,-1.9592,-1.9592,-1.9254,-1.8608,-1.8608,-1.8555,-1.8328,-1.6978,-1.6036,-1.541,-1.541,-1.5664,-1.6164,-1.6562,-1.7002,-1.7432,-1.7852,-1.8008,-1.8008,-1.8008,-1.8008,-1.8008,-1.8008,-1.8008,-1.8008,-1.8008,-1.794,-1.7743,-1.7144,-1.7249,-1.7406,-1.6838,-1.6894,-1.7415,-1.847,-1.7908,-1.6934,-1.6077,-1.5745,-1.5471,-1.5035,-1.4456,-1.4188,-1.4502,-1.4295,-1.4182,-1.4476,-1.4796,-1.5003,-1.5003,-1.5003,-1.4903,-1.4629,-1.4843,-1.4763,-1.4175,-1.4369,-1.4409,-1.4142,-1.4376,-1.4529,-1.4563,-1.4563,-1.4563,-1.4563,-1.485,-1.5003,-1.5003,-1.5297,-1.5438,-1.5444,-1.5705,-1.5832,0.0,0.0,0.0,0.0,0.0,0.0,0.0,0.0,0.0,0.0,0.0,0.0,0.0,0.0,-2.4208,-2.4701,-2.4388,-2.4163,-2.4522,-2.4163,-2.3759,-2.3625,-2.3187,-2.283,-2.2694,-2.2193,-2.1677,-2.1028,-2.0979,-2.0733,-2.0055,-2.0003,-1.9952,-1.9798,-1.9798,-1.9527,-1.8927,-1.8939,-1.8661,-1.807,-1.807,-1.8015,-1.7852,-1.7852,-1.718,-1.6073,-1.5748,-1.5526,-1.541,-1.541,-1.5664,-1.6164,-1.6562,-1.7002,-1.7432,-1.7852,-1.8008,-1.8008,-1.8008,-1.8008,-1.8008,-1.8008,-1.8008,-1.8008,-1.8008,-1.7501,-1.6936,-1.6991,-1.6789,-1.6547,-1.6682,-1.6404,-1.6108,-1.6347,-1.6191,-1.5809,-1.474,-1.4453,-1.4446,-1.4334,-1.4175,-1.4255,-1.4776,-1.4436,-1.4182,-1.4476,-1.4963,-1.5304,-1.5304,-1.5304,-1.5284,-1.5211,-1.5264,-1.5064,-1.4476,-1.4482,-1.4496,-1.4429,-1.4482,-1.4623,-1.4863,-1.487,-1.487,-1.487,-1.5157,-1.5304,-1.5304,-1.5591,-1.5732,-1.5738,-1.5798,-1.5832,0.0,0.0,0.0,0.0,0.0,0.0,0.0,0.0,0.0,0.0,0.0,0.0,0.0,0.0,-2.4103,-2.4133,-2.3834,-2.3729,-2.4088,-2.3819,-2.3508,-2.3187,-2.2875,-2.2466,-2.1846,-2.15,-2.1015,-2.0346,-2.0295,-2.0156,-1.9798,-1.9798,-1.9798,-1.9798,-1.9475,-1.9097,-1.8715,-1.8328,-1.795,-1.7578,-1.7578,-1.7413,-1.709,-1.709,-1.6472,-1.541,-1.541,-1.541,-1.541,-1.541,-1.5664,-1.6145,-1.6318,-1.6807,-1.7412,-1.7627,-1.7842,-1.8008,-1.8008,-1.8008,-1.8008,-1.8008,-1.8008,-1.794,-1.7501,-1.6991,-1.6438,-1.5828,-1.5468,-1.5271,-1.5242,-1.494,-1.471,-1.4942,-1.4894,-1.486,-1.4341,-1.4182,-1.4168,-1.4449,-1.4396,-1.4389,-1.4696,-1.4496,-1.4396,-1.4689,-1.511,-1.5444,-1.5585,-1.5605,-1.5551,-1.5411,-1.5518,-1.5364,-1.4783,-1.4863,-1.4877,-1.4743,-1.4863,-1.501,-1.5164,-1.5304,-1.5311,-1.517,-1.5451,-1.5605,-1.5605,-1.5758,-1.5832,-1.5832,-1.5832,-1.5832,0.0,0.0,0.0,0.0,0.0,0.0,0.0,0.0,0.0,0.0,0.0,0.0,0.0,-2.5076,-2.4403,-2.3714,-2.3595,-2.3595,-2.3595,-2.3508,-2.3246,-2.274,-2.2512,-2.1941,-2.0894,-2.0696,-2.0396,-1.985,-1.9798,-1.9798,-1.9798,-1.9798,-1.9747,-1.9592,-1.9044,-1.8555,-1.8328,-1.7743,-1.7357,-1.7246,-1.7246,-1.6912,-1.6322,-1.6322,-1.5979,-1.541,-1.541,-1.541,-1.541,-1.541,-1.5664,-1.6135,-1.6213,-1.667,-1.7393,-1.7461,-1.7715,-1.8008,-1.8008,-1.8008,-1.8008,-1.8008,-1.7872,-1.7579,-1.6853,-1.6358,-1.5797,-1.4587,-1.4133,-1.3942,-1.3662,-1.3681,-1.3781,-1.4028,-1.4088,-1.4155,-1.4396,-1.4255,-1.4242,-1.4783,-1.473,-1.4583,-1.4529,-1.4603,-1.4736,-1.4937,-1.5251,-1.5558,-1.5798,-1.5832,-1.5732,-1.5498,-1.5685,-1.5611,-1.5084,-1.5257,-1.5297,-1.5057,-1.5264,-1.5418,-1.5471,-1.5705,-1.5718,-1.5478,-1.5705,-1.5832,-1.5832,-1.5832,-1.5832,-1.5832,-1.5832,-1.5832,0.0,0.0,0.0,0.0,0.0,0.0,0.0,0.0,0.0,0.0,0.0,0.0,-2.5734,-2.5076,-2.4403,-2.3714,-2.3595,-2.3595,-2.3595,-2.3143,-2.2785,-2.2694,-2.1752,-2.0993,-2.0795,-2.0245,-1.9901,-1.9798,-1.9798,-1.9798,-1.9798,-1.9798,-1.9527,-1.8874,-1.8768,-1.807,-1.6821,-1.6708,-1.6312,-1.569,-1.569,-1.5633,-1.5526,-1.5526,-1.5468,-1.541,-1.541,-1.541,-1.541,-1.541,-1.5664,-1.6103,-1.6494,-1.6953,-1.7432,-1.7793,-1.7959,-1.8008,-1.8008,-1.8008,-1.8008,-1.8008,-1.7432,-1.6784,-1.6664,-1.5455,-1.4095,-1.4149,-1.3774,-1.3378,-1.3554,-1.3834,-1.4041,-1.4075,-1.4088,-1.4095,-1.4135,-1.4115,-1.4182,-1.4516,-1.4756,-1.4823,-1.4563,-1.4943,-1.5211,-1.4997,-1.5424,-1.5785,-1.5825,-1.5832,-1.5812,-1.5772,-1.5805,-1.5698,-1.5364,-1.5378,-1.5378,-1.5344,-1.5378,-1.5504,-1.5758,-1.5805,-1.5812,-1.5772,-1.5812,-1.5832,-1.5832,-1.5832,-1.5832,-1.5832,-1.5832,-1.5832,0.0,0.0,0.0,0.0,0.0,0.0,0.0,0.0,0.0,0.0,0.0,0.0,-2.5794,-2.5375,-2.4837,-2.3774,-2.3595,-2.3465,-2.3143,-2.2875,-2.2466,-2.1704,-2.1126,-2.0646,-2.0308,-1.9952,-1.9798,-1.9798,-1.9798,-1.9631,-1.9202,-1.9202,-1.8874,-1.8124,-1.7688,-1.7146,-1.6492,-1.6093,-1.57,-1.541,-1.541,-1.541,-1.541,-1.541,-1.541,-1.541,-1.541,-1.541,-1.541,-1.541,-1.5527,-1.5742,-1.6182,-1.6631,-1.707,-1.75,-1.7812,-1.8008,-1.8008,-1.8008,-1.8008,-1.8008,-1.7354,-1.6498,-1.5948,-1.4953,-1.3903,-1.3532,-1.3276,-1.328,-1.3567,-1.3741,-1.3881,-1.4048,-1.4088,-1.4088,-1.4088,-1.4088,-1.4222,-1.4683,-1.4736,-1.4776,-1.4977,-1.5224,-1.5351,-1.5224,-1.5565,-1.5832,-1.5832,-1.5832,-1.5832,-1.5832,-1.5832,-1.5778,-1.5651,-1.5638,-1.5638,-1.5638,-1.5638,-1.5698,-1.5825,-1.5832,-1.5832,-1.5832,-1.5832,-1.5832,-1.5832,-1.5832,-1.5832,-1.5832,-1.5832,-1.5832,0.0,0.0,0.0,0.0,0.0,0.0,0.0,0.0,0.0,0.0,0.0,0.0,-2.6078,-2.5854,-2.548,-2.4298,-2.3837,-2.3481,-2.3031,-2.252,-2.1846,-2.0894,-2.066,-2.0359,-1.985,-1.9798,-1.9798,-1.9798,-1.9643,-1.9254,-1.8715,-1.8501,-1.8058,-1.7357,-1.6821,-1.6436,-1.6208,-1.57,-1.541,-1.541,-1.541,-1.541,-1.541,-1.541,-1.541,-1.541,-1.541,-1.541,-1.541,-1.541,-1.541,-1.5469,-1.6016,-1.6436,-1.6797,-1.7344,-1.7744,-1.8008,-1.8008,-1.8008,-1.8008,-1.8008,-1.7217,-1.614,-1.5438,-1.4556,-1.3719,-1.2974,-1.3019,-1.3367,-1.3587,-1.3701,-1.3814,-1.4035,-1.4088,-1.4108,-1.4182,-1.4255,-1.4462,-1.4977,-1.4897,-1.4883,-1.5317,-1.5398,-1.5398,-1.5398,-1.5645,-1.5832,-1.5832,-1.5832,-1.5832,-1.5832,-1.5832,-1.5832,-1.5832,-1.5832,-1.5832,-1.5832,-1.5832,-1.5832,-1.5832,-1.5832,-1.5832,-1.5832,-1.5832,-1.5832,-1.5832,-1.5832,-1.5832,-1.5832,-1.5832,-1.5832,0.0,0.0,0.0,0.0,0.0,0.0,0.0,0.0,0.0,0.0,0.0,0.0,-2.6662,-2.6542,-2.6318,-2.5615,-2.4479,-2.3681,-2.3634,-2.2063,-2.0845,-2.0795,-2.0245,-1.985,-1.9798,-1.9798,-1.9798,-1.9798,-1.915,-1.8715,-1.8715,-1.8058,-1.7302,-1.6595,-1.6549,-1.6151,-1.5468,-1.541,-1.541,-1.541,-1.541,-1.541,-1.541,-1.541,-1.541,-1.541,-1.541,-1.541,-1.541,-1.541,-1.541,-1.5498,-1.6357,-1.6709,-1.6826,-1.7666,-1.7988,-1.8008,-1.8008,-1.8008,-1.8008,-1.8008,-1.6793,-1.5234,-1.5234,-1.4116,-1.2898,-1.2822,-1.3173,-1.3546,-1.3641,-1.3854,-1.4068,-1.4082,-1.4088,-1.4162,-1.4436,-1.4723,-1.501,-1.5311,-1.5357,-1.5357,-1.5391,-1.5398,-1.5398,-1.5398,-1.5645,-1.5832,-1.5832,-1.5832,-1.5832,-1.5832,-1.5832,-1.5832,-1.5832,-1.5832,-1.5832,-1.5832,-1.5832,-1.5832,-1.5832,-1.5832,-1.5832,-1.5832,-1.5832,-1.5832,-1.5832,-1.5832,-1.5832,-1.5832,-1.5832,-1.5832,0.0,0.0,0.0,0.0,0.0,0.0,0.0,0.0,0.0,0.0,0.0,-2.7384,-2.6689,-2.6559,-2.6217,-2.5102,-2.4491,-2.38,-2.2506,-2.2056,-2.1577,-2.0809,-2.0825,-2.0878,-2.0878,-2.0878,-2.0648,-2.0128,-1.9837,-1.9123,-1.7796,-1.7499,-1.6843,-1.5816,-1.5806,-1.57,-1.541,-1.541,-1.541,-1.541,-1.541,-1.541,-1.541,-1.541,-1.541,-1.541,-1.541,-1.541,-1.541,-1.541,-1.5576,-1.5889,-1.6494,-1.6904,-1.7227,-1.7793,-1.8008,-1.8008,-1.8008,-1.8008,-1.8008,-1.8008,-1.6724,-1.5204,-1.5435,-1.4359,-1.308,-1.3273,-1.3614,-1.3928,-1.3928,-1.4148,-1.4416,-1.4603,-1.4649,-1.473,-1.5023,-1.5017,-1.505,-1.5337,-1.5398,-1.5451,-1.5645,-1.5671,-1.5671,-1.5671,-1.5765,-1.5832,-1.5832,-1.5832,-1.5832,-1.5832,-1.5832,-1.5832,-1.5832,-1.5832,-1.5832,-1.5832,-1.5832,-1.5832,-1.5832,-1.5832,-1.5832,-1.5832,-1.5832,-1.5832,-1.5832,-1.5832,-1.5832,-1.5832,-1.5832,-1.5832,0.0,0.0,0.0,0.0,0.0,0.0,0.0,0.0,0.0,0.0,0.0,0.0,-2.6616,-2.6528,-2.6205,-2.4981,-2.4404,-2.3661,-2.2406,-2.215,-2.1825,-2.1033,-2.1267,-2.1493,-2.1493,-2.1244,-2.0824,-2.0226,-1.9691,-1.877,-1.7273,-1.6956,-1.6386,-1.542,-1.541,-1.541,-1.541,-1.541,-1.541,-1.541,-1.541,-1.541,-1.541,-1.541,-1.541,-1.541,-1.541,-1.541,-1.541,-1.541,-1.5664,-1.6164,-1.6562,-1.7002,-1.7432,-1.7852,-1.8008,-1.8008,-1.8008,-1.8008,-1.8008,-1.8008,-1.6815,-1.5386,-1.5552,-1.4545,-1.3394,-1.3587,-1.3854,-1.4088,-1.4088,-1.4302,-1.4596,-1.4897,-1.5037,-1.5164,-1.5351,-1.5244,-1.5197,-1.5484,-1.5538,-1.5605,-1.5798,-1.5832,-1.5832,-1.5832,-1.5832,-1.5832,-1.5832,-1.5832,-1.5832,-1.5832,-1.5832,-1.5832,-1.5832,-1.5832,-1.5832,-1.5832,-1.5832,-1.5832,-1.5832,-1.5832,-1.5832,-1.5832,-1.5832,-1.5832,-1.5832,-1.5832,-1.5832,-1.5832,-1.5832,-1.5832,0.0,0.0,0.0,0.0,0.0,0.0,0.0,0.0,0.0,0.0,0.0,0.0,-2.6563,-2.6457,-2.6176,-2.5453,-2.4282,-2.3395,-2.3382,-2.2339,-2.1531,-2.1518,-2.1531,-2.1543,-2.1543,-2.0758,-2.0216,-2.0216,-1.8726,-1.7645,-1.7256,-1.6497,-1.5859,-1.542,-1.541,-1.541,-1.541,-1.541,-1.541,-1.541,-1.541,-1.541,-1.541,-1.541,-1.541,-1.541,-1.541,-1.541,-1.541,-1.542,-1.5693,-1.6133,-1.6572,-1.7021,-1.7451,-1.7861,-1.8008,-1.8008,-1.8008,-1.8008,-1.794,-1.8027,-1.6926,-1.5626,-1.5643,-1.4702,-1.3641,-1.3654,-1.3861,-1.4088,-1.4108,-1.4322,-1.4609,-1.4917,-1.5204,-1.5411,-1.5411,-1.5411,-1.5491,-1.5772,-1.5832,-1.5832,-1.5832,-1.5832,-1.5832,-1.5832,-1.5832,-1.5832,-1.5832,-1.5832,-1.5832,-1.5832,-1.5832,-1.5832,-1.5832,-1.5832,-1.5832,-1.5832,-1.5832,-1.5832,-1.5832,-1.5832,-1.5832,-1.5832,-1.5832,-1.5832,-1.5832,-1.5832,-1.5832,-1.5832,-1.5832,-1.5832,-2.7625,0.0,0.0,0.0,0.0,0.0,0.0,0.0,0.0,0.0,0.0,0.0,-2.5119,-2.4894,-2.4667,-2.3872,-2.3916,-2.3725,-2.2751,-2.2627,-2.2535,-2.2133,-2.2435,-2.2686,-2.2686,-2.1934,-2.1193,-2.0551,-1.9479,-1.841,-1.7416,-1.653,-1.5859,-1.542,-1.541,-1.541,-1.541,-1.541,-1.541,-1.541,-1.541,-1.541,-1.541,-1.541,-1.541,-1.541,-1.541,-1.541,-1.5439,-1.5752,-1.6143,-1.6592,-1.7031,-1.7461,-1.7852,-1.7969,-1.8008,-1.8008,-1.8008,-1.7579,-1.7116,-1.8141,-1.7224,-1.5938,-1.7171,-1.632,-1.4874,-1.5018,-1.4671,-1.4188,-1.4609,-1.4783,-1.497,-1.5471,-1.5651,-1.5712,-1.5712,-1.5712,-1.5732,-1.5812,-1.5832,-1.5832,-1.5832,-1.5832,-1.5832,-1.5832,-1.5832,-1.5832,-1.5832,-1.5832,-1.5832,-1.5832,-1.5832,-1.5832,-1.5832,-1.5832,-1.5832,-1.5832,-1.5832,-1.5832,-1.5832,-1.5832,-1.5832,-1.5832,-1.5832,-1.5832,-1.5832,-1.5832,-1.5832,-1.5832,-1.5832,-1.5832,0.0,0.0,0.0,0.0,0.0,0.0,-2.8399,-2.8213,-2.7837,0.0,0.0,0.0,-2.4509,-2.4292,-2.406,-2.3245,-2.3484,-2.3546,-2.2757,-2.2924,-2.2952,-2.2686,-2.2937,-2.2944,-2.2628,-2.1877,-2.0985,-2.0139,-1.9233,-1.8338,-1.7468,-1.6543,-1.5947,-1.5693,-1.5508,-1.541,-1.541,-1.541,-1.541,-1.541,-1.541,-1.541,-1.541,-1.541,-1.541,-1.541,-1.541,-1.5508,-1.5723,-1.6162,-1.6494,-1.6777,-1.7217,-1.7637,-1.8008,-1.8008,-1.8008,-1.8008,-1.8008,-1.7753,-1.7577,-1.8334,-1.7833,-1.7067,-1.7988,-1.6975,-1.5538,-1.5644,-1.4894,-1.4222,-1.481,-1.4963,-1.511,-1.5691,-1.5832,-1.5832,-1.5832,-1.5832,-1.5832,-1.5832,-1.5832,-1.5832,-1.5832,-1.5832,-1.5832,-1.5832,-1.5832,-1.5832,-1.5832,-1.5832,-1.5832,-1.5832,-1.5832,-1.5832,-1.5832,-1.5832,-1.5832,-1.5832,-1.5832,-1.5832,-1.5832,-1.5832,-1.5832,-1.5832,-1.5832,-1.5832,-1.5832,-1.5832,-1.5832,-1.5832,-1.5832,-1.5832,0.0,0.0,0.0,0.0,0.0,0.0,-2.7234,-2.7201,-2.7169,-2.5771,-2.5438,0.0,-2.4305,-2.4176,-2.3969,-2.3334,-2.3115,-2.3078,-2.3078,-2.3078,-2.3078,-2.3078,-2.3078,-2.2823,-2.2125,-2.1164,-2.0268,-1.9497,-1.8529,-1.7822,-1.7402,-1.6592,-1.6174,-1.6125,-1.5635,-1.541,-1.541,-1.541,-1.541,-1.541,-1.541,-1.541,-1.541,-1.541,-1.541,-1.541,-1.541,-1.5664,-1.6154,-1.6543,-1.6758,-1.6846,-1.7285,-1.7686,-1.8008,-1.8008,-1.8008,-1.8008,-1.8008,-1.8212,-1.8501,-1.8621,-1.8507,-1.8371,-1.8493,-1.7309,-1.5869,-1.5621,-1.4838,-1.4262,-1.4823,-1.499,-1.515,-1.5698,-1.5832,-1.5832,-1.5832,-1.5832,-1.5832,-1.5832,-1.5832,-1.5832,-1.5832,-1.5832,-1.5832,-1.5832,-1.5832,-1.5832,-1.5832,-1.5832,-1.5832,-1.5832,-1.5832,-1.5832,-1.5832,-1.5832,-1.5832,-1.5832,-1.5832,-1.5832,-1.5832,-1.5832,-1.5832,-1.5832,-1.5832,-1.5832,-1.5832,-1.5832,-1.5832,-1.5832,-1.5832,-1.5832,0.0,0.0,0.0,0.0,0.0,0.0,-2.89,-2.8426,-2.7755,0.0,0.0,0.0,0.0,-2.3305,-2.3457,-2.3753,-2.3439,-2.3078,-2.3078,-2.3078,-2.3078,-2.3078,-2.3078,-2.3017,-2.2884,-2.1479,-2.0526,-2.0333,-1.8911,-1.7822,-1.7402,-1.6885,-1.6436,-1.6135,-1.5635,-1.541,-1.541,-1.541,-1.541,-1.541,-1.541,-1.541,-1.541,-1.541,-1.541,-1.541,-1.541,-1.5664,-1.6154,-1.6543,-1.6943,-1.7295,-1.7725,-1.7939,-1.8008,-1.8008,-1.8008,-1.8008,-1.8008,-1.7786,-1.7675,-1.8827,-1.8816,-1.8656,-1.9782,-1.8647,-1.6609,-1.4901,-1.4419,-1.4516,-1.487,-1.5137,-1.5398,-1.5745,-1.5832,-1.5832,-1.5832,-1.5832,-1.5832,-1.5832,-1.5832,-1.5832,-1.5832,-1.5832,-1.5832,-1.5832,-1.5832,-1.5832,-1.5832,-1.5832,-1.5832,-1.5832,-1.5832,-1.5832,-1.5832,-1.5832,-1.5832,-1.5832,-1.5832,-1.5832,-1.5832,-1.5832,-1.5832,-1.5832,-1.5832,-1.5832,-1.5832,-1.5832,-1.5832,-1.5832,-1.5832,-1.5832,0.0,0.0,0.0,-2.9669,-2.9819,0.0,0.0,-2.8034,-2.7565,-2.5079,0.0,0.0,0.0,0.0,-2.4079,-2.4356,-2.3941,-2.3665,-2.3941,-2.3489,-2.3078,-2.3078,-2.2763,-2.231,-2.1928,-2.0719,-1.9748,-1.9375,-1.8462,-1.792,-1.7705,-1.7295,-1.6855,-1.6406,-1.5967,-1.5635,-1.541,-1.541,-1.541,-1.541,-1.541,-1.541,-1.541,-1.541,-1.541,-1.542,-1.5644,-1.5986,-1.6436,-1.6875,-1.7305,-1.7715,-1.793,-1.8008,-1.8008,-1.8008,-1.8008,-1.8037,-1.8252,-1.8312,-1.8436,-1.9306,-1.9581,-1.9648,-2.042,-1.9432,-1.77,-1.5654,-1.5148,-1.5294,-1.5244,-1.5291,-1.5471,-1.5758,-1.5832,-1.5832,-1.5832,-1.5832,-1.5832,-1.5832,-1.5832,-1.5832,-1.5832,-1.5832,-1.5832,-1.5832,-1.5832,-1.5832,-1.5832,-1.5832,-1.5832,-1.5832,-1.5832,-1.5832,-1.5832,-1.5832,-1.5832,-1.5832,-1.5832,-1.5832,-1.5832,-1.5832,-1.5832,-1.5832,-1.5832,-1.5832,-1.5832,-1.5832,-1.5832,-1.5832,-1.5832,-1.5832,0.0,0.0,0.0,0.0,0.0,-2.9391,0.0,0.0,0.0,0.0,0.0,0.0,0.0,0.0,0.0,0.0,0.0,0.0,0.0,-2.3941,0.0,-2.3452,-2.2505,-2.1698,-2.1183,-2.0149,-1.9137,-1.8203,-1.8135,-1.8096,-1.8018,-1.7607,-1.7227,-1.6865,-1.6426,-1.5986,-1.5537,-1.5537,-1.5498,-1.541,-1.541,-1.541,-1.541,-1.541,-1.541,-1.5439,-1.5879,-1.6318,-1.6768,-1.7207,-1.7627,-1.8008,-1.8008,-1.8008,-1.8008,-1.8008,-1.8057,-1.8184,-1.8516,-1.8975,-1.9463,-1.9805,-2.0215,-2.0566,-2.0323,-1.9687,-1.8629,-1.6928,-1.6483,-1.6413,-1.5868,-1.5793,-1.5817,-1.5772,-1.5832,-1.5832,-1.5832,-1.5832,-1.5832,-1.5832,-1.5832,-1.5832,-1.5832,-1.5832,-1.5832,-1.5832,-1.5832,-1.5832,-1.5832,-1.5832,-1.5832,-1.5832,-1.5832,-1.5832,-1.5832,-1.5832,-1.5832,-1.5832,-1.5832,-1.5832,-1.5832,-1.5832,-1.5832,-1.5832,-1.5885,-1.5885,-1.5832,-1.5885,-1.5885,-1.5832,-1.5832,-1.5832,0.0,0.0,0.0,0.0,-2.8774,-2.7988,-2.6907,0.0,-2.6463,-2.4937,0.0,0.0,0.0,0.0,0.0,0.0,0.0,0.0,-2.4745,-2.4293,-2.4079,-2.4569,-2.2967,-2.2171,-2.2952,-2.1468,-1.9939,-1.8664,-1.8494,-1.8408,-1.8027,-1.7607,-1.7363,-1.7314,-1.6885,-1.6445,-1.5986,-1.5986,-1.5791,-1.541,-1.541,-1.541,-1.541,-1.541,-1.541,-1.5439,-1.5879,-1.6318,-1.6768,-1.7207,-1.7627,-1.8008,-1.8008,-1.8008,-1.8008,-1.8008,-1.8242,-1.8574,-1.8553,-1.917,-1.9853,-1.9902,-2.0215,-2.0401,-1.9441,-1.9116,-1.8798,-1.8029,-1.794,-1.7921,-1.7154,-1.7217,-1.7181,-1.6103,-1.5832,-1.5832,-1.5832,-1.5832,-1.5832,-1.5832,-1.5832,-1.5832,-1.5832,-1.5832,-1.5832,-1.5832,-1.5832,-1.5832,-1.5832,-1.5832,-1.5832,-1.5832,-1.5832,-1.5832,-1.5832,-1.5832,-1.5832,-1.5832,-1.5832,-1.5832,-1.5832,-1.5832,-1.5832,-1.5832,-1.6086,-1.6092,-1.5832,-1.6092,-1.6086,-1.5832,-1.5832,-1.5832,0.0,0.0,0.0,0.0,0.0,0.0,-2.7123,-2.7051,-2.6687,-2.476,0.0,0.0,0.0,0.0,0.0,0.0,-2.5297,0.0,0.0,0.0,-2.4556,0.0,0.0,0.0,-2.1543,-2.0446,-1.9413,-1.832,-1.8496,-1.8457,-1.8037,-1.7842,-1.7637,-1.7393,-1.7207,-1.6777,-1.6135,-1.6125,-1.584,-1.541,-1.541,-1.541,-1.541,-1.541,-1.5547,-1.5811,-1.626,-1.6699,-1.7148,-1.7568,-1.7852,-1.8008,-1.8008,-1.8008,-1.8037,-1.8281,-1.8486,-1.863,-1.9209,-1.9609,-1.9951,-2.0215,-2.042,-2.0489,-2.0079,-1.9923,-1.9818,-1.9283,-1.9227,-1.9058,-1.7773,-1.7579,-1.7412,-1.6109,-1.5832,-1.5832,-1.5832,-1.5832,-1.5832,-1.5832,-1.5832,-1.5832,-1.5832,-1.5832,-1.5832,-1.5832,-1.5832,-1.5832,-1.5832,-1.5832,-1.5832,-1.5832,-1.5832,-1.5832,-1.5832,-1.5832,-1.5832,-1.5832,-1.5992,-1.6012,-1.5838,-1.6159,-1.6179,-1.5838,-1.6286,-1.638,-1.6086,-1.6213,-1.6213,-1.6086,-1.5912,-1.5832,-2.9058,0.0,0.0,0.0,-2.8492,-2.8061,-2.7013,-2.7117,-2.6828,-2.4835,-2.5385,0.0,0.0,0.0,0.0,-2.6226,0.0,-2.5737,0.0,-2.5536,0.0,0.0,0.0,0.0,0.0,-1.9948,-1.9277,-1.8418,-1.8643,-1.8574,-1.8037,-1.8008,-1.7871,-1.7568,-1.7549,-1.7197,-1.6426,-1.6488,-1.6143,-1.5586,-1.5586,-1.5527,-1.542,-1.5537,-1.5762,-1.6154,-1.666,-1.709,-1.7422,-1.7842,-1.8008,-1.8008,-1.8008,-1.8076,-1.8223,-1.8525,-1.8718,-1.9082,-1.9697,-1.999,-2.0146,-2.0469,-2.0566,-2.0566,-2.0566,-2.0566,-2.0575,-2.0504,-2.0298,-1.9694,-1.8506,-1.7963,-1.7412,-1.6109,-1.5832,-1.5832,-1.5832,-1.5832,-1.5832,-1.5832,-1.5832,-1.5832,-1.5832,-1.5832,-1.5832,-1.5832,-1.5832,-1.5832,-1.5832,-1.5832,-1.5832,-1.5832,-1.5832,-1.5832,-1.5832,-1.5832,-1.5865,-1.5945,-1.6152,-1.6213,-1.6072,-1.6406,-1.6426,-1.6079,-1.6567,-1.668,-1.6393,-1.6393,-1.6353,-1.6266,-1.5965,-1.5832,-2.8527,-2.803,-2.7736,-2.7736,-2.7162,-2.6589,-2.6508,-2.6521,-2.6357,-2.5674,-2.5586,-2.5611,-2.5573,-2.5598,-2.5624,-2.5624,-2.5598,0.0,0.0,0.0,0.0,0.0,0.0,0.0,0.0,-2.0853,-2.0166,-1.9307,-1.9258,-1.8896,-1.8057,-1.8008,-1.8008,-1.7988,-1.7988,-1.7783,-1.7344,-1.7344,-1.6904,-1.6105,-1.6105,-1.582,-1.543,-1.585,-1.6115,-1.6174,-1.6992,-1.7373,-1.7422,-1.7842,-1.8008,-1.8008,-1.8008,-1.8262,-1.8553,-1.8633,-1.916,-1.9883,-1.9902,-2.0195,-2.0547,-2.0634,-2.0566,-2.0566,-2.0566,-2.0566,-2.0752,-2.1641,-2.0913,-1.9951,-1.9569,-1.8596,-1.7412,-1.6109,-1.5832,-1.5832,-1.5832,-1.5832,-1.5832,-1.5832,-1.5832,-1.5832,-1.5832,-1.5832,-1.5832,-1.5832,-1.5832,-1.5832,-1.5832,-1.5832,-1.5832,-1.5832,-1.5832,-1.5832,-1.5832,-1.5832,-1.5952,-1.6239,-1.6266,-1.6393,-1.6667,-1.6426,-1.6413,-1.6673,-1.6981,-1.6987,-1.6693,-1.6693,-1.6547,-1.6266,-1.5965,-1.5832,-2.6827,-2.6549,-2.6419,-2.6815,-2.6714,-2.6533,-2.6533,-2.6533,-2.6302,-2.5711,-2.59,-2.605,-2.5661,-2.5912,-2.6163,-2.6163,-2.6163,-2.6163,0.0,0.0,0.0,0.0,0.0,0.0,0.0,0.0,-1.9775,-1.8916,-1.8857,-1.8603,-1.8037,-1.8008,-1.8008,-1.8008,-1.8008,-1.7812,-1.7393,-1.7383,-1.6943,-1.6125,-1.6367,-1.6269,-1.5859,-1.6299,-1.666,-1.6953,-1.7256,-1.7539,-1.7812,-1.7949,-1.8008,-1.8037,-1.832,-1.8691,-1.9072,-1.9072,-1.9424,-1.9951,-2.0244,-2.0439,-2.0566,-2.0566,-2.0566,-2.0625,-2.0918,-2.1006,-2.1191,-2.206,-2.14,-2.0461,-2.0624,-1.9222,-1.7598,-1.7131,-1.6386,-1.5832,-1.5832,-1.5832,-1.5832,-1.5832,-1.5832,-1.5832,-1.5832,-1.5832,-1.5832,-1.5832,-1.5832,-1.5832,-1.5832,-1.5832,-1.5832,-1.5832,-1.5832,-1.5912,-1.6106,-1.6299,-1.6453,-1.6553,-1.674,-1.6807,-1.6707,-1.6987,-1.7001,-1.6714,-1.7188,-1.7295,-1.7001,-1.68,-1.6754,-1.6834,-1.6146,-1.5832,-2.5646,-2.564,-2.5686,-2.6063,-2.637,-2.6533,-2.6533,-2.6533,-2.642,-2.5975,-2.6201,-2.6352,-2.5975,-2.6214,-2.6533,-2.6533,-2.6533,-2.6533,0.0,-2.6533,0.0,0.0,0.0,0.0,0.0,-2.1008,-1.9902,-1.8721,-1.8779,-1.8613,-1.8037,-1.8008,-1.8008,-1.8008,-1.8008,-1.7881,-1.7607,-1.7607,-1.7246,-1.6596,-1.7123,-1.7139,-1.6789,-1.7179,-1.754,-1.782,-1.7662,-1.7764,-1.8008,-1.8008,-1.8008,-1.8047,-1.8467,-1.8906,-1.9307,-1.9453,-1.9775,-2.0185,-2.0469,-2.0566,-2.0566,-2.0566,-2.0674,-2.0859,-2.1143,-2.1348,-2.1491,-2.1681,-2.1228,-2.0595,-2.003,-1.876,-1.7598,-1.7131,-1.6386,-1.5832,-1.5832,-1.5832,-1.5832,-1.5832,-1.5832,-1.5832,-1.5832,-1.5832,-1.5832,-1.5832,-1.5832,-1.5832,-1.5832,-1.5832,-1.5832,-1.5832,-1.5925,-1.6066,-1.6259,-1.6633,-1.682,-1.6714,-1.6987,-1.7114,-1.7021,-1.7281,-1.7301,-1.7021,-1.7388,-1.7488,-1.7301,-1.7007,-1.6961,-1.7134,-1.6453,-1.6086]},{"header":{"parameterUnit":"m.s-1","parameterCategory":1,"la1":30.6,"la2":29.2853,"lo1":-89.7004,"lo2":-87.6739,"dy":0.0162,"dx":0.0183,"nx":112,"ny":82,"refTime":"2023-02-26T06:00:00:Z","depth":0,"parameterNumber":3,"parameterNumberName":"V-component_of_WINDS"},"data":[0.0,0.0,0.0,0.0,0.0,0.0,0.0,0.0,0.0,0.0,0.0,0.0,0.0,0.0,0.0,0.0,0.0,0.0,0.0,0.0,0.0,0.0,0.0,0.0,0.0,0.0,0.0,0.0,0.0,0.0,0.0,0.0,0.0,0.0,0.0,0.0,0.0,0.0,0.0,0.0,0.0,0.0,0.0,0.0,0.0,0.0,0.0,0.0,0.0,0.0,0.0,0.0,0.0,0.0,0.0,0.0,0.0,0.0,0.0,0.0,0.0,0.0,0.0,0.0,0.0,0.0,0.0,0.0,0.0,0.0,0.0,0.0,0.0,0.0,0.0,0.0,0.0,0.0,0.0,0.0,0.0,0.0,0.0,0.0,0.0,0.0,0.0,0.0,0.0,0.0,-2.2567,-2.1616,-2.0499,-2.044,-2.2093,-2.2725,-2.3514,-2.4728,0.0,0.0,0.0,0.0,0.0,0.0,0.0,0.0,0.0,0.0,0.0,0.0,0.0,0.0,0.0,0.0,0.0,0.0,0.0,0.0,0.0,0.0,0.0,0.0,0.0,0.0,0.0,0.0,0.0,0.0,0.0,0.0,0.0,0.0,0.0,0.0,0.0,0.0,0.0,0.0,0.0,0.0,0.0,0.0,0.0,0.0,0.0,0.0,0.0,0.0,0.0,0.0,0.0,0.0,0.0,0.0,0.0,0.0,0.0,0.0,0.0,0.0,0.0,0.0,0.0,0.0,0.0,0.0,0.0,0.0,0.0,0.0,0.0,0.0,0.0,0.0,0.0,0.0,0.0,0.0,0.0,0.0,0.0,0.0,0.0,0.0,0.0,0.0,0.0,0.0,0.0,0.0,0.0,0.0,0.0,0.0,0.0,0.0,0.0,0.0,0.0,0.0,0.0,0.0,-2.1491,-1.989,-1.9522,-2.0185,-2.2047,-2.2958,-2.3815,-2.4741,0.0,0.0,0.0,0.0,0.0,0.0,0.0,0.0,0.0,0.0,0.0,0.0,0.0,0.0,0.0,0.0,0.0,0.0,0.0,0.0,0.0,0.0,0.0,0.0,0.0,0.0,0.0,0.0,0.0,0.0,0.0,0.0,0.0,0.0,0.0,0.0,0.0,0.0,0.0,0.0,0.0,0.0,0.0,0.0,0.0,0.0,0.0,0.0,0.0,0.0,0.0,0.0,0.0,0.0,0.0,0.0,0.0,0.0,0.0,0.0,0.0,0.0,0.0,0.0,0.0,0.0,0.0,0.0,0.0,0.0,0.0,0.0,0.0,0.0,0.0,0.0,0.0,0.0,0.0,0.0,0.0,0.0,0.0,0.0,0.0,0.0,0.0,0.0,0.0,0.0,0.0,0.0,0.0,0.0,0.0,0.0,0.0,0.0,0.0,0.0,0.0,0.0,0.0,-2.1741,-2.082,-1.9769,-1.9455,-2.0226,-2.2369,-2.3183,-2.3896,-2.4753,-2.482,0.0,0.0,0.0,0.0,0.0,0.0,0.0,0.0,0.0,0.0,0.0,0.0,0.0,0.0,0.0,0.0,0.0,0.0,0.0,0.0,0.0,0.0,0.0,0.0,0.0,0.0,0.0,0.0,0.0,0.0,0.0,0.0,0.0,0.0,0.0,0.0,0.0,0.0,0.0,0.0,0.0,0.0,0.0,0.0,0.0,0.0,0.0,0.0,0.0,0.0,0.0,0.0,0.0,0.0,0.0,0.0,0.0,0.0,0.0,0.0,0.0,0.0,0.0,0.0,0.0,0.0,0.0,0.0,0.0,0.0,0.0,0.0,0.0,0.0,0.0,0.0,0.0,0.0,0.0,0.0,0.0,0.0,0.0,0.0,0.0,0.0,0.0,0.0,0.0,0.0,0.0,0.0,0.0,0.0,0.0,0.0,0.0,0.0,0.0,0.0,0.0,0.0,-2.1076,-2.0512,-2.0007,-1.987,-2.07,-2.3035,-2.3492,-2.3991,-2.4741,-2.4695,0.0,0.0,0.0,0.0,0.0,0.0,0.0,0.0,0.0,0.0,0.0,0.0,0.0,0.0,0.0,0.0,0.0,0.0,0.0,0.0,0.0,0.0,0.0,0.0,0.0,0.0,0.0,0.0,0.0,0.0,0.0,0.0,0.0,0.0,0.0,0.0,0.0,0.0,0.0,0.0,0.0,0.0,0.0,0.0,0.0,0.0,0.0,0.0,0.0,0.0,0.0,0.0,0.0,0.0,0.0,0.0,0.0,0.0,0.0,0.0,0.0,0.0,0.0,0.0,0.0,0.0,0.0,0.0,0.0,0.0,0.0,0.0,0.0,0.0,0.0,0.0,0.0,0.0,0.0,0.0,0.0,0.0,0.0,0.0,0.0,0.0,0.0,0.0,0.0,0.0,0.0,0.0,0.0,0.0,0.0,0.0,0.0,0.0,0.0,0.0,0.0,0.0,-2.0971,-2.0874,-2.0186,-2.0789,-2.2027,-2.4023,-2.4174,-2.4326,-2.4793,-2.4343,0.0,0.0,0.0,0.0,0.0,0.0,0.0,0.0,0.0,0.0,0.0,0.0,0.0,0.0,0.0,0.0,0.0,0.0,0.0,0.0,0.0,0.0,0.0,0.0,0.0,0.0,0.0,0.0,0.0,0.0,0.0,0.0,0.0,0.0,0.0,0.0,0.0,0.0,0.0,0.0,0.0,0.0,0.0,0.0,0.0,0.0,0.0,0.0,0.0,0.0,0.0,0.0,0.0,0.0,0.0,0.0,0.0,0.0,0.0,0.0,0.0,0.0,0.0,0.0,0.0,0.0,0.0,0.0,0.0,0.0,0.0,0.0,0.0,0.0,0.0,0.0,0.0,0.0,0.0,0.0,0.0,0.0,0.0,0.0,0.0,0.0,0.0,0.0,0.0,0.0,0.0,0.0,0.0,0.0,0.0,0.0,0.0,0.0,0.0,0.0,0.0,0.0,-2.1527,-2.1552,-2.1292,-2.1549,-2.2562,-2.4566,-2.4707,-2.484,-2.5269,0.0,0.0,0.0,0.0,0.0,0.0,0.0,0.0,0.0,0.0,0.0,0.0,0.0,0.0,0.0,0.0,0.0,0.0,0.0,0.0,0.0,0.0,0.0,0.0,0.0,0.0,0.0,0.0,0.0,0.0,0.0,0.0,0.0,0.0,0.0,0.0,0.0,0.0,0.0,0.0,0.0,0.0,0.0,0.0,0.0,0.0,0.0,0.0,0.0,0.0,0.0,0.0,0.0,0.0,0.0,0.0,0.0,0.0,0.0,0.0,0.0,0.0,0.0,0.0,0.0,0.0,0.0,0.0,0.0,0.0,0.0,0.0,0.0,0.0,0.0,0.0,0.0,0.0,0.0,0.0,0.0,0.0,0.0,0.0,0.0,0.0,0.0,0.0,0.0,0.0,0.0,0.0,0.0,0.0,0.0,0.0,0.0,0.0,0.0,0.0,0.0,0.0,-2.2253,-2.227,-2.2368,-2.2456,-2.2605,-2.3398,-2.5045,-2.5175,-2.5232,-2.5319,0.0,0.0,0.0,0.0,0.0,0.0,0.0,0.0,0.0,0.0,0.0,0.0,0.0,0.0,0.0,0.0,0.0,0.0,0.0,0.0,0.0,0.0,0.0,0.0,0.0,0.0,0.0,0.0,0.0,0.0,0.0,0.0,0.0,0.0,0.0,0.0,0.0,0.0,0.0,0.0,0.0,0.0,0.0,0.0,0.0,0.0,0.0,0.0,0.0,0.0,0.0,0.0,0.0,0.0,0.0,0.0,0.0,0.0,0.0,0.0,0.0,0.0,0.0,0.0,0.0,0.0,0.0,0.0,0.0,0.0,0.0,0.0,0.0,0.0,0.0,0.0,0.0,0.0,0.0,0.0,0.0,0.0,0.0,0.0,0.0,0.0,0.0,0.0,0.0,0.0,0.0,0.0,0.0,0.0,0.0,0.0,0.0,0.0,0.0,0.0,0.0,0.0,-2.2855,-2.3102,-2.3356,-2.3513,-2.391,-2.4575,-2.5532,-2.5598,-2.5372,0.0,0.0,0.0,0.0,0.0,0.0,0.0,0.0,0.0,0.0,0.0,0.0,0.0,0.0,0.0,0.0,0.0,0.0,0.0,0.0,0.0,0.0,0.0,0.0,0.0,0.0,0.0,0.0,0.0,0.0,0.0,0.0,0.0,0.0,0.0,0.0,0.0,0.0,0.0,0.0,0.0,0.0,0.0,0.0,0.0,0.0,0.0,0.0,0.0,0.0,0.0,0.0,0.0,0.0,0.0,0.0,0.0,0.0,0.0,0.0,0.0,0.0,0.0,0.0,0.0,0.0,0.0,0.0,0.0,0.0,0.0,0.0,0.0,0.0,0.0,0.0,0.0,0.0,0.0,0.0,0.0,0.0,0.0,0.0,0.0,0.0,0.0,0.0,0.0,0.0,0.0,0.0,0.0,0.0,0.0,0.0,0.0,0.0,0.0,0.0,0.0,0.0,0.0,-2.3666,-2.4072,-2.4542,-2.4913,-2.5086,-2.548,-2.6163,-2.5824,-2.5523,-2.5372,0.0,0.0,0.0,0.0,0.0,0.0,0.0,0.0,0.0,0.0,0.0,0.0,0.0,0.0,0.0,0.0,0.0,0.0,0.0,0.0,0.0,0.0,0.0,0.0,0.0,0.0,0.0,0.0,0.0,0.0,0.0,0.0,0.0,0.0,0.0,0.0,0.0,0.0,0.0,0.0,0.0,0.0,0.0,0.0,0.0,0.0,0.0,0.0,0.0,0.0,0.0,0.0,0.0,0.0,0.0,0.0,0.0,0.0,0.0,0.0,0.0,0.0,0.0,0.0,0.0,0.0,0.0,0.0,0.0,0.0,0.0,0.0,0.0,0.0,0.0,0.0,0.0,0.0,0.0,0.0,0.0,0.0,0.0,0.0,0.0,0.0,0.0,0.0,0.0,0.0,0.0,0.0,0.0,0.0,0.0,0.0,0.0,0.0,0.0,0.0,0.0,0.0,-2.433,-2.4795,-2.5247,-2.5561,-2.5598,-2.5737,-2.6088,-2.6013,-2.587,-2.5716,0.0,0.0,0.0,0.0,0.0,0.0,0.0,0.0,0.0,0.0,0.0,0.0,0.0,0.0,0.0,0.0,0.0,0.0,0.0,0.0,0.0,0.0,0.0,0.0,0.0,0.0,0.0,0.0,0.0,0.0,0.0,0.0,0.0,0.0,0.0,0.0,0.0,0.0,0.0,0.0,0.0,0.0,0.0,0.0,0.0,0.0,0.0,0.0,0.0,0.0,0.0,0.0,0.0,0.0,0.0,0.0,0.0,0.0,0.0,0.0,0.0,0.0,0.0,0.0,0.0,0.0,0.0,0.0,0.0,0.0,0.0,0.0,0.0,0.0,0.0,0.0,0.0,0.0,0.0,0.0,0.0,0.0,0.0,0.0,0.0,0.0,0.0,0.0,0.0,0.0,0.0,0.0,0.0,0.0,0.0,0.0,0.0,0.0,0.0,0.0,0.0,0.0,-2.482,-2.5322,-2.5674,-2.5674,-2.5674,-2.5715,-2.5731,-2.616,-2.6279,-2.5955,0.0,0.0,0.0,0.0,0.0,0.0,0.0,0.0,0.0,0.0,0.0,0.0,0.0,0.0,0.0,0.0,0.0,0.0,0.0,0.0,0.0,0.0,0.0,0.0,0.0,0.0,0.0,0.0,0.0,0.0,0.0,0.0,0.0,0.0,0.0,0.0,0.0,0.0,0.0,0.0,0.0,0.0,0.0,0.0,0.0,0.0,0.0,0.0,0.0,0.0,0.0,0.0,0.0,0.0,0.0,0.0,0.0,0.0,0.0,0.0,-2.4054,-2.3891,0.0,0.0,0.0,0.0,0.0,0.0,0.0,0.0,0.0,0.0,0.0,0.0,0.0,0.0,0.0,0.0,0.0,0.0,0.0,0.0,0.0,0.0,0.0,0.0,0.0,0.0,0.0,0.0,0.0,0.0,0.0,0.0,0.0,0.0,0.0,0.0,0.0,0.0,0.0,0.0,-2.482,-2.5674,-2.6276,-2.6276,-2.6276,-2.6346,-2.644,-2.6231,-2.6047,-2.6122,-2.6428,0.0,0.0,0.0,0.0,0.0,0.0,0.0,0.0,0.0,0.0,0.0,0.0,0.0,0.0,0.0,0.0,0.0,0.0,0.0,0.0,0.0,0.0,0.0,0.0,0.0,0.0,0.0,0.0,0.0,0.0,0.0,0.0,0.0,0.0,0.0,0.0,0.0,0.0,0.0,0.0,0.0,0.0,0.0,0.0,0.0,0.0,0.0,0.0,0.0,0.0,0.0,0.0,0.0,0.0,0.0,0.0,0.0,0.0,0.0,-2.4519,-2.4393,0.0,0.0,0.0,0.0,0.0,0.0,0.0,0.0,0.0,0.0,0.0,0.0,0.0,0.0,0.0,0.0,0.0,0.0,0.0,0.0,0.0,0.0,0.0,0.0,0.0,0.0,0.0,0.0,0.0,0.0,0.0,0.0,0.0,0.0,0.0,0.0,0.0,0.0,0.0,0.0,-2.5159,-2.5937,-2.6658,-2.704,-2.7095,-2.7116,-2.7323,-2.7064,-2.6862,-2.6736,-2.6842,0.0,0.0,0.0,0.0,0.0,0.0,0.0,0.0,0.0,0.0,0.0,0.0,0.0,0.0,0.0,0.0,0.0,0.0,0.0,0.0,0.0,0.0,0.0,0.0,0.0,0.0,0.0,0.0,0.0,0.0,0.0,0.0,0.0,0.0,0.0,0.0,0.0,0.0,0.0,0.0,0.0,0.0,0.0,0.0,0.0,0.0,0.0,0.0,0.0,0.0,0.0,0.0,0.0,-2.5209,-2.5259,-2.5259,-2.5259,-2.5197,-2.5109,-2.5209,-2.5134,-2.4971,-2.5059,0.0,0.0,0.0,0.0,0.0,0.0,0.0,0.0,0.0,0.0,0.0,0.0,0.0,0.0,0.0,0.0,0.0,0.0,0.0,0.0,0.0,0.0,-3.1482,-3.1482,-3.1482,-3.1482,-3.1482,0.0,0.0,0.0,0.0,0.0,0.0,0.0,0.0,0.0,0.0,0.0,-2.5959,-2.6547,-2.7162,-2.7855,-2.7827,-2.7843,-2.8055,-2.7963,-2.7717,-2.7357,-2.7339,-2.7501,0.0,0.0,0.0,0.0,0.0,0.0,0.0,0.0,0.0,0.0,0.0,0.0,0.0,0.0,0.0,0.0,0.0,0.0,0.0,0.0,0.0,0.0,0.0,0.0,0.0,0.0,0.0,0.0,0.0,0.0,0.0,0.0,-2.4985,-2.4113,0.0,0.0,0.0,0.0,0.0,0.0,0.0,0.0,0.0,0.0,0.0,0.0,0.0,-2.4707,-2.4707,-2.5234,-2.5749,-2.6251,-2.6728,-2.6954,-2.6954,-2.6954,-2.6703,-2.6264,-2.6753,0.0,-2.5536,-2.6038,0.0,0.0,0.0,0.0,0.0,0.0,0.0,0.0,0.0,0.0,0.0,0.0,0.0,0.0,0.0,0.0,0.0,0.0,0.0,0.0,0.0,0.0,-3.1482,-3.1482,-3.1482,-3.1482,-3.1482,-3.0896,-3.0072,-2.9317,-2.8567,-2.785,0.0,0.0,0.0,0.0,0.0,0.0,-2.7714,-2.8302,-2.8684,-2.8812,-2.8283,-2.8041,-2.8268,-2.7754,-2.7455,-2.7571,-2.7578,-2.7816,-2.8442,-2.8547,0.0,0.0,0.0,0.0,0.0,0.0,0.0,0.0,0.0,0.0,0.0,0.0,0.0,0.0,0.0,0.0,0.0,0.0,0.0,0.0,0.0,0.0,0.0,0.0,0.0,0.0,0.0,0.0,0.0,-2.4794,-2.4338,-2.4054,-2.4004,-2.3904,0.0,0.0,0.0,0.0,0.0,0.0,0.0,0.0,0.0,-2.4456,-2.4983,-2.5259,-2.5259,-2.6113,-2.6515,-2.6533,-2.7017,-2.7118,-2.6816,-2.6816,-2.6691,-2.6559,-2.7042,-2.7081,-2.6801,-2.6612,-2.6947,-2.7485,0.0,0.0,0.0,0.0,-2.838,-2.861,-2.9783,-3.0159,-3.0157,-3.0097,0.0,0.0,0.0,0.0,0.0,0.0,0.0,-3.1046,-3.1377,-3.1482,-3.1482,-3.1482,-3.1482,-3.1482,-3.1482,-3.1219,-3.0837,-3.0464,-2.9557,-2.8777,-2.8507,-2.7284,0.0,0.0,0.0,-2.7619,-2.8519,-2.8837,-2.9053,-2.9148,-2.8941,-2.8683,-2.8477,-2.8179,-2.7897,-2.7619,-2.7625,-2.7709,-2.8008,-2.8397,-2.8771,0.0,0.0,0.0,0.0,0.0,0.0,0.0,0.0,0.0,0.0,0.0,0.0,0.0,0.0,0.0,0.0,0.0,0.0,0.0,0.0,0.0,0.0,0.0,0.0,0.0,0.0,0.0,0.0,-2.4325,-2.4356,-2.4217,-2.4456,-2.4519,0.0,0.0,0.0,0.0,0.0,0.0,-2.4795,-2.4738,-2.4747,-2.5021,-2.5536,-2.5824,-2.5824,-2.6653,-2.6929,-2.6747,-2.708,-2.7067,-2.6666,-2.6666,-2.6659,-2.6559,-2.7042,-2.7506,-2.7881,-2.7246,-2.7647,-2.8532,-2.7314,-2.7633,-2.8816,-2.9416,-2.9784,-3.009,-3.1172,-3.1482,-3.1362,-3.0731,-3.0402,-3.0178,-2.9729,0.0,0.0,0.0,0.0,-3.0881,-3.1405,-3.1482,-3.1437,-3.1258,-3.127,-3.1225,-3.1061,-3.1031,-3.1135,-3.1407,-3.0674,-2.99,-2.974,-2.8654,0.0,-2.8686,-2.8637,-2.8802,-2.9558,-2.9628,-2.9647,-2.9624,-2.9479,-2.9181,-2.8629,-2.8442,-2.8113,-2.7655,-2.7625,-2.77,-2.7829,-2.8323,-2.8831,-2.9325,0.0,0.0,0.0,0.0,0.0,0.0,0.0,0.0,0.0,0.0,0.0,0.0,0.0,0.0,0.0,0.0,0.0,0.0,0.0,0.0,0.0,0.0,0.0,0.0,0.0,0.0,0.0,0.0,0.0,-2.4845,-2.5699,0.0,0.0,0.0,0.0,-2.4782,-2.4018,-2.3899,-2.4755,-2.4518,-2.4694,-2.5548,-2.6113,-2.6483,-2.6483,-2.6546,-2.6753,-2.7243,-2.7268,-2.7268,-2.7243,-2.7243,-2.6954,-2.6559,-2.7042,-2.771,-2.8447,-2.8447,-2.8598,-2.8967,-2.8884,-2.9434,-3.0225,-3.0225,-3.0733,-3.1422,-3.1467,-3.1482,-3.1362,-3.0731,-3.0103,-2.9624,-2.9594,-2.9998,0.0,0.0,-3.1422,-3.1437,-3.1467,-3.1482,-3.1317,-3.0717,-3.0552,-3.0387,-2.9804,-2.9684,-3.0043,-3.13,-3.1452,-3.1213,-3.0556,0.0,-2.9551,-3.0253,-2.9768,-2.9828,-3.1203,-3.1351,-3.114,-3.0511,-2.9928,-2.9301,-2.8667,-2.7993,-2.7655,-2.7625,-2.7625,-2.7874,-2.8517,-2.8577,-2.8622,-2.8652,-2.981,0.0,0.0,0.0,0.0,0.0,0.0,0.0,0.0,0.0,0.0,0.0,0.0,0.0,0.0,0.0,0.0,0.0,0.0,0.0,0.0,0.0,0.0,0.0,0.0,0.0,0.0,0.0,0.0,-2.5812,-2.5887,0.0,-2.5875,-2.5234,-2.4958,-2.5297,-2.5033,-2.5128,-2.585,-2.5754,-2.5865,-2.6151,-2.642,-2.6533,-2.6533,-2.6816,-2.6917,-2.6753,-2.7118,-2.7092,-2.6753,-2.6753,-2.6972,-2.7297,-2.7504,-2.8358,-2.9687,-2.9687,-2.9926,-3.0318,-2.9984,-3.0329,-3.1043,-3.06,-3.0624,-3.0806,-3.0417,-3.0283,-3.0238,-2.9998,-2.9759,-2.9579,-2.9579,-2.9729,-2.9968,-3.0208,-3.0283,-3.0283,-3.0283,-3.0283,-3.0223,-2.9968,-2.9909,-2.9849,-2.9624,-2.9579,-2.9714,-3.0193,-3.0283,-3.0328,-3.0477,-3.0253,-3.0345,-3.1034,-3.0921,-3.0938,-3.1452,-3.1482,-3.127,-3.0567,-2.9953,-2.931,-2.8667,-2.7979,-2.7625,-2.7625,-2.7625,-2.7866,-2.8507,-2.8572,-2.8904,-2.9748,-3.0151,-3.0538,0.0,0.0,0.0,0.0,0.0,0.0,0.0,0.0,0.0,0.0,0.0,0.0,0.0,0.0,0.0,0.0,0.0,0.0,0.0,0.0,0.0,0.0,0.0,0.0,0.0,0.0,-2.536,-2.6088,-2.6163,-2.6239,-2.6508,-2.5799,-2.5523,-2.5862,-2.5887,-2.605,-2.6508,-2.6533,-2.6533,-2.6533,-2.6533,-2.6533,-2.6533,-2.6816,-2.6816,-2.6533,-2.6829,-2.6816,-2.6533,-2.6782,-2.7229,-2.7736,-2.7986,-2.8939,-3.0254,-3.0038,-3.0447,-3.1212,-3.0616,-3.0689,-3.1106,-3.0432,-3.0193,-3.0133,-2.9729,-2.943,-2.925,-2.925,-2.925,-2.925,-2.925,-2.94,-2.9579,-2.9579,-2.9579,-2.9579,-2.9579,-2.9579,-2.952,-2.931,-2.925,-2.919,-2.8951,-2.8906,-2.8906,-2.8906,-2.943,-3.0028,-3.0432,-3.0702,-3.1076,-3.1764,-3.1616,-3.1556,-3.1839,-3.1616,-3.127,-3.0567,-2.9953,-2.931,-2.8667,-2.8173,-2.7814,-2.7625,-2.8022,-2.832,-2.8479,-2.8701,-2.9217,-3.0048,-3.0223,-3.074,-3.1639,0.0,0.0,0.0,0.0,0.0,0.0,0.0,0.0,0.0,0.0,0.0,0.0,0.0,0.0,0.0,0.0,0.0,0.0,0.0,0.0,0.0,0.0,0.0,-2.5236,-2.5409,-2.5611,-2.5649,-2.6603,-2.7055,-2.6596,-2.6533,-2.6533,-2.6533,-2.6533,-2.6533,-2.6533,-2.6533,-2.6533,-2.6533,-2.6533,-2.6533,-2.6533,-2.6533,-2.6533,-2.6533,-2.6533,-2.6533,-2.6589,-2.7351,-2.7736,-2.7868,-2.8684,-2.9504,-3.0286,-2.9577,-3.0178,-3.1377,-3.0746,-3.0492,-3.0417,-2.9789,-2.9535,-2.952,-2.952,-2.9101,-2.8562,-2.8562,-2.8562,-2.8562,-2.8562,-2.9011,-2.952,-2.952,-2.952,-2.952,-2.952,-2.952,-2.9355,-2.8727,-2.8562,-2.8382,-2.7724,-2.7625,-2.7625,-2.7625,-2.9146,-3.0477,-3.0477,-3.1046,-3.1719,-3.2377,-3.1943,0.0,-3.2407,-3.1928,-3.1285,-3.0612,-2.9983,-2.934,-2.8682,-2.8607,-2.8308,-2.767,-2.8801,-2.9193,-2.859,-2.9134,-2.9451,-2.9451,-3.0054,-3.0983,-3.2313,0.0,0.0,0.0,0.0,0.0,0.0,0.0,0.0,0.0,0.0,0.0,0.0,0.0,0.0,0.0,0.0,0.0,0.0,0.0,0.0,0.0,0.0,-2.6962,-2.6567,-2.5947,-2.59,-2.6716,-2.6741,-2.6779,-2.703,-2.6703,-2.6533,-2.6533,-2.6533,-2.6533,-2.6533,-2.6533,-2.6533,-2.6533,-2.6533,-2.6533,-2.6533,-2.6533,-2.6533,-2.6533,-2.6533,-2.6782,-2.7351,-2.7604,-2.8363,-2.9566,-2.9827,-3.0389,-3.1102,-3.0436,-3.0443,-3.0717,-3.0088,-3.0103,-3.0372,-2.928,-2.8547,-2.8128,-2.8128,-2.8008,-2.7859,-2.7859,-2.7859,-2.7859,-2.7859,-2.7979,-2.8128,-2.8128,-2.8128,-2.8128,-2.8128,-2.8128,-2.8083,-2.7904,-2.7859,-2.7799,-2.767,-2.7625,-2.7625,-2.7625,-2.8801,-2.9834,-2.9834,-3.0357,-3.1016,-3.1704,-3.1644,-3.1541,-3.1779,-3.1586,-3.1407,-3.127,-3.0657,-2.9998,-2.937,-2.8876,-2.8499,-2.8284,-2.8601,-2.9061,-2.9777,-2.9978,-3.0251,-3.0699,-3.1398,-3.1931,0.0,0.0,0.0,0.0,0.0,0.0,0.0,0.0,0.0,0.0,0.0,0.0,0.0,0.0,0.0,0.0,0.0,0.0,0.0,0.0,0.0,0.0,-2.8184,-2.7882,-2.7945,-2.6943,-2.6314,-2.6898,-2.6653,-2.6647,-2.6904,-2.6653,-2.6533,-2.6533,-2.6533,-2.6533,-2.6533,-2.6533,-2.6533,-2.6533,-2.6533,-2.6533,-2.6533,-2.6533,-2.6533,-2.6533,-2.6533,-2.6905,-2.7736,-2.8051,-2.9002,-3.0329,-3.0644,-3.1087,-3.1422,-3.0791,-3.0507,-3.0417,0.0,0.0,0.0,0.0,-2.7919,-2.7625,-2.7625,-2.7625,-2.7625,-2.7625,-2.7625,-2.7625,-2.7625,-2.7625,-2.7625,-2.7625,-2.7625,-2.7625,-2.7625,-2.7625,-2.7625,-2.7625,-2.7625,-2.7625,-2.7625,-2.7625,-2.7625,-2.7625,-2.8652,0.0,-2.9579,-3.0328,-3.1165,-3.1839,-3.1704,-3.1571,-3.1855,-3.1646,-3.1482,-3.1482,-3.0687,-3.0063,-3.0008,-2.9355,0.0,0.0,0.0,-2.998,-3.0675,-3.0658,0.0,0.0,0.0,-3.2577,-3.3203,-3.4066,0.0,0.0,-3.5419,-3.5622,0.0,0.0,0.0,0.0,0.0,0.0,0.0,0.0,0.0,0.0,0.0,0.0,0.0,0.0,0.0,0.0,-2.8609,-2.8771,-2.9347,-2.8146,-2.7025,-2.665,-2.6471,-2.6458,-2.6521,-2.6471,-2.6458,-2.6521,-2.6533,-2.6533,-2.6533,0.0,0.0,0.0,0.0,-2.6533,-2.6533,-2.6533,-2.6533,-2.6533,-2.6589,-2.704,-2.7855,-2.8748,-2.9628,-3.0464,-3.1219,-3.1482,-3.1422,-3.0717,-3.0313,-3.0073,-2.9101,-2.8622,-2.8412,-2.7874,-2.7634,-2.7625,-2.7625,0.0,0.0,-2.7625,-2.7625,-2.7625,-2.7625,-2.7625,-2.7625,-2.7625,-2.7625,-2.7625,-2.7625,-2.7625,-2.7625,-2.7675,-2.771,-2.771,-2.781,-2.7795,-2.776,-2.771,-2.8809,-2.9672,-2.9633,-3.0672,-3.1676,-3.2317,-3.1898,-3.1734,-3.2435,-3.1925,-3.1519,-3.1577,-3.0518,0.0,-3.0432,-2.9925,-2.9563,-2.9499,-3.0626,-3.124,-3.1224,-3.119,-3.1495,-3.2138,-3.2239,-3.2916,-3.4235,-3.4404,-3.4844,-3.5504,-3.5588,-3.5622,0.0,0.0,0.0,0.0,0.0,0.0,0.0,0.0,0.0,0.0,0.0,0.0,0.0,0.0,0.0,-2.928,-2.9799,-3.007,-3.0115,-2.9397,-2.851,-2.7604,-2.6496,-2.595,-2.6483,-2.6038,-2.5963,-2.6496,-2.6533,-2.6533,-2.6533,-2.6533,-2.6533,-2.6533,-2.6533,-2.6533,-2.6533,-2.6533,-2.6533,-2.6533,-2.7162,0.0,-2.8812,-2.9628,-3.0524,-3.1278,-3.1409,-3.1482,-3.1377,-3.0253,-2.9116,-2.8218,-2.9071,-2.8727,-2.7814,-2.8248,-2.8053,-2.7625,-2.7625,-2.7625,-2.7625,-2.7625,-2.7625,-2.7625,-2.7625,-2.7625,0.0,-2.7625,-2.7625,-2.7625,-2.7625,-2.7625,-2.771,-2.8189,-2.8334,-2.8463,-2.895,-2.9042,-2.8904,-2.8415,-2.9427,-3.0158,-2.9672,-3.0672,-3.1511,-3.1646,-3.1556,-3.1727,-3.2511,-3.1897,-3.1665,-3.2258,-3.1568,-3.0891,-3.0482,-3.0291,-3.0204,-3.0113,-3.0833,-3.1207,-3.119,-3.119,-3.1258,-3.1393,-3.1985,-3.2466,-3.2713,-3.3914,-3.4573,-3.4726,-3.5334,-3.5622,0.0,0.0,0.0,0.0,0.0,0.0,0.0,0.0,0.0,0.0,0.0,-2.805,0.0,0.0,-2.8412,-2.9415,-2.9564,-2.9665,-2.991,-2.9566,-2.8824,-2.7455,-2.6648,-2.6151,-2.6068,-2.6025,-2.6151,-2.6508,-2.6533,-2.6533,-2.6533,-2.6533,-2.6533,-2.6533,-2.6533,-2.6533,-2.6533,-2.7255,-2.7446,-2.7095,-2.8279,-2.91,-2.969,-3.0072,-3.0718,-3.1482,-3.1482,-3.1482,-3.1377,-3.0118,-2.919,-2.8607,-2.8951,-2.8472,-2.767,-2.7964,-2.7874,-2.7565,-2.72,-2.7305,-2.7515,-2.7186,-2.7355,-2.7625,-2.7625,-2.7625,-2.7625,-2.7625,-2.7625,-2.7625,-2.7625,-2.781,-2.814,-2.8431,-2.8732,-2.9042,-2.9316,-2.9406,-2.9316,-2.8996,-3.0068,-3.0914,-3.0627,-3.1341,-3.2037,-3.2059,-3.2367,-3.2664,-3.3039,-3.2426,-3.2088,-3.2458,-3.1517,-3.0877,-3.0846,-3.0817,-3.0773,-3.0757,-3.1015,-3.119,-3.119,-3.119,-3.136,-3.1732,-3.2087,-3.2459,-3.2848,-3.3592,-3.4134,-3.4506,-3.4878,-3.5267,0.0,0.0,0.0,0.0,0.0,0.0,0.0,0.0,-2.9361,-2.8654,-2.8511,-2.8504,-2.8396,-2.8053,-2.8128,-2.922,-2.9056,-2.8981,-2.9505,-2.9427,-2.8838,-2.7371,-2.69,-2.6505,-2.5816,-2.6088,-2.6339,-2.6521,-2.6533,-2.6533,-2.6533,-2.6533,-2.6533,-2.6533,-2.6533,-2.6589,-2.6714,-2.7941,-2.8319,-2.7999,-2.9357,-3.0108,-3.0329,-3.045,-3.0896,-3.1482,-3.1482,-3.1465,-3.127,-3.0342,-2.9744,-2.934,-2.8951,-2.8293,-2.764,-2.7775,-2.7679,-2.755,-2.6961,-2.7036,-2.734,-2.6767,-2.6946,-2.743,-2.743,-2.752,-2.7625,-2.7625,-2.766,-2.776,-2.776,-2.814,-2.8559,-2.8779,-2.9134,-2.9451,-2.9717,-2.9761,-2.9717,-2.9585,-3.0599,-3.1453,-3.1502,-3.2176,-3.2697,-3.2786,-3.3124,-3.3441,-3.3542,-3.2932,-3.2465,-3.2466,-3.1334,-3.0754,-3.1252,-3.1213,-3.119,-3.119,-3.119,-3.119,-3.119,-3.119,-3.1461,-3.2053,-3.211,-3.2374,-3.2983,-3.3119,-3.3491,-3.4066,-3.4218,-3.4759,-2.8603,-2.8271,-2.8195,-2.8851,-2.9593,-3.0146,0.0,0.0,-2.9892,-2.8732,-2.8511,-2.835,-2.7816,-2.8128,-2.8532,-2.8682,-2.9146,-2.949,-2.9564,-2.9585,-2.9256,-2.8326,-2.7441,-2.6765,-2.6451,-2.5963,-2.59,-2.6496,-2.6533,-2.6533,-2.6533,-2.6533,-2.6533,-2.6533,-2.6533,-2.685,-2.7537,-2.7736,-2.8183,-2.8876,-2.9822,-3.0266,-3.0329,-3.1029,-3.1409,-3.1482,-3.1482,-3.118,-3.0657,-3.112,-3.0283,-2.8757,-2.9265,-2.8697,-2.7685,-2.8263,-2.8098,-2.761,-2.7535,-2.7126,-2.6692,-2.6617,-2.6632,-2.6692,-2.6692,-2.7111,-2.7625,-2.7625,-2.8008,-2.8415,-2.8415,-2.8463,-2.8779,-2.9848,-2.9717,-2.9673,-3.0757,-3.1015,-3.0838,-3.0293,-3.0806,-3.1365,-3.147,-3.256,-3.3436,-3.3486,-3.2969,-3.2819,-3.3448,-3.2889,-3.238,-3.2328,-3.1621,-3.1133,-3.123,-3.1202,-3.119,-3.119,-3.119,-3.119,-3.119,-3.119,-3.1241,-3.1309,-3.1309,-3.136,-3.1444,-3.2087,-3.2442,-3.2544,-3.322,-3.4286,-2.9382,-2.9105,0.0,0.0,-3.033,-3.0723,-3.0811,-3.0821,-3.0559,-2.9717,-2.954,-2.9398,-2.8793,-2.8595,-2.8571,0.0,-2.8487,-2.8464,-2.8464,-2.8757,-2.8699,-2.7847,-2.8104,-2.7892,-2.683,-2.6362,-2.6201,-2.6508,-2.6533,-2.6533,-2.6533,-2.6533,-2.6714,-2.7162,-2.7229,-2.7604,-2.8427,-2.9334,-2.9715,-2.9766,-3.1023,-3.1397,-3.1029,-3.1351,-3.1482,-3.1482,-3.1482,-3.1317,-3.1061,-3.0597,-2.9924,-2.9116,-2.8607,-2.8068,-2.7655,-2.7889,-2.7814,-2.7515,-2.7126,-2.7066,-2.7096,-2.6722,-2.6841,-2.7156,-2.7156,-2.74,-2.7625,-2.7625,-2.8042,-2.8511,-2.8511,-2.9012,-2.9673,-3.0166,-3.0393,-3.0576,-3.1095,-3.119,-3.1112,-3.0878,-3.1424,-3.2059,-3.2514,-3.2723,-3.3084,-3.3988,-3.4223,-3.425,-3.4108,-3.3439,-3.2638,-3.1765,-3.1376,-3.119,-3.119,-3.119,-3.119,-3.119,-3.119,-3.119,-3.119,-3.119,-3.119,-3.119,-3.119,-3.119,-3.119,-3.1495,-3.1867,-3.233,-3.2611,-3.3322,-2.955,0.0,0.0,-3.0367,-3.0917,-3.1389,-3.1389,-3.1291,-3.1015,-3.0435,-3.0293,-3.0141,-2.9564,-2.8933,-2.8537,-2.8576,-2.7891,-2.7415,-2.7595,-2.8008,-2.8218,-2.7977,-2.877,-2.8842,-2.7588,-2.7116,-2.6714,-2.6521,-2.6533,-2.6533,-2.6533,-2.6533,-2.6837,-2.767,-2.767,-2.8247,-2.938,-3.044,-3.0823,-3.0644,-3.1501,-3.1704,-3.124,-3.1076,-3.1091,-3.124,-3.1076,-3.1001,-3.0926,-2.9968,-2.9475,-2.922,-2.8233,-2.7739,-2.7625,-2.7625,-2.7625,-2.755,-2.7021,-2.703,-2.7206,-2.6952,-2.7139,-2.7557,-2.7789,-2.7972,-2.8076,-2.8076,-2.8543,-2.9012,-2.9012,-2.9629,-3.0335,-3.0518,-3.074,-3.1015,-3.1151,-3.119,-3.119,-3.119,-3.1613,-3.2222,-3.2966,-3.2645,-3.2713,-3.3998,-3.4658,-3.4742,-3.3981,-3.3254,-3.2374,-3.1309,-3.119,-3.119,-3.119,-3.119,-3.119,-3.119,-3.119,-3.119,-3.119,-3.119,-3.119,-3.119,-3.119,-3.119,-3.119,-3.119,-3.1461,-3.1985,-3.1985,-3.2273,0.0,0.0,-3.0185,-3.0203,-3.1007,-3.1789,-3.1789,-3.147,-3.1015,-3.0435,-3.0293,-3.0123,-2.9528,-2.8935,-2.8527,-2.8494,-2.7476,-2.6841,-2.7535,-2.764,-2.8083,-2.94,-2.9417,-2.9192,0.0,-2.8168,-2.7351,-2.6589,-2.6533,-2.6533,-2.6533,-2.6533,-2.6837,-2.767,-2.767,-2.8492,-3.0269,-3.0283,-3.0718,-3.1467,-3.0881,-3.0552,-3.0507,-2.9909,-2.9968,-3.0507,-2.9909,-2.9639,-2.9639,-2.9594,-2.9205,-2.8622,-2.8592,-2.8158,-2.7625,-2.7625,-2.7625,-2.7625,-2.7595,-2.7079,-2.6547,-2.7256,-2.741,-2.7428,-2.8142,-2.8846,-2.9361,-2.9361,-2.9761,-3.0251,-3.0251,-3.0251,-3.0435,-3.1015,-3.074,-3.0477,-3.1055,-3.119,-3.119,-3.119,-3.1207,-3.1461,-3.2188,-3.229,-3.2544,-3.3322,-3.3457,-3.3203,-3.2442,-3.1715,-3.1241,-3.119,-3.119,-3.119,-3.119,-3.119,-3.119,-3.119,-3.119,-3.119,-3.119,-3.119,-3.119,-3.119,-3.119,-3.119,-3.119,-3.119,-3.1207,-3.1224,-3.1224,-3.1241,0.0,0.0,-2.9804,-2.9804,-3.0043,-3.0404,-3.0871,-3.0734,-3.056,-3.0834,-3.0878,-3.0699,-3.0123,-2.9496,-2.8966,-2.8559,-2.7811,-2.7171,-2.6946,-2.7305,-2.7575,-2.759,-2.8738,0.0,0.0,0.0,0.0,-2.6589,-2.6533,-2.6714,-2.7297,-2.7284,-2.7499,-2.8048,-2.8921,-2.9492,-2.968,-3.0617,-3.0997,-3.0851,-3.0193,-2.9894,-2.9879,-2.9669,-2.9699,-2.9879,-2.9669,-2.9579,-2.9549,-2.9116,-2.8801,-2.8562,-2.8098,-2.7784,-2.7625,-2.7625,-2.7625,-2.7625,-2.7625,-2.7425,-2.7306,-2.7951,-2.814,-2.8213,-2.8885,-2.9214,-2.9406,-2.9406,-2.9848,-3.0293,-3.0293,-3.0617,-3.0958,-3.1151,-3.1055,-3.0958,-3.1151,-3.119,-3.119,-3.119,-3.119,-3.1427,-3.2154,-3.1884,-3.1647,-3.1901,-3.2357,-3.256,-3.2307,-3.1647,-3.119,-3.119,-3.119,-3.119,-3.119,-3.119,-3.119,-3.119,-3.119,-3.119,-3.119,-3.119,-3.119,-3.119,-3.119,-3.119,-3.119,-3.119,-3.119,-3.119,-3.119,-3.1351,0.0,-2.9418,-2.9805,-2.9805,-2.9898,-3.0173,-3.0929,-3.0803,-3.0604,-3.0936,-3.1001,-3.0764,-2.9989,-2.9566,-2.9111,-2.8542,-2.795,-2.7421,-2.701,-2.7096,-2.7245,-2.7305,-2.8442,-2.9114,0.0,0.0,0.0,-2.6947,-2.6658,-2.6625,-2.6919,-2.7223,-2.74,-2.7435,-2.8828,-2.939,-2.9059,-3.045,-3.0836,-3.0163,-2.9535,-2.922,-2.922,-2.8966,-2.8996,-2.922,-2.8966,-2.8861,-2.8831,-2.8412,-2.8233,-2.8188,-2.779,-2.7625,-2.7625,-2.7625,-2.7625,-2.7625,-2.7625,-2.756,-2.7674,-2.856,-2.8793,-2.8891,-2.9767,-3.0021,-3.0021,-3.0021,-3.0293,-3.0617,-3.0617,-3.0918,-3.119,-3.119,-3.119,-3.119,-3.119,-3.119,-3.119,-3.119,-3.141,-3.1732,-3.2205,-3.1901,-3.1495,-3.1241,-3.1596,-3.1901,-3.1901,-3.1478,-3.119,-3.119,-3.119,-3.119,-3.119,-3.119,-3.119,-3.119,-3.119,-3.119,-3.119,-3.119,-3.119,-3.119,-3.119,-3.119,-3.119,-3.119,-3.119,-3.119,-3.1351,-3.1528,-2.9017,-2.9591,-3.0184,-3.016,-3.0436,-3.09,-3.1693,-3.1523,-3.1064,-3.0733,-3.0647,-3.0317,0.0,0.0,-2.8985,-2.8426,-2.7897,-2.7534,-2.748,-2.6961,-2.7036,0.0,0.0,0.0,0.0,0.0,0.0,-2.7644,0.0,-2.6282,-2.574,-2.6349,-2.6512,-2.6144,-2.7502,-2.8297,-2.8352,-2.9725,-3.0118,-2.952,-2.8861,-2.8547,-2.8532,-2.7874,-2.7934,-2.8502,-2.7859,-2.7625,-2.7625,-2.7625,-2.7625,-2.7625,-2.7625,-2.7625,-2.7625,-2.7625,-2.7625,-2.7625,-2.7625,-2.7534,-2.7643,-2.8958,-2.9292,-2.9468,-3.0796,-3.119,-3.119,-3.119,-3.119,-3.119,-3.119,-3.119,-3.119,-3.119,-3.119,-3.1207,-3.1241,-3.1258,-3.1258,-3.1309,-3.1867,-3.2341,-3.2341,-3.2307,-3.2036,-3.136,-3.1207,-3.119,-3.119,-3.119,-3.119,-3.119,-3.119,-3.119,-3.119,-3.119,-3.119,-3.119,-3.119,-3.119,-3.119,-3.119,-3.119,-3.119,-3.119,-3.119,-3.119,-3.123,-3.123,-3.123,-3.164,-3.1861,-2.9289,-2.9565,-2.9794,-2.9649,-2.9457,-2.946,-3.0071,-2.9886,-2.9713,-3.0138,-3.0,-2.9903,0.0,0.0,0.0,-2.9143,-2.8652,0.0,-2.6309,-2.6378,0.0,0.0,0.0,-2.7691,-2.7256,-2.7311,0.0,0.0,-2.6729,-2.6718,-2.7129,-2.6973,-2.684,-2.6922,-2.7357,-2.7598,-2.7732,-2.8645,-2.9011,-2.8846,-2.8158,-2.7829,-2.7829,-2.77,-2.7715,-2.7829,-2.7649,-2.7625,-2.7625,-2.7625,-2.7625,-2.7625,-2.7625,-2.7625,-2.7625,-2.7625,-2.7625,-2.7625,-2.7625,-2.7555,-2.7765,-2.8979,-2.9367,-2.9562,-3.0811,-3.119,-3.119,-3.119,-3.119,-3.119,-3.119,-3.119,-3.119,-3.119,-3.119,-3.1343,-3.1884,-3.2002,-3.2171,-3.273,-3.2983,-3.3119,-3.3119,-3.2645,-3.2222,-3.2036,-3.1546,-3.119,-3.119,-3.119,-3.119,-3.119,-3.119,-3.119,-3.119,-3.119,-3.119,-3.119,-3.119,-3.119,-3.119,-3.119,-3.119,-3.119,-3.119,-3.119,-3.119,-3.1507,-3.166,-3.166,-3.2109,-3.2517,-2.9225,-2.9312,-2.9375,-2.9267,-2.9056,-2.9057,-2.9701,-2.9682,-2.9691,-3.0326,-3.0106,0.0,0.0,0.0,0.0,0.0,0.0,0.0,-2.6311,-2.6363,-2.6318,0.0,-2.6194,0.0,-2.6924,-2.6521,-2.6351,0.0,-2.6063,-2.5924,-2.6426,-2.6254,-2.5911,-2.5435,-2.6089,-2.6821,-2.7501,-2.7965,-2.8308,-2.8592,-2.7904,-2.7625,-2.7625,-2.7625,-2.7625,-2.7625,-2.7625,-2.7625,-2.7625,-2.7625,-2.7625,-2.7625,-2.7625,-2.7625,-2.7625,-2.7625,-2.7625,-2.7625,-2.791,-2.7993,-2.814,-2.9088,-2.9585,-2.9995,-3.0918,-3.119,-3.119,-3.119,-3.119,-3.119,-3.119,-3.119,-3.119,-3.119,-3.119,-3.1393,-3.2121,-3.2313,-3.2594,-3.3677,-3.388,-3.388,-3.388,-3.3525,-3.3034,-3.2374,-3.1935,-3.1562,-3.1241,-3.119,-3.119,-3.119,-3.119,-3.119,-3.119,-3.119,-3.119,-3.119,-3.119,-3.119,-3.119,-3.119,-3.119,-3.119,-3.1389,-3.147,-3.147,-3.1897,-3.2109,-3.2127,-3.2583,-3.2952,-2.9044,-2.9067,-2.9089,-2.9044,-2.9044,-2.9246,-2.9879,-3.0118,-3.0295,-3.0631,0.0,0.0,-2.9655,0.0,-2.956,-2.8378,0.0,-2.8618,-2.672,-2.6542,-2.6557,-2.6467,-2.5892,-2.5911,-2.6963,-2.5843,-2.5222,-2.5801,-2.5052,-2.4657,-2.4808,-2.4957,-2.4438,-2.315,-2.4711,-2.6104,-2.7207,-2.7469,-2.7874,-2.8457,-2.7859,-2.7625,-2.7625,-2.7625,-2.7625,-2.7625,-2.7625,-2.7625,-2.7625,-2.7625,-2.7625,-2.7625,-2.7625,-2.7625,-2.7625,-2.7625,-2.766,-2.781,-2.8319,-2.8606,-2.8826,-2.9361,-2.9848,-3.0435,-3.1015,-3.119,-3.119,-3.119,-3.119,-3.119,-3.119,-3.1258,-3.1309,-3.1207,-3.1258,-3.1546,-3.2273,-3.2577,-3.3102,-3.4387,-3.4641,-3.4641,-3.4641,-3.4556,-3.4015,-3.2628,-3.2341,-3.2019,-3.1275,-3.119,-3.119,-3.119,-3.119,-3.119,-3.119,-3.119,-3.119,-3.119,-3.119,-3.119,-3.119,-3.1252,-3.1291,-3.1291,-3.166,-3.188,-3.188,-3.2366,-3.2636,-3.2776,-3.3237,-3.349,-2.933,-2.9455,-2.9551,-2.9373,-2.933,-2.9304,-2.9228,-2.9732,0.0,0.0,0.0,-3.0043,-2.9589,-2.9349,0.0,-2.7653,0.0,0.0,0.0,0.0,-2.6393,0.0,0.0,0.0,0.0,0.0,0.0,0.0,-2.3752,-2.3841,-2.477,-2.4848,-2.4318,-2.3163,-2.5161,-2.6111,-2.5772,-2.6974,-2.7685,-2.779,-2.7685,-2.7625,-2.7625,-2.7625,-2.7625,-2.7625,-2.7625,-2.7625,-2.7625,-2.7625,-2.7625,-2.7625,-2.7625,-2.7625,-2.7625,-2.7625,-2.791,-2.8383,-2.8463,-2.9134,-2.9995,-3.0123,-3.0208,-3.0435,-3.1015,-3.119,-3.119,-3.119,-3.119,-3.119,-3.119,-3.1647,-3.1935,-3.1326,-3.1647,-3.229,-3.3051,-3.4167,-3.5115,-3.5368,-3.5419,-3.5419,-3.5419,-3.4912,-3.4201,-3.3339,-3.2679,-3.2019,-3.1275,-3.119,-3.119,-3.119,-3.119,-3.119,-3.119,-3.119,-3.119,-3.119,-3.119,-3.119,-3.119,-3.1507,-3.1696,-3.1696,-3.2144,-3.2384,-3.2384,-3.284,-3.3417,-3.4065,-3.4477,-3.5052,-2.9248,-2.9585,-2.9834,-2.9336,-2.9034,-2.8902,-2.8975,0.0,0.0,0.0,0.0,-2.9568,-2.9535,0.0,0.0,0.0,0.0,0.0,0.0,0.0,0.0,0.0,0.0,0.0,0.0,0.0,0.0,-2.3527,-2.3565,-2.3816,-2.4368,-2.4104,-2.3629,-2.309,-2.4937,-2.5728,-2.5398,-2.6864,-2.7625,-2.7625,-2.7625,-2.7625,-2.7625,-2.7625,-2.7625,-2.7625,-2.7625,-2.7625,-2.7625,-2.7625,-2.7625,-2.7625,-2.7625,-2.7625,-2.7625,-2.7625,-2.7993,-2.8559,-2.8873,-2.954,-3.0351,-3.0658,-3.0781,-3.0838,-3.1112,-3.119,-3.1275,-3.1647,-3.1495,-3.1275,-3.1664,-3.1732,-3.1732,-3.1749,-3.2611,-3.3525,-3.3897,-3.4844,-3.5622,-3.5622,-3.5622,-3.5622,-3.5622,-3.4996,-3.4252,-3.3508,-3.2763,-3.2019,-3.1275,-3.119,-3.119,-3.119,-3.119,-3.119,-3.119,-3.119,-3.119,-3.119,-3.119,-3.1291,-3.1507,-3.1696,-3.1915,-3.2161,-3.2616,-3.284,-3.289,-3.3719,-3.436,-3.4743,-3.5392,-3.5899,-2.9094,-2.946,-2.9787,-2.9168,-2.8692,-2.8446,-2.87,-2.871,0.0,0.0,0.0,-2.9127,-2.9075,0.0,0.0,0.0,0.0,0.0,0.0,0.0,0.0,0.0,0.0,0.0,0.0,0.0,0.0,-2.3078,-2.3552,-2.3866,-2.3991,-2.3452,-2.3078,-2.3078,-2.461,-2.5398,-2.5398,-2.6864,-2.7625,-2.7625,-2.7625,-2.7625,-2.7625,-2.7625,-2.7625,-2.7625,-2.7625,-2.7625,-2.7625,-2.7625,-2.7625,-2.7625,-2.7625,-2.7625,-2.7625,-2.7625,-2.8091,-2.8779,-2.9225,-2.9892,-3.0559,-3.1055,-3.119,-3.119,-3.119,-3.1309,-3.1546,-3.2121,-3.1985,-3.1799,-3.2374,-3.2205,-3.2036,-3.2611,-3.3643,-3.4489,-3.4489,-3.5081,-3.5622,-3.5622,-3.5622,-3.5571,-3.5402,-3.4878,-3.4201,-3.3305,-3.2662,-3.2019,-3.1275,-3.119,-3.119,-3.119,-3.119,-3.119,-3.119,-3.119,-3.123,-3.1312,-3.1312,-3.1507,-3.1915,-3.2057,-3.2264,-3.2648,-3.3105,-3.3422,-3.3604,-3.4548,-3.5174,-3.5569,-3.6248,-3.6652,-2.9,-2.9065,-2.91,-2.9029,-2.8702,-2.8342,-2.8047,0.0,0.0,0.0,-2.9064,-2.9076,-2.7581,-2.7288,0.0,0.0,0.0,0.0,0.0,0.0,0.0,0.0,0.0,0.0,0.0,0.0,0.0,-2.3078,-2.3128,-2.3439,-2.3966,-2.3452,-2.3078,-2.3078,-2.461,-2.5398,-2.5398,-2.6864,-2.7625,-2.7625,-2.7625,-2.7625,-2.7625,-2.7625,-2.7625,-2.7625,-2.7625,-2.7625,-2.7625,-2.7625,-2.7625,-2.7625,-2.7625,-2.7625,-2.7625,-2.7625,-2.8304,-2.9316,-2.9361,-3.0166,-3.1112,-3.119,-3.119,-3.119,-3.119,-3.1664,-3.2188,-3.2256,-3.273,-3.322,-3.3288,-3.3744,-3.4201,-3.4269,-3.4387,-3.4489,-3.4489,-3.5081,-3.5622,-3.5622,-3.5622,-3.5402,-3.4726,-3.4539,-3.4015,-3.2594,-3.2324,-3.2019,-3.1275,-3.119,-3.119,-3.119,-3.119,-3.119,-3.119,-3.119,-3.1351,-3.1716,-3.1752,-3.1968,-3.2417,-3.284,-3.3075,-3.3136,-3.355,-3.4101,-3.4834,-3.4954,-3.5789,-3.7257,-3.7331,-3.7771,-2.85,-2.903,-2.9508,-2.8588,-2.8052,-2.7776,-2.7869,0.0,0.0,-2.7799,-2.7979,-2.7873,-2.6673,-2.6488,-2.631,0.0,0.0,0.0,0.0,0.0,0.0,0.0,0.0,0.0,0.0,0.0,0.0,-2.2636,-2.2949,-2.3178,-2.3464,-2.3203,-2.2927,-2.2648,-2.3979,-2.4774,-2.4832,-2.6242,-2.7152,-2.7625,-2.7625,-2.7625,-2.7625,-2.7625,-2.7625,-2.7625,-2.7625,-2.7625,-2.7625,-2.7625,-2.7625,-2.7625,-2.7625,-2.7625,-2.7625,-2.7625,-2.8352,-2.9406,-2.9406,-3.0208,-3.119,-3.119,-3.119,-3.1275,-3.1715,-3.2053,-3.2517,-3.3355,-3.3508,-3.3508,-3.3947,-3.4269,-3.4489,-3.4489,-3.4844,-3.5165,-3.5165,-3.5402,-3.5622,-3.5622,-3.5622,-3.5385,-3.4624,-3.4134,-3.3491,-3.2483,-3.1901,-3.1512,-3.1241,-3.119,-3.119,-3.119,-3.119,-3.119,-3.119,-3.1411,-3.164,-3.1789,-3.2074,-3.2433,-3.2921,-3.3105,-3.3302,-3.355,-3.4183,-3.466,-3.499,-3.6009,-3.6835,-3.7526,-3.7991,-3.8395,-2.8363,-2.9015,-2.9575,-2.8508,-2.7931,-2.7612,0.0,0.0,0.0,-2.7245,-2.7367,-2.7249,-2.6271,-2.6198,-2.6099,0.0,0.0,0.0,0.0,0.0,0.0,0.0,0.0,0.0,0.0,0.0,-2.256,-2.256,-2.2912,-2.3078,-2.3078,-2.3078,-2.2962,-2.2573,-2.3677,-2.4366,-2.4464,-2.5827,-2.6774,-2.7306,-2.7509,-2.7625,-2.7625,-2.7625,-2.7625,-2.7625,-2.7625,-2.7625,-2.7625,-2.7625,-2.7625,-2.7625,-2.7625,-2.7625,-2.7625,-2.7625,-2.8352,-2.9406,-2.9406,-3.0208,-3.119,-3.119,-3.119,-3.1326,-3.207,-3.2442,-3.2882,-3.4134,-3.4286,-3.4184,-3.4692,-3.4827,-3.4827,-3.4827,-3.5233,-3.5622,-3.5622,-3.5622,-3.5622,-3.5622,-3.5622,-3.5385,-3.4624,-3.4066,-3.3474,-3.273,-3.1985,-3.1512,-3.1512,-3.1326,-3.119,-3.119,-3.119,-3.1269,-3.1389,-3.164,-3.1915,-3.2196,-3.2533,-3.2903,-3.3361,-3.3379,-3.3632,-3.4156,-3.4697,-3.5229,-3.5752,-3.6909,-3.7606,-3.7863,-3.8432,-3.8707,-2.8791,-2.9011,-2.9011,-2.8994,-2.8699,-2.8077,0.0,0.0,0.0,-2.711,-2.7531,-2.7745,-2.6611,-2.6406,-2.6199,-2.5589,0.0,0.0,0.0,0.0,0.0,0.0,0.0,0.0,0.0,0.0,-2.3065,-2.3065,-2.3078,0.0,-2.3078,-2.3078,-2.3078,-2.3065,-2.3884,-2.4292,-2.4279,-2.5783,-2.651,-2.651,-2.7255,-2.7625,-2.7625,-2.7625,-2.7625,-2.7625,-2.7625,-2.7625,-2.7625,-2.7625,-2.7625,-2.7625,-2.7625,-2.7625,-2.7625,-2.7625,-2.8352,-2.9406,-2.9406,-3.0208,-3.119,-3.119,-3.119,-3.1326,-3.207,-3.2797,-3.3541,-3.4286,-3.503,-3.5605,-3.5605,-3.5605,-3.5605,-3.5605,-3.556,-3.5622,-3.5622,-3.5622,-3.5622,-3.5622,-3.5622,-3.5385,-3.4624,-3.4489,-3.4235,-3.3508,-3.2747,-3.2313,-3.2313,-3.1647,-3.119,-3.119,-3.119,-3.1351,-3.1752,-3.1789,-3.2196,-3.3154,-3.3184,-3.3361,-3.378,-3.3788,-3.4174,-3.4954,-3.499,-3.5826,-3.7489,-3.7477,-3.79,-3.8689,-3.8707,-3.8707,-2.7008,-2.7308,-2.7648,-2.7467,-2.7095,-2.6669,-2.6312,0.0,0.0,-2.6493,-2.6993,-2.7269,-2.6554,-2.6377,-2.6062,-2.5136,0.0,0.0,0.0,0.0,0.0,0.0,0.0,0.0,0.0,0.0,-2.2975,-2.2598,-2.2865,-2.3078,-2.3078,-2.3078,-2.2902,-2.2585,-2.3162,-2.3573,-2.3672,-2.508,-2.5788,-2.5833,-2.7033,-2.7335,-2.6901,-2.6901,-2.7141,-2.7595,-2.7096,-2.7156,-2.7625,-2.7625,-2.7625,-2.7625,-2.7625,-2.786,-2.8238,-2.8238,-2.8996,-3.0038,-3.0038,-3.0518,-3.119,-3.119,-3.119,-3.1326,-3.207,-3.2442,-3.2797,-3.3541,-3.3931,-3.4117,-3.4117,-3.4117,-3.4117,-3.4117,-3.4489,-3.4844,-3.4844,-3.525,-3.5622,-3.5622,-3.5622,-3.5385,-3.4624,-3.4489,-3.4066,-3.2831,-3.2442,-3.2104,-3.1596,-3.1326,-3.1329,-3.1565,-3.1603,-3.166,-3.1789,-3.2092,-3.2533,-3.3154,-3.3975,-3.4475,-3.4605,-3.5202,-3.5624,-3.5881,-3.6431,-3.6964,-3.7507,-3.8046,-3.845,-3.8707,-3.8707,-3.8707,0.0,-2.6635,-2.6744,-2.6581,-2.6319,0.0,0.0,0.0,0.0,0.0,0.0,-2.7496,-2.698,-2.6637,-2.6128,-2.5134,0.0,0.0,0.0,0.0,0.0,0.0,0.0,0.0,0.0,-2.2924,-2.2927,-2.2648,-2.2937,-2.3078,-2.3078,-2.3078,-2.2975,-2.2636,-2.2962,-2.3128,-2.3282,-2.4705,-2.5298,-2.5105,-2.6813,-2.723,-2.6602,-2.6841,-2.7051,-2.7186,-2.7036,-2.7051,0.0,-2.752,-2.7625,-2.7625,-2.7625,-2.7944,-2.8511,-2.8511,-2.9271,-3.0293,-3.0293,-3.0699,-3.119,-3.119,-3.119,-3.1275,-3.1732,-3.2256,-3.2797,-3.3271,-3.3406,-3.3406,-3.3406,-3.3406,-3.3474,-3.3744,-3.4167,-3.4573,-3.4861,-3.5284,-3.5622,-3.5622,-3.5622,-3.547,-3.4996,-3.4912,-3.4506,-3.3305,-3.3119,-3.293,-3.2405,-3.2064,-3.2049,-3.2458,-3.2231,-3.2249,-3.2755,-3.306,-3.3557,-3.4316,-3.506,-3.5495,-3.5495,-3.6009,-3.6431,-3.6743,-3.7221,-3.7643,-3.7936,-3.8469,-3.8707,-3.8707,-3.8707,-3.8707,0.0,0.0,0.0,0.0,0.0,0.0,0.0,0.0,0.0,0.0,0.0,0.0,0.0,0.0,0.0,-2.5398,0.0,0.0,0.0,0.0,0.0,0.0,0.0,0.0,-2.2955,-2.3053,-2.3078,-2.3078,-2.3078,-2.3078,-2.3078,-2.3078,-2.3078,-2.3078,-2.3078,-2.3138,-2.3185,-2.4667,-2.508,-2.4512,-2.6594,-2.723,-2.6617,-2.7186,-2.7126,-2.6617,-2.7186,-2.7111,-2.6632,-2.7305,-2.7625,-2.761,-2.7675,-2.8042,-2.8559,-2.8606,-2.9361,-3.0335,-3.0335,-3.074,-3.119,-3.119,-3.119,-3.119,-3.119,-3.2154,-3.3254,-3.3254,-3.3288,-3.3322,-3.3322,-3.3372,-3.3575,-3.4252,-3.4455,-3.4692,-3.5385,-3.5588,-3.5622,-3.5622,-3.5622,-3.5622,-3.5622,-3.5622,-3.5396,-3.4607,-3.4575,-3.4499,-3.425,-3.3526,-3.3244,-3.3702,-3.3097,-3.3155,-3.4442,-3.4442,-3.4921,-3.6201,-3.634,-3.6376,-3.6376,-3.6431,-3.6817,-3.7551,-3.7569,-3.7936,-3.8707,-3.8707,-3.8707,-3.8707,-3.8707,-3.8707,0.0,0.0,0.0,0.0,0.0,0.0,0.0,0.0,0.0,0.0,0.0,0.0,0.0,0.0,0.0,0.0,0.0,0.0,0.0,0.0,0.0,0.0,0.0,0.0,-2.174,-2.2515,-2.3078,-2.3078,-2.3078,-2.3078,-2.3078,-2.3078,-2.3078,-2.3078,-2.3078,-2.3424,-2.4002,-2.4951,-2.5352,-2.526,-2.6864,-2.723,-2.6572,-2.6228,-2.6258,-2.6572,-2.6213,-2.6273,-2.6632,-2.7305,-2.7625,-2.7675,-2.8091,-2.8638,-2.9225,-2.9717,-3.0351,-3.0975,-3.0975,-3.1095,-3.119,-3.119,-3.119,-3.119,-3.119,-3.1427,-3.1715,-3.1715,-3.2121,-3.2544,-3.2544,-3.2983,-3.344,-3.3626,-3.4083,-3.4539,-3.4726,-3.5216,-3.5622,-3.5622,-3.5622,-3.5622,-3.5622,-3.5941,-3.5797,-3.4677,-3.5157,-3.5294,-3.4328,-3.3808,-3.3702,-3.4199,-3.4069,-3.446,-3.5754,-3.4939,-3.4921,-3.6201,-3.6872,-3.7202,-3.7202,-3.7808,-3.823,-3.8414,-3.8414,-3.8505,-3.8707,-3.8707,-3.8707,-3.8707,-3.8707,-3.8707,0.0,0.0,0.0,0.0,0.0,0.0,0.0,0.0,0.0,0.0,0.0,0.0,0.0,0.0,0.0,0.0,0.0,0.0,0.0,0.0,0.0,0.0,0.0,0.0,0.0,-2.2859,-2.3078,-2.3078,-2.3078,-2.3078,-2.3078,-2.3078,-2.3078,-2.3078,-2.2887,-2.3216,-2.4292,-2.5007,-2.5406,-2.5517,-2.6633,-2.6782,-2.6123,-2.5779,-2.563,-2.5689,-2.563,-2.5809,-2.6183,-2.6841,-2.7305,-2.766,-2.8271,-2.8873,-2.9496,-3.0081,-3.0699,-3.119,-3.119,-3.119,-3.119,-3.119,-3.119,-3.119,-3.119,-3.119,-3.119,-3.119,-3.1478,-3.185,-3.2188,-3.2594,-3.3068,-3.3744,-3.4201,-3.459,-3.4928,-3.5334,-3.5622,-3.5622,-3.5827,-3.5985,-3.5985,-3.6416,-3.6422,-3.5359,-3.5948,-3.6289,-3.5491,-3.5224,-3.5133,-3.5254,-3.5278,-3.5568,-3.6248,-3.6017,-3.6279,-3.7349,-3.7808,-3.8046,-3.8046,-3.8469,-3.8707,-3.8707,-3.8707,-3.8707,-3.8707,-3.8707,-3.8707,-3.8707,-3.8707,-3.8707,0.0,0.0,0.0,0.0,0.0,0.0,0.0,0.0,0.0,0.0,0.0,0.0,0.0,0.0,0.0,0.0,0.0,0.0,0.0,0.0,0.0,0.0,0.0,0.0,-2.3505,-2.3315,-2.3078,-2.3078,-2.3078,-2.3078,-2.3078,-2.3078,-2.3078,-2.3078,-2.2791,-2.318,-2.4319,-2.4831,-2.5331,-2.5669,-2.6224,-2.6153,-2.5615,-2.551,-2.5211,-2.4761,-2.527,-2.551,-2.5659,-2.6318,-2.6916,-2.7525,-2.8336,-2.8966,-2.9496,-3.0166,-3.074,-3.119,-3.119,-3.119,-3.119,-3.119,-3.119,-3.119,-3.119,-3.119,-3.119,-3.119,-3.1275,-3.1495,-3.2121,-3.2442,-3.2933,-3.4184,-3.4573,-3.4844,-3.5487,-3.5622,-3.5622,-3.5622,-3.6011,-3.6374,-3.6374,-3.6904,-3.7055,-3.6289,-3.6878,-3.7327,-3.7009,-3.6877,-3.6749,-3.6512,-3.6468,-3.6468,-3.6468,-3.7202,-3.7955,-3.867,-3.8707,-3.8707,-3.8707,-3.8707,-3.8707,-3.8707,-3.8707,-3.8707,-3.8707,-3.8707,-3.8707,-3.8707,-3.8707,-3.8707,-2.7625,0.0,0.0,0.0,0.0,0.0,0.0,0.0,0.0,0.0,0.0,0.0,0.0,0.0,0.0,0.0,0.0,0.0,0.0,0.0,0.0,0.0,0.0,-2.2554,-2.1741,-2.2528,-2.3078,-2.3078,-2.3078,-2.3078,-2.3078,-2.3078,-2.3078,-2.3078,-2.369,-2.412,-2.4381,-2.4061,-2.4759,-2.6426,-2.5971,-2.5704,-2.5585,-2.5031,-2.5031,-2.5435,-2.4971,-2.5091,-2.5659,-2.6318,-2.6647,-2.6928,-2.8591,-2.9316,-2.954,-3.0658,-3.1112,-3.119,-3.119,-3.119,-3.119,-3.119,-3.119,-3.119,-3.119,-3.119,-3.119,-3.119,-3.1647,-3.2178,-3.2297,-3.322,-3.4201,-3.4438,-3.4979,-3.547,-3.5588,-3.5622,-3.5622,-3.5622,-3.6011,-3.6374,-3.6374,-3.7155,-3.7613,-3.7088,-3.7857,-3.8314,-3.7783,-3.7517,-3.7363,-3.7312,-3.7312,-3.7312,-3.7312,-3.8046,-3.8579,-3.8689,-3.8707,-3.8707,-3.8707,-3.8707,-3.8707,-3.8707,-3.8707,-3.8707,-3.8707,-3.8707,-3.8707,-3.8707,-3.8707,-3.8707,-2.6428,-2.6428,0.0,0.0,0.0,0.0,0.0,0.0,0.0,0.0,0.0,0.0,0.0,0.0,0.0,0.0,0.0,0.0,0.0,0.0,0.0,0.0,0.0,-2.2531,-2.2714,-2.2921,-2.2952,-2.2711,-2.2915,-2.294,-2.2711,-2.2915,-2.3305,-2.3708,-2.3446,-2.3838,-2.4986,-2.3731,-2.411,-2.6048,-2.539,-2.5076,-2.5061,-2.4388,-2.4238,-2.4507,-2.4208,-2.4462,-2.5106,-2.5697,-2.6169,-2.6688,-2.8558,-2.9306,-2.9456,-3.0727,-3.119,-3.119,-3.119,-3.119,-3.119,-3.119,-3.119,-3.119,-3.119,-3.119,-3.119,-3.119,-3.1427,-3.1884,-3.2679,-3.3406,-3.4117,-3.4912,-3.5368,-3.5622,-3.5622,-3.5622,-3.5622,-3.5622,-3.6249,-3.6843,-3.6843,-3.7667,-3.8267,-3.805,-3.8401,-3.8627,-3.8382,-3.8217,-3.7973,-3.7562,-3.7881,-3.7955,-3.7533,-3.823,-3.8707,-3.8707,-3.8707,-3.8707,-3.8707,-3.8707,-3.8707,-3.8707,-3.8707,-3.8707,-3.8707,-3.8707,-3.8707,-3.8707,-3.8707,-3.8707,-2.5398,-2.5398,0.0,0.0,0.0,0.0,0.0,0.0,0.0,0.0,0.0,0.0,0.0,0.0,0.0,0.0,0.0,0.0,0.0,0.0,0.0,-2.2995,-2.2416,-2.2482,-2.3679,-2.3276,-2.2824,-2.2523,-2.2899,-2.289,-2.2523,-2.2912,-2.342,-2.4024,-2.3307,-2.3589,-2.502,-2.3786,-2.3891,-2.5375,-2.4702,-2.4388,-2.4373,-2.3834,-2.3684,-2.3834,-2.3784,-2.4143,-2.4836,-2.5373,-2.5882,-2.6514,-2.8241,-2.9138,-2.9546,-3.0544,-3.1055,-3.119,-3.119,-3.119,-3.119,-3.119,-3.119,-3.119,-3.119,-3.119,-3.119,-3.119,-3.119,-3.1461,-3.2594,-3.3017,-3.3474,-3.4793,-3.5233,-3.5402,-3.5588,-3.5622,-3.5622,-3.5783,-3.6563,-3.721,-3.7323,-3.8101,-3.8707,-3.8707,-3.8707,-3.8707,-3.8707,-3.8707,-3.8469,-3.7845,-3.8322,-3.845,-3.7826,-3.834,-3.8707,-3.8707,-3.8707,-3.8707,-3.8707,-3.8707,-3.8707,-3.8707,-3.8707,-3.8707,-3.8707,-3.8707,-3.8707,-3.8707,-3.8707,-3.8707,-2.5398,-2.5398,0.0,0.0,0.0,0.0,0.0,0.0,0.0,0.0,0.0,0.0,0.0,0.0,0.0,0.0,0.0,0.0,0.0,0.0,-2.3929,-2.3929,-2.2965,-2.2527,-2.3078,-2.2698,-2.2573,-2.3037,-2.3053,-2.3053,-2.3015,-2.3053,-2.317,-2.3362,-2.396,-2.4072,-2.3631,-2.4187,-2.4552,-2.4642,-2.3999,-2.367,-2.367,-2.3625,-2.3954,-2.4522,-2.4392,-2.4709,-2.5358,-2.5904,-2.6181,-2.6333,-2.7646,-2.8938,-3.007,-3.0121,-3.0615,-3.119,-3.119,-3.119,-3.119,-3.119,-3.119,-3.119,-3.119,-3.119,-3.119,-3.119,-3.119,-3.1207,-3.1326,-3.185,-3.256,-3.3372,-3.4083,-3.4776,-3.547,-3.5622,-3.5739,-3.6266,-3.6803,-3.7323,-3.7755,-3.83,-3.8707,-3.8707,-3.8707,-3.8707,-3.8707,-3.8707,-3.8689,-3.8615,-3.867,-3.8689,-3.8615,-3.867,-3.8707,-3.8707,-3.8707,-3.8707,-3.8707,-3.8707,-3.8707,-3.8707,-3.8707,-3.8707,-3.8707,-3.8707,-3.8707,-3.8707,-3.8707,-3.8707,-2.3989,-2.3989,0.0,0.0,0.0,0.0,0.0,0.0,0.0,0.0,0.0,0.0,0.0,0.0,0.0,0.0,0.0,0.0,0.0,-2.3904,-2.374,-2.3037,-2.2573,-2.2259,-2.2121,-2.192,-2.1744,-2.1606,-2.192,-2.1958,-2.1619,-2.2291,-2.2926,-2.3459,-2.3752,-2.396,-2.4187,-2.406,-2.3984,-2.3984,-2.3729,-2.3595,-2.3595,-2.3595,-2.3744,-2.3969,-2.4265,-2.4544,-2.4834,-2.5715,-2.6075,-2.6265,-2.7973,-2.9551,-3.0784,-3.0784,-3.0954,-3.119,-3.119,-3.119,-3.119,-3.119,-3.119,-3.119,-3.119,-3.119,-3.119,-3.119,-3.119,-3.141,-3.2324,-3.278,-3.3288,-3.4489,-3.4996,-3.5267,-3.5554,-3.5622,-3.5783,-3.6308,-3.6843,-3.736,-3.7825,-3.8332,-3.8707,-3.8707,-3.8707,-3.8707,-3.8707,-3.8707,-3.8707,-3.8707,-3.8707,-3.8707,-3.8707,-3.8707,-3.8707,-3.8707,-3.8707,-3.8707,-3.8707,-3.8707,-3.8707,-3.8707,-3.8707,-3.8707,-3.8707,-3.8707,-3.8964,-3.9441,-3.9441,-3.9717,-2.3078,-2.3078,0.0,0.0,0.0,0.0,0.0,0.0,0.0,0.0,0.0,0.0,0.0,0.0,0.0,0.0,0.0,0.0,-2.2962,-2.3213,-2.3113,-2.2171,-2.1895,-2.1707,-2.1506,-2.133,-2.1142,-2.0995,-2.128,-2.1428,-2.1253,-2.2005,-2.2764,-2.3565,-2.3524,-2.3731,-2.4253,-2.3834,-2.3595,-2.3595,-2.3595,-2.3595,-2.3595,-2.3595,-2.3595,-2.3638,-2.4348,-2.4657,-2.4736,-2.5799,-2.6227,-2.6378,-2.7988,-2.9381,-3.0531,-3.0768,-3.1004,-3.119,-3.119,-3.119,-3.119,-3.119,-3.119,-3.119,-3.119,-3.119,-3.119,-3.119,-3.136,-3.1816,-3.3085,-3.3237,-3.3423,-3.4912,-3.5267,-3.5362,-3.5776,-3.5854,-3.6054,-3.6746,-3.7173,-3.7578,-3.8065,-3.8465,-3.8799,-3.9038,-3.8854,-3.8799,-3.9056,-3.8854,-3.8707,-3.8707,-3.8707,-3.8707,-3.8707,-3.8707,-3.8707,-3.8707,-3.8707,-3.8707,-3.8707,-3.8707,-3.8707,-3.8707,-3.8707,-3.8707,-3.8707,-3.8946,-3.935,-3.99,-4.0157,-4.0579,-2.3078,0.0,0.0,0.0,0.0,0.0,0.0,0.0,0.0,0.0,0.0,0.0,0.0,0.0,0.0,0.0,0.0,-2.2924,-2.2385,-2.2309,-2.2096,-2.1543,-2.0991,-2.0932,-2.1418,-2.0978,-2.0932,-2.143,-2.1468,-2.1733,-2.235,-2.2403,-2.2758,-2.3455,-2.3474,-2.356,-2.361,-2.3595,-2.3595,-2.3595,-2.3595,-2.3595,-2.3595,-2.3595,-2.3595,-2.3681,-2.4736,-2.5221,-2.5297,-2.628,-2.6691,-2.6776,-2.7537,-2.8298,-2.9076,-2.9837,-3.0581,-3.119,-3.119,-3.119,-3.119,-3.119,-3.119,-3.119,-3.119,-3.119,-3.119,-3.119,-3.1715,-3.2459,-3.322,-3.2865,-3.272,-3.415,-3.4506,-3.4865,-3.6136,-3.6416,-3.6706,-3.772,-3.7893,-3.8065,-3.8627,-3.8707,-3.8982,-3.979,-3.9221,-3.9001,-3.979,-3.9203,-3.8707,-3.8707,-3.8707,-3.8707,-3.8707,-3.8707,-3.8707,-3.8707,-3.8707,-3.8707,-3.8707,-3.8707,-3.8707,-3.8707,-3.8707,-3.8707,-3.8707,-3.9515,-3.9918,-3.9937,-4.0744,-4.113,-2.3251,0.0,0.0,0.0,0.0,0.0,0.0,0.0,0.0,0.0,0.0,0.0,0.0,0.0,0.0,-2.197,-2.197,-2.2058,-2.2284,-2.1983,-2.1531,-2.0978,-2.0819,-2.0618,-2.0326,-2.015,-2.0333,-2.0952,-2.1017,-2.1259,-2.1857,-2.2374,-2.2734,-2.2936,-2.3346,-2.357,-2.3595,-2.3595,-2.3595,-2.3595,-2.3595,-2.3595,-2.3595,-2.3991,-2.4158,-2.4225,-2.5297,-2.5762,-2.5799,-2.6436,-2.7012,-2.7554,-2.8332,-2.911,-2.9854,-3.0598,-3.1004,-3.119,-3.119,-3.119,-3.119,-3.119,-3.119,-3.119,-3.119,-3.119,-3.119,-3.119,-3.1715,-3.2459,-3.322,-3.3884,-3.4657,-3.5614,-3.5838,-3.6056,-3.679,-3.6943,-3.7135,-3.779,-3.7893,-3.8246,-3.936,-3.9074,-3.9166,-4.0543,-3.9588,-3.9001,-3.979,-3.968,-3.9533,-3.9533,-3.9533,-3.9313,-3.8762,-3.8707,-3.8707,-3.8707,-3.8707,-3.8707,-3.8707,-3.8707,-3.8707,-3.8707,-3.9258,-3.9533,-3.9551,-4.0359,-4.1038,-4.1589,-4.1827,-4.2249,0.0,0.0,0.0,0.0,0.0,0.0,0.0,0.0,0.0,0.0,0.0,0.0,0.0,0.0,0.0,-2.1493,-2.1493,-2.1531,-2.1644,-2.138,-2.0953,-2.0388,-2.0326,-2.028,-2.0233,-2.0207,-2.0434,-2.1113,-2.1161,-2.1438,-2.2053,-2.2498,-2.2785,-2.3054,-2.3421,-2.3595,-2.3595,-2.3595,-2.3595,-2.3595,-2.3595,-2.3724,-2.3921,-2.4266,-2.4389,-2.4471,-2.5524,-2.612,-2.6297,-2.6573,-2.7131,-2.7857,-2.8687,-2.9448,-3.0192,-3.092,-3.119,-3.119,-3.119,-3.119,-3.119,-3.119,-3.119,-3.119,-3.119,-3.119,-3.1336,-3.1786,-3.2479,-3.3271,-3.4192,-3.5253,-3.6107,-3.6353,-3.6563,-3.697,-3.7788,-3.7684,-3.7811,-3.8966,-3.8652,-3.8587,-3.9722,-3.9239,-3.9148,-4.0432,-4.0084,-3.9845,-4.0304,-4.0377,-4.0249,-3.9918,-4.0194,-3.9918,-3.8799,-3.9001,-3.9038,-3.8726,-3.9001,-3.9184,-3.9184,-3.9184,-3.9184,-3.9184,-3.9974,-4.0377,-4.0377,-4.1185,-4.1827,-4.2304,-4.2635,-4.3039,0.0,0.0,0.0,0.0,0.0,0.0,0.0,0.0,0.0,0.0,0.0,0.0,0.0,0.0,-2.1355,-2.1405,-2.1368,-2.1179,-2.0781,-2.0668,-2.0388,-1.9861,-1.985,-2.0156,-2.0746,-2.0845,-2.1113,-2.1758,-2.1805,-2.21,-2.274,-2.2785,-2.3009,-2.3595,-2.3595,-2.3638,-2.3681,-2.3681,-2.3681,-2.3767,-2.3767,-2.3991,-2.4471,-2.4471,-2.4511,-2.4657,-2.5652,-2.6297,-2.6691,-2.6691,-2.7131,-2.7857,-2.8687,-2.9448,-3.0192,-3.092,-3.119,-3.119,-3.119,-3.119,-3.119,-3.119,-3.119,-3.119,-3.119,-3.123,-3.1521,-3.2758,-3.3671,-3.4533,-3.5701,-3.6645,-3.7135,-3.6643,-3.6921,-3.7592,-3.8814,-3.8486,-3.8534,-4.0482,-3.9717,-3.8982,-3.9845,-3.9276,-3.8964,-3.9772,-4.0653,-4.1222,-4.1222,-4.1222,-4.0946,-4.0194,-4.0781,-4.0561,-3.8946,-3.9478,-3.9588,-3.8854,-3.9496,-3.9918,-4.001,-4.001,-4.001,-4.001,-4.0799,-4.1222,-4.1222,-4.2029,-4.2415,-4.2433,-4.3149,-4.3497,0.0,0.0,0.0,0.0,0.0,0.0,0.0,0.0,0.0,0.0,0.0,0.0,0.0,0.0,-2.0313,-2.0819,-2.0464,-2.0275,-2.0668,-2.0275,-1.9936,-1.9823,-2.0245,-2.0646,-2.0795,-2.1245,-2.1771,-2.2452,-2.2498,-2.2725,-2.3377,-2.3421,-2.3465,-2.3595,-2.3595,-2.3794,-2.4225,-2.4241,-2.443,-2.4871,-2.4871,-2.491,-2.5028,-2.5028,-2.547,-2.6229,-2.647,-2.6624,-2.6691,-2.6691,-2.7131,-2.7857,-2.8687,-2.9448,-3.0192,-3.092,-3.119,-3.119,-3.119,-3.119,-3.119,-3.119,-3.119,-3.119,-3.119,-3.1411,-3.1852,-3.2815,-3.3859,-3.4888,-3.5774,-3.6845,-3.772,-3.7596,-3.7685,-3.7931,-3.8652,-3.8656,-3.8638,-3.9116,-3.8946,-3.9166,-4.0598,-3.9662,-3.8964,-3.9772,-4.1111,-4.2047,-4.2047,-4.2047,-4.1992,-4.1791,-4.1937,-4.1387,-3.9772,-3.979,-3.9827,-3.9643,-3.979,-4.0175,-4.0836,-4.0855,-4.0855,-4.0855,-4.1644,-4.2047,-4.2047,-4.2837,-4.3222,-4.324,-4.3406,-4.3497,0.0,0.0,0.0,0.0,0.0,0.0,0.0,0.0,0.0,0.0,0.0,0.0,0.0,0.0,-2.0225,-2.025,-1.9999,-1.9911,-2.0213,-1.9987,-1.9901,-2.0245,-2.0597,-2.1042,-2.1657,-2.1974,-2.2438,-2.3098,-2.3143,-2.329,-2.3595,-2.3595,-2.3595,-2.3595,-2.3837,-2.4116,-2.4389,-2.4657,-2.4934,-2.5221,-2.5221,-2.5335,-2.5577,-2.5577,-2.598,-2.6691,-2.6691,-2.6691,-2.6691,-2.6691,-2.7131,-2.7823,-2.8264,-2.911,-3.0159,-3.0531,-3.0903,-3.119,-3.119,-3.119,-3.119,-3.119,-3.119,-3.123,-3.1411,-3.1623,-3.2089,-3.337,-3.414,-3.4912,-3.6348,-3.721,-3.7826,-3.8176,-3.83,-3.846,-3.9135,-3.8964,-3.8927,-3.9698,-3.9551,-3.9533,-4.0377,-3.9827,-3.9551,-4.0359,-4.1515,-4.2433,-4.2818,-4.2873,-4.2727,-4.2341,-4.2635,-4.2213,-4.0616,-4.0836,-4.0873,-4.0506,-4.0836,-4.124,-4.1662,-4.2047,-4.2066,-4.168,-4.2451,-4.2873,-4.2873,-4.3296,-4.3497,-4.3497,-4.3497,-4.3497,0.0,0.0,0.0,0.0,0.0,0.0,0.0,0.0,0.0,0.0,0.0,0.0,0.0,-2.1041,-2.0476,-1.9899,-1.9798,-1.9798,-1.9798,-1.9901,-2.0207,-2.0746,-2.0993,-2.1561,-2.2603,-2.2785,-2.3054,-2.3551,-2.3595,-2.3595,-2.3595,-2.3595,-2.3638,-2.3767,-2.4158,-2.4511,-2.4657,-2.5105,-2.5373,-2.5449,-2.5449,-2.5672,-2.612,-2.612,-2.6332,-2.6691,-2.6691,-2.6691,-2.6691,-2.6691,-2.7131,-2.7806,-2.7941,-2.8873,-3.0125,-3.0243,-3.0683,-3.119,-3.119,-3.119,-3.119,-3.119,-3.1269,-3.1389,-3.1696,-3.1933,-3.2388,-3.3952,-3.4545,-3.5169,-3.7033,-3.7588,-3.7863,-3.8542,-3.8707,-3.8891,-3.9551,-3.9166,-3.9129,-4.0616,-4.0469,-4.0065,-3.9918,-4.012,-4.0487,-4.1038,-4.1901,-4.2745,-4.3406,-4.3497,-4.3222,-4.258,-4.3094,-4.2892,-4.1442,-4.1919,-4.2029,-4.1368,-4.1937,-4.2359,-4.2506,-4.3149,-4.3185,-4.2525,-4.3149,-4.3497,-4.3497,-4.3497,-4.3497,-4.3497,-4.3497,-4.3497,0.0,0.0,0.0,0.0,0.0,0.0,0.0,0.0,0.0,0.0,0.0,0.0,-2.1594,-2.1041,-2.0476,-1.9899,-1.9798,-1.9798,-1.9798,-2.0295,-2.0696,-2.0795,-2.1752,-2.2512,-2.2694,-2.3187,-2.3508,-2.3595,-2.3595,-2.3595,-2.3595,-2.3595,-2.3794,-2.4266,-2.4348,-2.4871,-2.5779,-2.5852,-2.6104,-2.6505,-2.6505,-2.6539,-2.6624,-2.6624,-2.6657,-2.6691,-2.6691,-2.6691,-2.6691,-2.6691,-2.7131,-2.7892,-2.8569,-2.9364,-3.0192,-3.0818,-3.1106,-3.119,-3.119,-3.119,-3.119,-3.119,-3.1449,-3.1733,-3.1841,-3.2401,-3.3206,-3.4158,-3.5193,-3.6263,-3.7239,-3.801,-3.8579,-3.867,-3.8707,-3.8726,-3.8836,-3.8781,-3.8964,-3.9882,-4.0543,-4.0726,-4.001,-4.1056,-4.1791,-4.1203,-4.2378,-4.3369,-4.3479,-4.3497,-4.3442,-4.3332,-4.3424,-4.313,-4.2213,-4.2249,-4.2249,-4.2158,-4.2249,-4.2598,-4.3296,-4.3424,-4.3442,-4.3332,-4.3442,-4.3497,-4.3497,-4.3497,-4.3497,-4.3497,-4.3497,-4.3497,0.0,0.0,0.0,0.0,0.0,0.0,0.0,0.0,0.0,0.0,0.0,0.0,-2.1644,-2.1292,-2.084,-1.9949,-1.9798,-1.9952,-2.0295,-2.0597,-2.1042,-2.1799,-2.236,-2.283,-2.3157,-2.3465,-2.3595,-2.3595,-2.3595,-2.3709,-2.4032,-2.4032,-2.4266,-2.4831,-2.5144,-2.554,-2.6013,-2.6262,-2.6521,-2.6691,-2.6691,-2.6691,-2.6691,-2.6691,-2.6691,-2.6691,-2.6691,-2.6691,-2.6691,-2.6691,-2.6894,-2.7266,-2.8027,-2.8805,-2.9567,-3.0311,-3.0852,-3.119,-3.119,-3.119,-3.119,-3.119,-3.147,-3.1861,-3.2162,-3.3001,-3.3985,-3.4575,-3.5509,-3.6486,-3.7276,-3.7753,-3.8138,-3.8597,-3.8707,-3.8707,-3.8707,-3.8707,-3.9074,-4.0341,-4.0487,-4.0598,-4.1148,-4.1827,-4.2176,-4.1827,-4.2763,-4.3497,-4.3497,-4.3497,-4.3497,-4.3497,-4.3497,-4.3351,-4.3002,-4.2965,-4.2965,-4.2965,-4.2965,-4.313,-4.3479,-4.3497,-4.3497,-4.3497,-4.3497,-4.3497,-4.3497,-4.3497,-4.3497,-4.3497,-4.3497,-4.3497,0.0,0.0,0.0,0.0,0.0,0.0,0.0,0.0,0.0,0.0,0.0,0.0,-2.1882,-2.1694,-2.138,-2.0388,-2.0269,-2.0412,-2.0919,-2.1184,-2.1657,-2.2603,-2.2844,-2.3113,-2.3551,-2.3595,-2.3595,-2.3595,-2.3724,-2.3991,-2.4389,-2.4552,-2.4855,-2.5373,-2.5779,-2.6049,-2.6191,-2.6521,-2.6691,-2.6691,-2.6691,-2.6691,-2.6691,-2.6691,-2.6691,-2.6691,-2.6691,-2.6691,-2.6691,-2.6691,-2.6691,-2.6793,-2.774,-2.8467,-2.9093,-3.004,-3.0734,-3.119,-3.119,-3.119,-3.119,-3.119,-3.1545,-3.2022,-3.2366,-3.3476,-3.4606,-3.4934,-3.5771,-3.6725,-3.7331,-3.7643,-3.7955,-3.856,-3.8707,-3.8762,-3.8964,-3.9166,-3.9735,-4.1148,-4.0928,-4.0891,-4.2084,-4.2304,-4.2304,-4.2304,-4.2983,-4.3497,-4.3497,-4.3497,-4.3497,-4.3497,-4.3497,-4.3497,-4.3497,-4.3497,-4.3497,-4.3497,-4.3497,-4.3497,-4.3497,-4.3497,-4.3497,-4.3497,-4.3497,-4.3497,-4.3497,-4.3497,-4.3497,-4.3497,-4.3497,-4.3497,0.0,0.0,0.0,0.0,0.0,0.0,0.0,0.0,0.0,0.0,0.0,0.0,-2.2372,-2.2272,-2.2083,-2.1493,-2.1467,-2.151,-2.1562,-2.2159,-2.2649,-2.2694,-2.3187,-2.3551,-2.3595,-2.3595,-2.3595,-2.3595,-2.4074,-2.4389,-2.4389,-2.4855,-2.5411,-2.5924,-2.5977,-2.6227,-2.6657,-2.6691,-2.6691,-2.6691,-2.6691,-2.6691,-2.6691,-2.6691,-2.6691,-2.6691,-2.6691,-2.6691,-2.6691,-2.6691,-2.6691,-2.6843,-2.8332,-2.8941,-2.9144,-3.0598,-3.1157,-3.119,-3.119,-3.119,-3.119,-3.119,-3.175,-3.2484,-3.2484,-3.3664,-3.4962,-3.499,-3.6193,-3.747,-3.7477,-3.8065,-3.8652,-3.8689,-3.8707,-3.8909,-3.9662,-4.0451,-4.124,-4.2066,-4.2194,-4.2194,-4.2286,-4.2304,-4.2304,-4.2304,-4.2983,-4.3497,-4.3497,-4.3497,-4.3497,-4.3497,-4.3497,-4.3497,-4.3497,-4.3497,-4.3497,-4.3497,-4.3497,-4.3497,-4.3497,-4.3497,-4.3497,-4.3497,-4.3497,-4.3497,-4.3497,-4.3497,-4.3497,-4.3497,-4.3497,-4.3497,0.0,0.0,0.0,0.0,0.0,0.0,0.0,0.0,0.0,0.0,0.0,-2.3182,-2.3509,-2.2885,-2.2293,-2.2208,-2.2246,-2.2389,-2.2902,-2.3549,-2.3963,-2.3938,-2.4491,-2.4881,-2.4881,-2.4881,-2.5048,-2.5418,-2.562,-2.5843,-2.6138,-2.6314,-2.6438,-2.6453,-2.6436,-2.6521,-2.6691,-2.6691,-2.6691,-2.6691,-2.6691,-2.6691,-2.6691,-2.6691,-2.6691,-2.6691,-2.6691,-2.6691,-2.6691,-2.6691,-2.6979,-2.752,-2.8569,-2.9279,-2.9837,-3.0818,-3.119,-3.119,-3.119,-3.119,-3.119,-3.119,-3.1787,-3.2606,-3.3101,-3.4452,-3.5936,-3.6468,-3.7404,-3.8267,-3.8267,-3.8872,-3.9606,-4.012,-4.0249,-4.0469,-4.1277,-4.1258,-4.135,-4.2139,-4.2304,-4.2451,-4.2983,-4.3057,-4.3057,-4.3057,-4.3314,-4.3497,-4.3497,-4.3497,-4.3497,-4.3497,-4.3497,-4.3497,-4.3497,-4.3497,-4.3497,-4.3497,-4.3497,-4.3497,-4.3497,-4.3497,-4.3497,-4.3497,-4.3497,-4.3497,-4.3497,-4.3497,-4.3497,-4.3497,-4.3497,-4.3497,0.0,0.0,0.0,0.0,0.0,0.0,0.0,0.0,0.0,0.0,0.0,0.0,-2.4176,-2.3573,-2.3083,-2.35,-2.3567,-2.3765,-2.4238,-2.4709,-2.4996,-2.4955,-2.5345,-2.5615,-2.5615,-2.5771,-2.6062,-2.6479,-2.6855,-2.7057,-2.7114,-2.7267,-2.7136,-2.6708,-2.6691,-2.6691,-2.6691,-2.6691,-2.6691,-2.6691,-2.6691,-2.6691,-2.6691,-2.6691,-2.6691,-2.6691,-2.6691,-2.6691,-2.6691,-2.6691,-2.7131,-2.7857,-2.8687,-2.9448,-3.0192,-3.092,-3.119,-3.119,-3.119,-3.119,-3.119,-3.119,-3.196,-3.2995,-3.3543,-3.5115,-3.6798,-3.7331,-3.8065,-3.8707,-3.8707,-3.9294,-4.0102,-4.0928,-4.1313,-4.1662,-4.2176,-4.1882,-4.1754,-4.2543,-4.269,-4.2873,-4.3406,-4.3497,-4.3497,-4.3497,-4.3497,-4.3497,-4.3497,-4.3497,-4.3497,-4.3497,-4.3497,-4.3497,-4.3497,-4.3497,-4.3497,-4.3497,-4.3497,-4.3497,-4.3497,-4.3497,-4.3497,-4.3497,-4.3497,-4.3497,-4.3497,-4.3497,-4.3497,-4.3497,-4.3497,-4.3497,0.0,0.0,0.0,0.0,0.0,0.0,0.0,0.0,0.0,0.0,0.0,0.0,-2.4234,-2.435,-2.4624,-2.5342,-2.5477,-2.5531,-2.5517,-2.5585,-2.5659,-2.5644,-2.5659,-2.5674,-2.5674,-2.6214,-2.6585,-2.6585,-2.7632,-2.7965,-2.7217,-2.7593,-2.7469,-2.6708,-2.6691,-2.6691,-2.6691,-2.6691,-2.6691,-2.6691,-2.6691,-2.6691,-2.6691,-2.6691,-2.6691,-2.6691,-2.6691,-2.6691,-2.6691,-2.6708,-2.7182,-2.7943,-2.8704,-2.9482,-3.0226,-3.0937,-3.119,-3.119,-3.119,-3.119,-3.123,-3.1224,-3.2342,-3.3702,-3.3737,-3.5493,-3.7477,-3.7514,-3.8083,-3.8707,-3.8762,-3.935,-4.0139,-4.0983,-4.1772,-4.2341,-4.2341,-4.2341,-4.2561,-4.3332,-4.3497,-4.3497,-4.3497,-4.3497,-4.3497,-4.3497,-4.3497,-4.3497,-4.3497,-4.3497,-4.3497,-4.3497,-4.3497,-4.3497,-4.3497,-4.3497,-4.3497,-4.3497,-4.3497,-4.3497,-4.3497,-4.3497,-4.3497,-4.3497,-4.3497,-4.3497,-4.3497,-4.3497,-4.3497,-4.3497,-4.3497,-4.3497,-2.3078,0.0,0.0,0.0,0.0,0.0,0.0,0.0,0.0,0.0,0.0,0.0,-2.5673,-2.5892,-2.6108,-2.6864,-2.6562,-2.6234,-2.6288,-2.6728,-2.6856,-2.6378,-2.6737,-2.7036,-2.7036,-2.7575,-2.8124,-2.8548,-2.929,-2.9606,-2.9273,-2.8345,-2.7469,-2.6708,-2.6691,-2.6691,-2.6691,-2.6691,-2.6691,-2.6691,-2.6691,-2.6691,-2.6691,-2.6691,-2.6691,-2.6691,-2.6691,-2.6691,-2.6742,-2.7283,-2.796,-2.8738,-2.9499,-3.0243,-3.092,-3.1123,-3.119,-3.119,-3.119,-3.1389,-3.1688,-3.1902,-3.2738,-3.3793,-3.4629,-3.5812,-3.7047,-3.7642,-3.8218,-3.8982,-4.0139,-4.0616,-4.113,-4.2506,-4.3002,-4.3167,-4.3167,-4.3167,-4.3222,-4.3442,-4.3497,-4.3497,-4.3497,-4.3497,-4.3497,-4.3497,-4.3497,-4.3497,-4.3497,-4.3497,-4.3497,-4.3497,-4.3497,-4.3497,-4.3497,-4.3497,-4.3497,-4.3497,-4.3497,-4.3497,-4.3497,-4.3497,-4.3497,-4.3497,-4.3497,-4.3497,-4.3497,-4.3497,-4.3497,-4.3497,-4.3497,-4.3497,0.0,0.0,0.0,0.0,0.0,0.0,-2.4579,-2.4525,-2.4628,0.0,0.0,0.0,-2.6283,-2.651,-2.6721,-2.7458,-2.7255,-2.6968,-2.7001,-2.732,-2.7475,-2.7036,-2.7335,-2.771,-2.7944,-2.8511,-2.915,-2.9717,-3.0335,-3.052,-3.0104,-2.8653,-2.7621,-2.7182,-2.686,-2.6691,-2.6691,-2.6691,-2.6691,-2.6691,-2.6691,-2.6691,-2.6691,-2.6691,-2.6691,-2.6691,-2.6691,-2.686,-2.7232,-2.7994,-2.8569,-2.9059,-2.982,-3.0548,-3.119,-3.119,-3.119,-3.119,-3.119,-3.1538,-3.2038,-3.2241,-3.3188,-3.4419,-3.5114,-3.6198,-3.7282,-3.7767,-3.83,-3.9074,-4.0689,-4.1111,-4.1515,-4.3112,-4.3497,-4.3497,-4.3497,-4.3497,-4.3497,-4.3497,-4.3497,-4.3497,-4.3497,-4.3497,-4.3497,-4.3497,-4.3497,-4.3497,-4.3497,-4.3497,-4.3497,-4.3497,-4.3497,-4.3497,-4.3497,-4.3497,-4.3497,-4.3497,-4.3497,-4.3497,-4.3497,-4.3497,-4.3497,-4.3497,-4.3497,-4.3497,-4.3497,-4.3497,-4.3497,-4.3497,-4.3497,-4.3497,0.0,0.0,0.0,0.0,0.0,0.0,-2.4629,-2.4926,-2.5335,-2.5659,-2.5661,0.0,-2.6525,-2.6616,-2.6855,-2.7563,-2.767,-2.7625,-2.7625,-2.7625,-2.7625,-2.7625,-2.7625,-2.781,-2.8319,-2.8996,-2.9629,-3.0166,-3.0838,-3.0869,-3.0142,-2.8738,-2.7874,-2.7789,-2.708,-2.6691,-2.6691,-2.6691,-2.6691,-2.6691,-2.6691,-2.6691,-2.6691,-2.6691,-2.6691,-2.6691,-2.6691,-2.7131,-2.784,-2.8653,-2.9025,-2.9178,-2.9939,-3.0632,-3.119,-3.119,-3.119,-3.119,-3.119,-3.1704,-3.2371,-3.2415,-3.3733,-3.529,-3.5336,-3.6494,-3.7843,-3.7946,-3.8405,-3.9184,-4.0726,-4.1185,-4.1625,-4.313,-4.3497,-4.3497,-4.3497,-4.3497,-4.3497,-4.3497,-4.3497,-4.3497,-4.3497,-4.3497,-4.3497,-4.3497,-4.3497,-4.3497,-4.3497,-4.3497,-4.3497,-4.3497,-4.3497,-4.3497,-4.3497,-4.3497,-4.3497,-4.3497,-4.3497,-4.3497,-4.3497,-4.3497,-4.3497,-4.3497,-4.3497,-4.3497,-4.3497,-4.3497,-4.3497,-4.3497,-4.3497,-4.3497,0.0,0.0,0.0,0.0,0.0,0.0,-2.6136,-2.6162,-2.6223,0.0,0.0,0.0,0.0,-2.7408,-2.7586,-2.8308,-2.7934,-2.7625,-2.7625,-2.7625,-2.7625,-2.7625,-2.7625,-2.7675,-2.776,-2.8764,-2.9451,-2.9585,-3.0559,-3.0869,-3.0142,-2.9245,-2.8467,-2.7806,-2.708,-2.6691,-2.6691,-2.6691,-2.6691,-2.6691,-2.6691,-2.6691,-2.6691,-2.6691,-2.6691,-2.6691,-2.6691,-2.7131,-2.784,-2.8653,-2.9347,-2.9956,-3.07,-3.1072,-3.119,-3.119,-3.119,-3.119,-3.119,-3.1922,-3.2896,-3.3107,-3.412,-3.5272,-3.5505,-3.64,-3.7524,-3.8318,-3.9085,-3.9882,-4.0855,-4.1589,-4.2304,-4.3259,-4.3497,-4.3497,-4.3497,-4.3497,-4.3497,-4.3497,-4.3497,-4.3497,-4.3497,-4.3497,-4.3497,-4.3497,-4.3497,-4.3497,-4.3497,-4.3497,-4.3497,-4.3497,-4.3497,-4.3497,-4.3497,-4.3497,-4.3497,-4.3497,-4.3497,-4.3497,-4.3497,-4.3497,-4.3497,-4.3497,-4.3497,-4.3497,-4.3497,-4.3497,-4.3497,-4.3497,-4.3497,-4.3497,0.0,0.0,0.0,-2.4895,-2.5021,0.0,0.0,-2.6837,-2.7207,-2.7853,0.0,0.0,0.0,0.0,-2.8697,-2.9026,-2.8532,-2.8203,-2.8532,-2.7993,-2.7625,-2.7625,-2.786,-2.8174,-2.8448,-2.9316,-2.9978,-3.0267,-3.0878,-3.1038,-3.0666,-2.9956,-2.9194,-2.8416,-2.7655,-2.708,-2.6691,-2.6691,-2.6691,-2.6691,-2.6691,-2.6691,-2.6691,-2.6691,-2.6691,-2.6708,-2.7097,-2.7689,-2.8467,-2.9228,-2.9973,-3.0683,-3.1055,-3.119,-3.119,-3.119,-3.119,-3.1241,-3.1613,-3.2366,-3.3259,-3.3778,-3.461,-3.5446,-3.5548,-3.6165,-3.7108,-3.8502,-3.9207,-3.9841,-4.1321,-4.2011,-4.2506,-4.3296,-4.3497,-4.3497,-4.3497,-4.3497,-4.3497,-4.3497,-4.3497,-4.3497,-4.3497,-4.3497,-4.3497,-4.3497,-4.3497,-4.3497,-4.3497,-4.3497,-4.3497,-4.3497,-4.3497,-4.3497,-4.3497,-4.3497,-4.3497,-4.3497,-4.3497,-4.3497,-4.3497,-4.3497,-4.3497,-4.3497,-4.3497,-4.3497,-4.3497,-4.3497,-4.3497,-4.3497,-4.3497,-4.3497,0.0,0.0,0.0,0.0,0.0,-2.6232,0.0,0.0,0.0,0.0,0.0,0.0,0.0,0.0,0.0,0.0,0.0,0.0,0.0,-2.8532,0.0,-2.7949,-2.8293,-2.8794,-2.9561,-3.0298,-3.0925,-3.1371,-3.141,-3.1343,-3.1207,-3.0497,-2.9837,-2.9211,-2.845,-2.7689,-2.6911,-2.6911,-2.6843,-2.6691,-2.6691,-2.6691,-2.6691,-2.6691,-2.6691,-2.6742,-2.7503,-2.8264,-2.9042,-2.9803,-3.0531,-3.119,-3.119,-3.119,-3.119,-3.119,-3.1275,-3.1495,-3.207,-3.2865,-3.3711,-3.4303,-3.5013,-3.5622,-3.5739,-3.6071,-3.676,-3.8472,-3.9068,-3.9626,-4.1608,-4.2242,-4.2587,-4.3332,-4.3497,-4.3497,-4.3497,-4.3497,-4.3497,-4.3497,-4.3497,-4.3497,-4.3497,-4.3497,-4.3497,-4.3497,-4.3497,-4.3497,-4.3497,-4.3497,-4.3497,-4.3497,-4.3497,-4.3497,-4.3497,-4.3497,-4.3497,-4.3497,-4.3497,-4.3497,-4.3497,-4.3497,-4.3497,-4.3497,-4.3644,-4.3644,-4.3497,-4.3644,-4.3644,-4.3497,-4.3497,-4.3497,0.0,0.0,0.0,0.0,-2.7306,-2.8111,-2.8854,0.0,-2.9262,-2.9327,0.0,0.0,0.0,0.0,0.0,0.0,0.0,0.0,-2.949,-2.8951,-2.8697,-2.928,-2.8874,-2.9024,-3.032,-3.153,-3.222,-3.2165,-3.2195,-3.1884,-3.1224,-3.0497,-3.0074,-2.9989,-2.9245,-2.8484,-2.7689,-2.7689,-2.7351,-2.6691,-2.6691,-2.6691,-2.6691,-2.6691,-2.6691,-2.6742,-2.7503,-2.8264,-2.9042,-2.9803,-3.0531,-3.119,-3.119,-3.119,-3.119,-3.119,-3.1596,-3.2171,-3.2297,-3.3203,-3.4387,-3.4472,-3.5013,-3.5694,-3.6182,-3.6333,-3.6696,-3.8011,-3.8915,-3.9783,-4.1158,-4.2083,-4.2793,-4.3356,-4.3497,-4.3497,-4.3497,-4.3497,-4.3497,-4.3497,-4.3497,-4.3497,-4.3497,-4.3497,-4.3497,-4.3497,-4.3497,-4.3497,-4.3497,-4.3497,-4.3497,-4.3497,-4.3497,-4.3497,-4.3497,-4.3497,-4.3497,-4.3497,-4.3497,-4.3497,-4.3497,-4.3497,-4.3497,-4.3497,-4.4195,-4.4213,-4.3497,-4.4213,-4.4195,-4.3497,-4.3497,-4.3497,0.0,0.0,0.0,0.0,0.0,0.0,-2.9213,-2.9651,-2.977,-2.9119,0.0,0.0,0.0,0.0,0.0,0.0,-3.0148,0.0,0.0,0.0,-2.9265,0.0,0.0,0.0,-3.0909,-3.2248,-3.2631,-3.1732,-3.2036,-3.1968,-3.1241,-3.0903,-3.0548,-3.0125,-2.9803,-2.9059,-2.7806,-2.7789,-2.7435,-2.6691,-2.6691,-2.6691,-2.6691,-2.6691,-2.6928,-2.7385,-2.8163,-2.8924,-2.9702,-3.0429,-3.092,-3.119,-3.119,-3.119,-3.1241,-3.1664,-3.2019,-3.2432,-3.3271,-3.3964,-3.4556,-3.5013,-3.5368,-3.5667,-3.5854,-3.5941,-3.6311,-3.8049,-3.8776,-3.9511,-4.1618,-4.2441,-4.2826,-4.3375,-4.3497,-4.3497,-4.3497,-4.3497,-4.3497,-4.3497,-4.3497,-4.3497,-4.3497,-4.3497,-4.3497,-4.3497,-4.3497,-4.3497,-4.3497,-4.3497,-4.3497,-4.3497,-4.3497,-4.3497,-4.3497,-4.3497,-4.3497,-4.3497,-4.3938,-4.3993,-4.3516,-4.4397,-4.4452,-4.3516,-4.4745,-4.5002,-4.4195,-4.4544,-4.4544,-4.4195,-4.3718,-4.3497,-2.6744,0.0,0.0,0.0,-2.9504,-2.97,-2.987,-3.0249,-3.0324,-2.9337,-3.0253,0.0,0.0,0.0,0.0,-3.1255,0.0,-3.0672,0.0,-3.0432,0.0,0.0,0.0,0.0,0.0,-3.3198,-3.3389,-3.1901,-3.229,-3.2171,-3.1241,-3.119,-3.0954,-3.0429,-3.0395,-2.9786,-2.845,-2.8414,-2.796,-2.6996,-2.6996,-2.6894,-2.6708,-2.6911,-2.73,-2.784,-2.8856,-2.96,-3.0176,-3.0903,-3.119,-3.119,-3.119,-3.1309,-3.1562,-3.2087,-3.2584,-3.3051,-3.4117,-3.4624,-3.4895,-3.5453,-3.5622,-3.5622,-3.5622,-3.5622,-3.6,-3.7961,-3.858,-3.9285,-4.181,-4.2577,-4.2826,-4.3375,-4.3497,-4.3497,-4.3497,-4.3497,-4.3497,-4.3497,-4.3497,-4.3497,-4.3497,-4.3497,-4.3497,-4.3497,-4.3497,-4.3497,-4.3497,-4.3497,-4.3497,-4.3497,-4.3497,-4.3497,-4.3497,-4.3497,-4.3589,-4.3809,-4.4378,-4.4544,-4.4158,-4.5076,-4.5131,-4.4176,-4.5516,-4.5828,-4.5039,-4.5039,-4.4929,-4.469,-4.3864,-4.3497,-2.6255,-2.8152,-3.0269,-3.0269,-3.0837,-3.1409,-3.1452,-3.1467,-3.1273,-3.0597,-3.0492,-3.0522,-3.0477,-3.0507,-3.0537,-3.0537,-3.0507,0.0,0.0,0.0,0.0,0.0,0.0,0.0,0.0,-3.4705,-3.4928,-3.344,-3.3355,-3.273,-3.1275,-3.119,-3.119,-3.1157,-3.1157,-3.0801,-3.004,-3.004,-2.9279,-2.7755,-2.7755,-2.7402,-2.6725,-2.7452,-2.7772,-2.7874,-2.9431,-3.0091,-3.0176,-3.0903,-3.119,-3.119,-3.119,-3.163,-3.2297,-3.2273,-3.3186,-3.4438,-3.4472,-3.4979,-3.5588,-3.556,-3.5622,-3.5622,-3.5622,-3.5622,-3.5943,-3.7483,-3.8317,-3.9155,-4.1258,-4.2262,-4.2826,-4.3375,-4.3497,-4.3497,-4.3497,-4.3497,-4.3497,-4.3497,-4.3497,-4.3497,-4.3497,-4.3497,-4.3497,-4.3497,-4.3497,-4.3497,-4.3497,-4.3497,-4.3497,-4.3497,-4.3497,-4.3497,-4.3497,-4.3497,-4.3828,-4.4617,-4.469,-4.5039,-4.5792,-4.5131,-4.5094,-4.581,-4.6654,-4.6673,-4.5865,-4.5865,-4.5461,-4.469,-4.3864,-4.3497,-2.7418,-2.8973,-3.0526,-3.0984,-3.1278,-3.1482,-3.1482,-3.1482,-3.1345,-3.0642,-3.0866,-3.1046,-3.0582,-3.0881,-3.118,-3.118,-3.118,-3.118,0.0,0.0,0.0,0.0,0.0,0.0,0.0,0.0,-3.4252,-3.2763,-3.2662,-3.2222,-3.1241,-3.119,-3.119,-3.119,-3.119,-3.0852,-3.0125,-3.0108,-2.9347,-2.7789,-2.8349,-2.818,-2.7469,-2.823,-2.8856,-2.9364,-2.9888,-3.0378,-3.0852,-3.1089,-3.119,-3.1241,-3.1732,-3.2374,-3.3034,-3.3034,-3.3643,-3.4556,-3.5064,-3.5402,-3.5622,-3.5622,-3.5622,-3.5723,-3.6231,-3.6383,-3.6705,-3.821,-3.9007,-3.9728,-4.0916,-4.1937,-4.275,-4.2939,-4.325,-4.3497,-4.3497,-4.3497,-4.3497,-4.3497,-4.3497,-4.3497,-4.3497,-4.3497,-4.3497,-4.3497,-4.3497,-4.3497,-4.3497,-4.3497,-4.3497,-4.3497,-4.3497,-4.3718,-4.425,-4.4782,-4.5204,-4.548,-4.5993,-4.6177,-4.5902,-4.6673,-4.6709,-4.592,-4.7223,-4.7517,-4.6709,-4.6159,-4.603,-4.625,-4.436,-4.3497,-2.7866,-2.9237,-3.0612,-3.1061,-3.1287,-3.1482,-3.1482,-3.1482,-3.1347,-3.0956,-3.1225,-3.1405,-3.0956,-3.124,-3.1482,-3.1482,-3.1482,-3.1482,0.0,-3.1482,0.0,0.0,0.0,0.0,0.0,-3.4451,-3.4472,-3.2425,-3.2527,-3.2239,-3.1241,-3.119,-3.119,-3.119,-3.119,-3.097,-3.0497,-3.0497,-2.9871,-2.86,-2.8925,-2.8665,-2.7942,-2.8732,-2.9336,-2.9805,-3.0285,-3.0768,-3.119,-3.119,-3.119,-3.1258,-3.1985,-3.2747,-3.344,-3.3694,-3.4252,-3.4962,-3.5453,-3.5622,-3.5622,-3.5622,-3.5808,-3.6129,-3.662,-3.6975,-3.7411,-3.8516,-3.9301,-3.9988,-4.0841,-4.1889,-4.275,-4.2939,-4.325,-4.3497,-4.3497,-4.3497,-4.3497,-4.3497,-4.3497,-4.3497,-4.3497,-4.3497,-4.3497,-4.3497,-4.3497,-4.3497,-4.3497,-4.3497,-4.3497,-4.3497,-4.3754,-4.414,-4.4672,-4.57,-4.6214,-4.592,-4.6673,-4.7021,-4.6764,-4.748,-4.7535,-4.6764,-4.7774,-4.8049,-4.7535,-4.6728,-4.6599,-4.7076,-4.5204,-4.4195]}]]